<?xml version="1.0" encoding="UTF-8"?>
<gpx version="1.0" creator="http://thydzik.com" xmlns:xsi="http://www.w3.org/2001/XMLSchema-instance" xmlns="http://www.topografix.com/GPX/1/0" xsi:schemaLocation="http://www.topografix.com/GPX/1/0 http://www.topografix.com/GPX/1/0/gpx.xsd">
  <url>http://www.bouger-nature-en-bourgogne.fr</url>
  <time>2019-05-17T03:23:32Z</time>
  <wpt lat="47.32721" lon="5.04399">
    <time>2019-05-17T03:23:32Z</time>
    <name/>
    <desc>La Romanée ou encore Clos de Vougeot. Ces noms titillent vos papilles et vous donnent l’eau à la bouche ? Alors pourquoi ne pas en profiter pour ...&lt;br /&gt;21000 Dijon&lt;br &gt;&lt;a href="http://www.cotedor-tourisme.com/bourgogne/pied/chemin-des-Grands-Crus-1er-troncon-de-Dijon-a-Villers-la-Faye_RAPBOU0210000035_fiche.html" target="_blank"&gt;voir la fiche complète&lt;/a&gt;</desc>
    <sym>Waypoint</sym>
  </wpt>
  <trk>
    <name>Chemin des Grands Crus (1er tronçon : de Dijon à Villers-la-Faye)</name>
    <trkseg>
      <trkpt lat="47.2933436506242" lon="5.00113582447371">
        <time>2019-05-17T03:23:32Z</time>
      </trkpt>
      <trkpt lat="47.293641348581" lon="5.00117313201125">
        <time>2019-05-17T03:23:32Z</time>
      </trkpt>
      <trkpt lat="47.2939264267346" lon="5.00131195919233">
        <time>2019-05-17T03:23:32Z</time>
      </trkpt>
      <trkpt lat="47.2942298798629" lon="5.00138939652759">
        <time>2019-05-17T03:23:32Z</time>
      </trkpt>
      <trkpt lat="47.2947915665766" lon="5.00166663544947">
        <time>2019-05-17T03:23:32Z</time>
      </trkpt>
      <trkpt lat="47.2950670258774" lon="5.00185483508128">
        <time>2019-05-17T03:23:32Z</time>
      </trkpt>
      <trkpt lat="47.2953495963233" lon="5.0018510439579">
        <time>2019-05-17T03:23:32Z</time>
      </trkpt>
      <trkpt lat="47.2956921701887" lon="5.00158692416586">
        <time>2019-05-17T03:23:32Z</time>
      </trkpt>
      <trkpt lat="47.2958710336808" lon="5.00118459816463">
        <time>2019-05-17T03:23:32Z</time>
      </trkpt>
      <trkpt lat="47.2960296131083" lon="5.00060812681925">
        <time>2019-05-17T03:23:32Z</time>
      </trkpt>
      <trkpt lat="47.2960468847959" lon="5.00054534164538">
        <time>2019-05-17T03:23:32Z</time>
      </trkpt>
      <trkpt lat="47.2965213977424" lon="5.00066056383195">
        <time>2019-05-17T03:23:32Z</time>
      </trkpt>
      <trkpt lat="47.2981810730328" lon="5.0010598084947">
        <time>2019-05-17T03:23:32Z</time>
      </trkpt>
      <trkpt lat="47.2987239034592" lon="5.00116961285553">
        <time>2019-05-17T03:23:32Z</time>
      </trkpt>
      <trkpt lat="47.2992961773332" lon="5.00123707414343">
        <time>2019-05-17T03:23:32Z</time>
      </trkpt>
      <trkpt lat="47.2993024577103" lon="5.00118517036309">
        <time>2019-05-17T03:23:32Z</time>
      </trkpt>
      <trkpt lat="47.2993099550202" lon="5.00112320548654">
        <time>2019-05-17T03:23:32Z</time>
      </trkpt>
      <trkpt lat="47.2992534688623" lon="5.0010086455263">
        <time>2019-05-17T03:23:32Z</time>
      </trkpt>
      <trkpt lat="47.2991326319043" lon="5.00075430214281">
        <time>2019-05-17T03:23:32Z</time>
      </trkpt>
      <trkpt lat="47.2991054638818" lon="5.00046738113857">
        <time>2019-05-17T03:23:32Z</time>
      </trkpt>
      <trkpt lat="47.2991519616624" lon="5.00021774680259">
        <time>2019-05-17T03:23:32Z</time>
      </trkpt>
      <trkpt lat="47.2991791654192" lon="4.999803867116">
        <time>2019-05-17T03:23:32Z</time>
      </trkpt>
      <trkpt lat="47.2991658630687" lon="4.9993752702308">
        <time>2019-05-17T03:23:32Z</time>
      </trkpt>
      <trkpt lat="47.2991334297685" lon="4.9987245718853">
        <time>2019-05-17T03:23:32Z</time>
      </trkpt>
      <trkpt lat="47.2990795216795" lon="4.99855954952881">
        <time>2019-05-17T03:23:32Z</time>
      </trkpt>
      <trkpt lat="47.2989687226808" lon="4.99821030208085">
        <time>2019-05-17T03:23:32Z</time>
      </trkpt>
      <trkpt lat="47.2989686951526" lon="4.99814338442605">
        <time>2019-05-17T03:23:32Z</time>
      </trkpt>
      <trkpt lat="47.2989685688136" lon="4.99783398840825">
        <time>2019-05-17T03:23:32Z</time>
      </trkpt>
      <trkpt lat="47.2989231283153" lon="4.997507324996">
        <time>2019-05-17T03:23:32Z</time>
      </trkpt>
      <trkpt lat="47.2988087874308" lon="4.99722562306372">
        <time>2019-05-17T03:23:32Z</time>
      </trkpt>
      <trkpt lat="47.2987955664248" lon="4.99719305053799">
        <time>2019-05-17T03:23:32Z</time>
      </trkpt>
      <trkpt lat="47.2987981674658" lon="4.99680039876223">
        <time>2019-05-17T03:23:32Z</time>
      </trkpt>
      <trkpt lat="47.298894410389" lon="4.99645483737521">
        <time>2019-05-17T03:23:32Z</time>
      </trkpt>
      <trkpt lat="47.2989456660321" lon="4.99614596356448">
        <time>2019-05-17T03:23:32Z</time>
      </trkpt>
      <trkpt lat="47.2989045691451" lon="4.99588475761559">
        <time>2019-05-17T03:23:32Z</time>
      </trkpt>
      <trkpt lat="47.2988263452646" lon="4.99556648761265">
        <time>2019-05-17T03:23:32Z</time>
      </trkpt>
      <trkpt lat="47.2988084273721" lon="4.99549358669793">
        <time>2019-05-17T03:23:32Z</time>
      </trkpt>
      <trkpt lat="47.2990184876777" lon="4.99550403758669">
        <time>2019-05-17T03:23:32Z</time>
      </trkpt>
      <trkpt lat="47.299651335354" lon="4.99541960551304">
        <time>2019-05-17T03:23:32Z</time>
      </trkpt>
      <trkpt lat="47.2999735353516" lon="4.99512651830605">
        <time>2019-05-17T03:23:32Z</time>
      </trkpt>
      <trkpt lat="47.3002940922188" lon="4.99463682965472">
        <time>2019-05-17T03:23:32Z</time>
      </trkpt>
      <trkpt lat="47.3004241933493" lon="4.99442880132088">
        <time>2019-05-17T03:23:32Z</time>
      </trkpt>
      <trkpt lat="47.3005433029497" lon="4.99424007869123">
        <time>2019-05-17T03:23:32Z</time>
      </trkpt>
      <trkpt lat="47.300574530387" lon="4.99403400896772">
        <time>2019-05-17T03:23:32Z</time>
      </trkpt>
      <trkpt lat="47.3006129159584" lon="4.99351686078941">
        <time>2019-05-17T03:23:32Z</time>
      </trkpt>
      <trkpt lat="47.3006987017375" lon="4.99343041277488">
        <time>2019-05-17T03:23:32Z</time>
      </trkpt>
      <trkpt lat="47.3007802712362" lon="4.99339490149683">
        <time>2019-05-17T03:23:32Z</time>
      </trkpt>
      <trkpt lat="47.3009027855981" lon="4.99342362406432">
        <time>2019-05-17T03:23:32Z</time>
      </trkpt>
      <trkpt lat="47.3009944551663" lon="4.99344511618385">
        <time>2019-05-17T03:23:32Z</time>
      </trkpt>
      <trkpt lat="47.3010680041893" lon="4.99330590914258">
        <time>2019-05-17T03:23:32Z</time>
      </trkpt>
      <trkpt lat="47.3010745649014" lon="4.99302075117973">
        <time>2019-05-17T03:23:32Z</time>
      </trkpt>
      <trkpt lat="47.3010395268701" lon="4.99265603471031">
        <time>2019-05-17T03:23:32Z</time>
      </trkpt>
      <trkpt lat="47.3009419794021" lon="4.9922159604746">
        <time>2019-05-17T03:23:32Z</time>
      </trkpt>
      <trkpt lat="47.3008685903486" lon="4.99189578618941">
        <time>2019-05-17T03:23:32Z</time>
      </trkpt>
      <trkpt lat="47.3007414267589" lon="4.9915729413014">
        <time>2019-05-17T03:23:32Z</time>
      </trkpt>
      <trkpt lat="47.3006447837372" lon="4.99109335026838">
        <time>2019-05-17T03:23:32Z</time>
      </trkpt>
      <trkpt lat="47.3006490566309" lon="4.99090748123283">
        <time>2019-05-17T03:23:32Z</time>
      </trkpt>
      <trkpt lat="47.3006584106326" lon="4.99050054066937">
        <time>2019-05-17T03:23:32Z</time>
      </trkpt>
      <trkpt lat="47.3006656770639" lon="4.99018437553496">
        <time>2019-05-17T03:23:32Z</time>
      </trkpt>
      <trkpt lat="47.3006747588956" lon="4.98978916858883">
        <time>2019-05-17T03:23:32Z</time>
      </trkpt>
      <trkpt lat="47.3005926339276" lon="4.98867725246355">
        <time>2019-05-17T03:23:32Z</time>
      </trkpt>
      <trkpt lat="47.3004673139883" lon="4.98803828848461">
        <time>2019-05-17T03:23:32Z</time>
      </trkpt>
      <trkpt lat="47.3005332851786" lon="4.988152543194">
        <time>2019-05-17T03:23:32Z</time>
      </trkpt>
      <trkpt lat="47.3005916942562" lon="4.98826501379549">
        <time>2019-05-17T03:23:32Z</time>
      </trkpt>
      <trkpt lat="47.300684310842" lon="4.98838991154087">
        <time>2019-05-17T03:23:32Z</time>
      </trkpt>
      <trkpt lat="47.3007569495262" lon="4.98849376849933">
        <time>2019-05-17T03:23:32Z</time>
      </trkpt>
      <trkpt lat="47.3008702335744" lon="4.98860966770509">
        <time>2019-05-17T03:23:32Z</time>
      </trkpt>
      <trkpt lat="47.301035867913" lon="4.98876754525437">
        <time>2019-05-17T03:23:32Z</time>
      </trkpt>
      <trkpt lat="47.3012058736666" lon="4.9888661120522">
        <time>2019-05-17T03:23:32Z</time>
      </trkpt>
      <trkpt lat="47.3013465672289" lon="4.98895411625003">
        <time>2019-05-17T03:23:32Z</time>
      </trkpt>
      <trkpt lat="47.3014746262802" lon="4.98902062490863">
        <time>2019-05-17T03:23:32Z</time>
      </trkpt>
      <trkpt lat="47.3015233186868" lon="4.98904719873292">
        <time>2019-05-17T03:23:32Z</time>
      </trkpt>
      <trkpt lat="47.3016160800482" lon="4.98909782300745">
        <time>2019-05-17T03:23:32Z</time>
      </trkpt>
      <trkpt lat="47.301765036812" lon="4.98914531856253">
        <time>2019-05-17T03:23:32Z</time>
      </trkpt>
      <trkpt lat="47.3018672259311" lon="4.98915039078991">
        <time>2019-05-17T03:23:32Z</time>
      </trkpt>
      <trkpt lat="47.3020037075858" lon="4.98914713919627">
        <time>2019-05-17T03:23:32Z</time>
      </trkpt>
      <trkpt lat="47.30213337683" lon="4.98914355026164">
        <time>2019-05-17T03:23:32Z</time>
      </trkpt>
      <trkpt lat="47.3022778210461" lon="4.98909056694444">
        <time>2019-05-17T03:23:32Z</time>
      </trkpt>
      <trkpt lat="47.3023498576666" lon="4.98892370780473">
        <time>2019-05-17T03:23:32Z</time>
      </trkpt>
      <trkpt lat="47.3023667032439" lon="4.98878418649662">
        <time>2019-05-17T03:23:32Z</time>
      </trkpt>
      <trkpt lat="47.3023690755742" lon="4.98865768598029">
        <time>2019-05-17T03:23:32Z</time>
      </trkpt>
      <trkpt lat="47.3024513040824" lon="4.9888244517972">
        <time>2019-05-17T03:23:32Z</time>
      </trkpt>
      <trkpt lat="47.3025400055465" lon="4.98899260367647">
        <time>2019-05-17T03:23:32Z</time>
      </trkpt>
      <trkpt lat="47.3026348731746" lon="4.98901331703387">
        <time>2019-05-17T03:23:32Z</time>
      </trkpt>
      <trkpt lat="47.3027024403143" lon="4.98899173504198">
        <time>2019-05-17T03:23:32Z</time>
      </trkpt>
      <trkpt lat="47.3027641554534" lon="4.98896734989374">
        <time>2019-05-17T03:23:32Z</time>
      </trkpt>
      <trkpt lat="47.3027843446815" lon="4.98895427997316">
        <time>2019-05-17T03:23:32Z</time>
      </trkpt>
      <trkpt lat="47.3028632166938" lon="4.98888181765204">
        <time>2019-05-17T03:23:32Z</time>
      </trkpt>
      <trkpt lat="47.3029098120351" lon="4.98883894650953">
        <time>2019-05-17T03:23:32Z</time>
      </trkpt>
      <trkpt lat="47.3029856956244" lon="4.98874098468188">
        <time>2019-05-17T03:23:32Z</time>
      </trkpt>
      <trkpt lat="47.3030204262853" lon="4.98869614298151">
        <time>2019-05-17T03:23:32Z</time>
      </trkpt>
      <trkpt lat="47.3031278538856" lon="4.98854854278119">
        <time>2019-05-17T03:23:32Z</time>
      </trkpt>
      <trkpt lat="47.3033175697531" lon="4.9881399428314">
        <time>2019-05-17T03:23:32Z</time>
      </trkpt>
      <trkpt lat="47.3034753631019" lon="4.98791327499621">
        <time>2019-05-17T03:23:32Z</time>
      </trkpt>
      <trkpt lat="47.3035527275628" lon="4.98785175830443">
        <time>2019-05-17T03:23:32Z</time>
      </trkpt>
      <trkpt lat="47.3037650207501" lon="4.98768295252904">
        <time>2019-05-17T03:23:32Z</time>
      </trkpt>
      <trkpt lat="47.3039818916706" lon="4.98760195097085">
        <time>2019-05-17T03:23:32Z</time>
      </trkpt>
      <trkpt lat="47.3042740348325" lon="4.98756546535528">
        <time>2019-05-17T03:23:32Z</time>
      </trkpt>
      <trkpt lat="47.3045088841144" lon="4.98760770333653">
        <time>2019-05-17T03:23:32Z</time>
      </trkpt>
      <trkpt lat="47.3047647512384" lon="4.98764078826172">
        <time>2019-05-17T03:23:32Z</time>
      </trkpt>
      <trkpt lat="47.3049367806575" lon="4.98770030191161">
        <time>2019-05-17T03:23:32Z</time>
      </trkpt>
      <trkpt lat="47.305033772193" lon="4.98770511381935">
        <time>2019-05-17T03:23:32Z</time>
      </trkpt>
      <trkpt lat="47.3051309975454" lon="4.98769974114176">
        <time>2019-05-17T03:23:32Z</time>
      </trkpt>
      <trkpt lat="47.3052222299235" lon="4.98765328787304">
        <time>2019-05-17T03:23:32Z</time>
      </trkpt>
      <trkpt lat="47.3052454025199" lon="4.98761045148689">
        <time>2019-05-17T03:23:32Z</time>
      </trkpt>
      <trkpt lat="47.305267640533" lon="4.98756934337584">
        <time>2019-05-17T03:23:32Z</time>
      </trkpt>
      <trkpt lat="47.3053176140399" lon="4.98744386553996">
        <time>2019-05-17T03:23:32Z</time>
      </trkpt>
      <trkpt lat="47.3053140555274" lon="4.98724988711972">
        <time>2019-05-17T03:23:32Z</time>
      </trkpt>
      <trkpt lat="47.3053278151091" lon="4.98671381791241">
        <time>2019-05-17T03:23:32Z</time>
      </trkpt>
      <trkpt lat="47.305359045095" lon="4.98666182543433">
        <time>2019-05-17T03:23:32Z</time>
      </trkpt>
      <trkpt lat="47.3054434123323" lon="4.98652186555735">
        <time>2019-05-17T03:23:32Z</time>
      </trkpt>
      <trkpt lat="47.3055668804616" lon="4.98631768904344">
        <time>2019-05-17T03:23:32Z</time>
      </trkpt>
      <trkpt lat="47.305715486437" lon="4.98607331052735">
        <time>2019-05-17T03:23:32Z</time>
      </trkpt>
      <trkpt lat="47.3058752338267" lon="4.9858124652228">
        <time>2019-05-17T03:23:32Z</time>
      </trkpt>
      <trkpt lat="47.306032145741" lon="4.98555915813308">
        <time>2019-05-17T03:23:32Z</time>
      </trkpt>
      <trkpt lat="47.3061721593565" lon="4.9853372078396">
        <time>2019-05-17T03:23:32Z</time>
      </trkpt>
      <trkpt lat="47.3062813416744" lon="4.98517044060841">
        <time>2019-05-17T03:23:32Z</time>
      </trkpt>
      <trkpt lat="47.3063546211427" lon="4.98503194997546">
        <time>2019-05-17T03:23:32Z</time>
      </trkpt>
      <trkpt lat="47.3064000751619" lon="4.98488450560215">
        <time>2019-05-17T03:23:32Z</time>
      </trkpt>
      <trkpt lat="47.306406827013" lon="4.98484137284858">
        <time>2019-05-17T03:23:32Z</time>
      </trkpt>
      <trkpt lat="47.3064232544715" lon="4.98473642933299">
        <time>2019-05-17T03:23:32Z</time>
      </trkpt>
      <trkpt lat="47.3064297434569" lon="4.9845963920801">
        <time>2019-05-17T03:23:32Z</time>
      </trkpt>
      <trkpt lat="47.3064251071356" lon="4.98447267714305">
        <time>2019-05-17T03:23:32Z</time>
      </trkpt>
      <trkpt lat="47.3064148796405" lon="4.98437382720352">
        <time>2019-05-17T03:23:32Z</time>
      </trkpt>
      <trkpt lat="47.3064023298069" lon="4.98429645889996">
        <time>2019-05-17T03:23:32Z</time>
      </trkpt>
      <trkpt lat="47.3063658516437" lon="4.98416541246529">
        <time>2019-05-17T03:23:32Z</time>
      </trkpt>
      <trkpt lat="47.3063317037898" lon="4.98404621056622">
        <time>2019-05-17T03:23:32Z</time>
      </trkpt>
      <trkpt lat="47.3062975417594" lon="4.98392706521394">
        <time>2019-05-17T03:23:32Z</time>
      </trkpt>
      <trkpt lat="47.306263380913" lon="4.98380786298797">
        <time>2019-05-17T03:23:32Z</time>
      </trkpt>
      <trkpt lat="47.3062292330192" lon="4.98368867134904">
        <time>2019-05-17T03:23:32Z</time>
      </trkpt>
      <trkpt lat="47.306195070619" lon="4.98356952645355">
        <time>2019-05-17T03:23:32Z</time>
      </trkpt>
      <trkpt lat="47.3061609221484" lon="4.98345032531581">
        <time>2019-05-17T03:23:32Z</time>
      </trkpt>
      <trkpt lat="47.3061347851462" lon="4.98335667199319">
        <time>2019-05-17T03:23:32Z</time>
      </trkpt>
      <trkpt lat="47.3061363975114" lon="4.98333149254109">
        <time>2019-05-17T03:23:32Z</time>
      </trkpt>
      <trkpt lat="47.3061728085529" lon="4.98333370951179">
        <time>2019-05-17T03:23:32Z</time>
      </trkpt>
      <trkpt lat="47.3062087388183" lon="4.98333589206966">
        <time>2019-05-17T03:23:32Z</time>
      </trkpt>
      <trkpt lat="47.3062373026916" lon="4.98333663727597">
        <time>2019-05-17T03:23:32Z</time>
      </trkpt>
      <trkpt lat="47.3062676067663" lon="4.98333625346064">
        <time>2019-05-17T03:23:32Z</time>
      </trkpt>
      <trkpt lat="47.3062460934836" lon="4.98323148347096">
        <time>2019-05-17T03:23:32Z</time>
      </trkpt>
      <trkpt lat="47.3062179699742" lon="4.98312452258292">
        <time>2019-05-17T03:23:32Z</time>
      </trkpt>
      <trkpt lat="47.3062083289026" lon="4.98308749973888">
        <time>2019-05-17T03:23:32Z</time>
      </trkpt>
      <trkpt lat="47.3063087384021" lon="4.9830544543061">
        <time>2019-05-17T03:23:32Z</time>
      </trkpt>
      <trkpt lat="47.306377777123" lon="4.98307739204709">
        <time>2019-05-17T03:23:32Z</time>
      </trkpt>
      <trkpt lat="47.3065917960092" lon="4.98334695504462">
        <time>2019-05-17T03:23:32Z</time>
      </trkpt>
      <trkpt lat="47.3067185773083" lon="4.98357982805662">
        <time>2019-05-17T03:23:32Z</time>
      </trkpt>
      <trkpt lat="47.3067764084143" lon="4.98393876773087">
        <time>2019-05-17T03:23:32Z</time>
      </trkpt>
      <trkpt lat="47.3068550421361" lon="4.98409018590035">
        <time>2019-05-17T03:23:32Z</time>
      </trkpt>
      <trkpt lat="47.3069662068761" lon="4.98430424800037">
        <time>2019-05-17T03:23:32Z</time>
      </trkpt>
      <trkpt lat="47.3073804003588" lon="4.98448662536352">
        <time>2019-05-17T03:23:32Z</time>
      </trkpt>
      <trkpt lat="47.3076141863593" lon="4.98485429103346">
        <time>2019-05-17T03:23:32Z</time>
      </trkpt>
      <trkpt lat="47.3078267183966" lon="4.9851885358777">
        <time>2019-05-17T03:23:32Z</time>
      </trkpt>
      <trkpt lat="47.3080664354269" lon="4.98529753186922">
        <time>2019-05-17T03:23:32Z</time>
      </trkpt>
      <trkpt lat="47.3085429028455" lon="4.98564486628268">
        <time>2019-05-17T03:23:32Z</time>
      </trkpt>
      <trkpt lat="47.3089563522069" lon="4.98585959472748">
        <time>2019-05-17T03:23:32Z</time>
      </trkpt>
      <trkpt lat="47.3094276243982" lon="4.98643328748013">
        <time>2019-05-17T03:23:32Z</time>
      </trkpt>
      <trkpt lat="47.3096811733034" lon="4.98689907310822">
        <time>2019-05-17T03:23:32Z</time>
      </trkpt>
      <trkpt lat="47.3099446213314" lon="4.98743328566015">
        <time>2019-05-17T03:23:32Z</time>
      </trkpt>
      <trkpt lat="47.3099757400447" lon="4.98749638908121">
        <time>2019-05-17T03:23:32Z</time>
      </trkpt>
      <trkpt lat="47.3100452787837" lon="4.98771935326875">
        <time>2019-05-17T03:23:32Z</time>
      </trkpt>
      <trkpt lat="47.310098800641" lon="4.98789096492401">
        <time>2019-05-17T03:23:32Z</time>
      </trkpt>
      <trkpt lat="47.310378050222" lon="4.98819617578811">
        <time>2019-05-17T03:23:32Z</time>
      </trkpt>
      <trkpt lat="47.3107269073148" lon="4.98870457239376">
        <time>2019-05-17T03:23:32Z</time>
      </trkpt>
      <trkpt lat="47.3111952844766" lon="4.98904606316461">
        <time>2019-05-17T03:23:32Z</time>
      </trkpt>
      <trkpt lat="47.3115788320202" lon="4.98929400929478">
        <time>2019-05-17T03:23:32Z</time>
      </trkpt>
      <trkpt lat="47.3117377241188" lon="4.98939672739774">
        <time>2019-05-17T03:23:32Z</time>
      </trkpt>
      <trkpt lat="47.3119033689471" lon="4.98975651834722">
        <time>2019-05-17T03:23:32Z</time>
      </trkpt>
      <trkpt lat="47.3121022608376" lon="4.9902863127583">
        <time>2019-05-17T03:23:32Z</time>
      </trkpt>
      <trkpt lat="47.3123569973076" lon="4.99023682321924">
        <time>2019-05-17T03:23:32Z</time>
      </trkpt>
      <trkpt lat="47.3128297335566" lon="4.99074591587016">
        <time>2019-05-17T03:23:32Z</time>
      </trkpt>
      <trkpt lat="47.3129775472021" lon="4.9910570374974">
        <time>2019-05-17T03:23:32Z</time>
      </trkpt>
      <trkpt lat="47.3131447882723" lon="4.99140905581926">
        <time>2019-05-17T03:23:32Z</time>
      </trkpt>
      <trkpt lat="47.3133468920602" lon="4.99219608769421">
        <time>2019-05-17T03:23:32Z</time>
      </trkpt>
      <trkpt lat="47.3133613257879" lon="4.99226337706412">
        <time>2019-05-17T03:23:32Z</time>
      </trkpt>
      <trkpt lat="47.3134212975968" lon="4.99254296628245">
        <time>2019-05-17T03:23:32Z</time>
      </trkpt>
      <trkpt lat="47.3135435200225" lon="4.99311278085315">
        <time>2019-05-17T03:23:32Z</time>
      </trkpt>
      <trkpt lat="47.3135855412962" lon="4.99330869032773">
        <time>2019-05-17T03:23:32Z</time>
      </trkpt>
      <trkpt lat="47.3136922121888" lon="4.99441473807668">
        <time>2019-05-17T03:23:32Z</time>
      </trkpt>
      <trkpt lat="47.3136751013124" lon="4.99485915469227">
        <time>2019-05-17T03:23:32Z</time>
      </trkpt>
      <trkpt lat="47.3136433399922" lon="4.99568396081054">
        <time>2019-05-17T03:23:32Z</time>
      </trkpt>
      <trkpt lat="47.313637464863" lon="4.99583650581011">
        <time>2019-05-17T03:23:32Z</time>
      </trkpt>
      <trkpt lat="47.3135596928113" lon="4.99636921774008">
        <time>2019-05-17T03:23:32Z</time>
      </trkpt>
      <trkpt lat="47.3134544578709" lon="4.99709001110185">
        <time>2019-05-17T03:23:32Z</time>
      </trkpt>
      <trkpt lat="47.3133902843927" lon="4.99750785372673">
        <time>2019-05-17T03:23:32Z</time>
      </trkpt>
      <trkpt lat="47.3132861547386" lon="4.99818583816065">
        <time>2019-05-17T03:23:32Z</time>
      </trkpt>
      <trkpt lat="47.3133757167364" lon="4.9983686947669">
        <time>2019-05-17T03:23:32Z</time>
      </trkpt>
      <trkpt lat="47.313393993243" lon="4.99842732227677">
        <time>2019-05-17T03:23:32Z</time>
      </trkpt>
      <trkpt lat="47.3133920001884" lon="4.99851379683028">
        <time>2019-05-17T03:23:32Z</time>
      </trkpt>
      <trkpt lat="47.3133488029198" lon="4.99868479303829">
        <time>2019-05-17T03:23:32Z</time>
      </trkpt>
      <trkpt lat="47.3133805927193" lon="4.99872485495879">
        <time>2019-05-17T03:23:32Z</time>
      </trkpt>
      <trkpt lat="47.3134211324875" lon="4.99866915868585">
        <time>2019-05-17T03:23:32Z</time>
      </trkpt>
      <trkpt lat="47.3134433957978" lon="4.99855483549546">
        <time>2019-05-17T03:23:32Z</time>
      </trkpt>
      <trkpt lat="47.3135301245942" lon="4.99848220121147">
        <time>2019-05-17T03:23:32Z</time>
      </trkpt>
      <trkpt lat="47.3135752064396" lon="4.99851330503851">
        <time>2019-05-17T03:23:32Z</time>
      </trkpt>
      <trkpt lat="47.3135801914812" lon="4.99858088931203">
        <time>2019-05-17T03:23:32Z</time>
      </trkpt>
      <trkpt lat="47.3135775338952" lon="4.9986961896524">
        <time>2019-05-17T03:23:32Z</time>
      </trkpt>
      <trkpt lat="47.3135681194426" lon="4.99882077365398">
        <time>2019-05-17T03:23:32Z</time>
      </trkpt>
      <trkpt lat="47.313560033825" lon="4.99888770583991">
        <time>2019-05-17T03:23:32Z</time>
      </trkpt>
      <trkpt lat="47.3135058705636" lon="4.99925054463959">
        <time>2019-05-17T03:23:32Z</time>
      </trkpt>
      <trkpt lat="47.3134661059407" lon="4.99955638333356">
        <time>2019-05-17T03:23:32Z</time>
      </trkpt>
      <trkpt lat="47.3134342045898" lon="4.99980489732572">
        <time>2019-05-17T03:23:32Z</time>
      </trkpt>
      <trkpt lat="47.3134160384872" lon="5.0000252380522">
        <time>2019-05-17T03:23:32Z</time>
      </trkpt>
      <trkpt lat="47.3133978714289" lon="5.00024557778654">
        <time>2019-05-17T03:23:32Z</time>
      </trkpt>
      <trkpt lat="47.3133783742126" lon="5.0005235680944">
        <time>2019-05-17T03:23:32Z</time>
      </trkpt>
      <trkpt lat="47.3133773738256" lon="5.0008505772834">
        <time>2019-05-17T03:23:32Z</time>
      </trkpt>
      <trkpt lat="47.3134254437321" lon="5.00103574264828">
        <time>2019-05-17T03:23:32Z</time>
      </trkpt>
      <trkpt lat="47.3134369625419" lon="5.00110365288393">
        <time>2019-05-17T03:23:32Z</time>
      </trkpt>
      <trkpt lat="47.3135341028412" lon="5.00114697465706">
        <time>2019-05-17T03:23:32Z</time>
      </trkpt>
      <trkpt lat="47.3136195032416" lon="5.00113199460864">
        <time>2019-05-17T03:23:32Z</time>
      </trkpt>
      <trkpt lat="47.3137247310207" lon="5.00110838457287">
        <time>2019-05-17T03:23:32Z</time>
      </trkpt>
      <trkpt lat="47.3137911912331" lon="5.00106360192364">
        <time>2019-05-17T03:23:32Z</time>
      </trkpt>
      <trkpt lat="47.3138774782662" lon="5.00101018832008">
        <time>2019-05-17T03:23:32Z</time>
      </trkpt>
      <trkpt lat="47.3139504731442" lon="5.00096573048097">
        <time>2019-05-17T03:23:32Z</time>
      </trkpt>
      <trkpt lat="47.3140101763952" lon="5.00093023013335">
        <time>2019-05-17T03:23:32Z</time>
      </trkpt>
      <trkpt lat="47.3140631221999" lon="5.0009040115446">
        <time>2019-05-17T03:23:32Z</time>
      </trkpt>
      <trkpt lat="47.3140962417051" lon="5.00088642467692">
        <time>2019-05-17T03:23:32Z</time>
      </trkpt>
      <trkpt lat="47.3141624796357" lon="5.00085124919139">
        <time>2019-05-17T03:23:32Z</time>
      </trkpt>
      <trkpt lat="47.3142147610191" lon="5.00085385628552">
        <time>2019-05-17T03:23:32Z</time>
      </trkpt>
      <trkpt lat="47.3142668207481" lon="5.0008660719967">
        <time>2019-05-17T03:23:32Z</time>
      </trkpt>
      <trkpt lat="47.314312345233" lon="5.00087796183755">
        <time>2019-05-17T03:23:32Z</time>
      </trkpt>
      <trkpt lat="47.3143578697161" lon="5.00088985169865">
        <time>2019-05-17T03:23:32Z</time>
      </trkpt>
      <trkpt lat="47.3143959723411" lon="5.00093984940763">
        <time>2019-05-17T03:23:32Z</time>
      </trkpt>
      <trkpt lat="47.3143944207209" lon="5.00100710903462">
        <time>2019-05-17T03:23:32Z</time>
      </trkpt>
      <trkpt lat="47.3143518847943" lon="5.00114928137126">
        <time>2019-05-17T03:23:32Z</time>
      </trkpt>
      <trkpt lat="47.3142397846619" lon="5.00147075512352">
        <time>2019-05-17T03:23:32Z</time>
      </trkpt>
      <trkpt lat="47.3141157223496" lon="5.00174353264133">
        <time>2019-05-17T03:23:32Z</time>
      </trkpt>
      <trkpt lat="47.3142456523537" lon="5.00198591072509">
        <time>2019-05-17T03:23:32Z</time>
      </trkpt>
    </trkseg>
  </trk>
  <trk>
    <name>Chemin des Grands Crus (1er tronçon : de Dijon à Villers-la-Faye)</name>
    <trkseg>
      <trkpt lat="47.2933436506242" lon="5.00113582447371">
        <time>2019-05-17T03:23:32Z</time>
      </trkpt>
      <trkpt lat="47.2933634071427" lon="5.00135579487533">
        <time>2019-05-17T03:23:32Z</time>
      </trkpt>
      <trkpt lat="47.2939246652692" lon="5.00178525656896">
        <time>2019-05-17T03:23:32Z</time>
      </trkpt>
      <trkpt lat="47.293902163075" lon="5.00222211086703">
        <time>2019-05-17T03:23:32Z</time>
      </trkpt>
      <trkpt lat="47.2938796586744" lon="5.0026589647698">
        <time>2019-05-17T03:23:32Z</time>
      </trkpt>
      <trkpt lat="47.2938994122701" lon="5.0028789387532">
        <time>2019-05-17T03:23:32Z</time>
      </trkpt>
      <trkpt lat="47.2940772455381" lon="5.00322609447566">
        <time>2019-05-17T03:23:32Z</time>
      </trkpt>
      <trkpt lat="47.2943661900894" lon="5.00356451256555">
        <time>2019-05-17T03:23:32Z</time>
      </trkpt>
      <trkpt lat="47.2946752354805" lon="5.00376685859395">
        <time>2019-05-17T03:23:32Z</time>
      </trkpt>
      <trkpt lat="47.2948802450478" lon="5.00296707634621">
        <time>2019-05-17T03:23:32Z</time>
      </trkpt>
      <trkpt lat="47.2950021292015" lon="5.00246222503917">
        <time>2019-05-17T03:23:32Z</time>
      </trkpt>
      <trkpt lat="47.2950670258774" lon="5.00185483508128">
        <time>2019-05-17T03:23:32Z</time>
      </trkpt>
    </trkseg>
  </trk>
  <trk>
    <name>Chemin des Grands Crus (1er tronçon : de Dijon à Villers-la-Faye)</name>
    <trkseg>
      <trkpt lat="47.231329655018" lon="4.96444591563139">
        <time>2019-05-17T03:23:32Z</time>
      </trkpt>
      <trkpt lat="47.2313379917465" lon="4.96441866360251">
        <time>2019-05-17T03:23:32Z</time>
      </trkpt>
      <trkpt lat="47.2313521232557" lon="4.96439042072253">
        <time>2019-05-17T03:23:32Z</time>
      </trkpt>
      <trkpt lat="47.2313693632081" lon="4.96436232965614">
        <time>2019-05-17T03:23:32Z</time>
      </trkpt>
      <trkpt lat="47.2314038777397" lon="4.96430462699225">
        <time>2019-05-17T03:23:32Z</time>
      </trkpt>
      <trkpt lat="47.2314710741833" lon="4.96422416114715">
        <time>2019-05-17T03:23:32Z</time>
      </trkpt>
      <trkpt lat="47.2315290817134" lon="4.96413715192566">
        <time>2019-05-17T03:23:32Z</time>
      </trkpt>
      <trkpt lat="47.2316222422827" lon="4.96402304069972">
        <time>2019-05-17T03:23:32Z</time>
      </trkpt>
      <trkpt lat="47.2317344132189" lon="4.96397060741552">
        <time>2019-05-17T03:23:32Z</time>
      </trkpt>
      <trkpt lat="47.2319666024863" lon="4.96386594629883">
        <time>2019-05-17T03:23:32Z</time>
      </trkpt>
      <trkpt lat="47.2322616348611" lon="4.96378060641145">
        <time>2019-05-17T03:23:32Z</time>
      </trkpt>
      <trkpt lat="47.2325750305741" lon="4.96365206698432">
        <time>2019-05-17T03:23:32Z</time>
      </trkpt>
      <trkpt lat="47.2328726500351" lon="4.96349876420365">
        <time>2019-05-17T03:23:32Z</time>
      </trkpt>
      <trkpt lat="47.2331882285101" lon="4.96327437794717">
        <time>2019-05-17T03:23:32Z</time>
      </trkpt>
      <trkpt lat="47.2333041207745" lon="4.96320810244969">
        <time>2019-05-17T03:23:32Z</time>
      </trkpt>
      <trkpt lat="47.2335313211143" lon="4.96308143246087">
        <time>2019-05-17T03:23:32Z</time>
      </trkpt>
      <trkpt lat="47.2337832271514" lon="4.96295023931776">
        <time>2019-05-17T03:23:32Z</time>
      </trkpt>
      <trkpt lat="47.2340050380011" lon="4.96283932004182">
        <time>2019-05-17T03:23:32Z</time>
      </trkpt>
      <trkpt lat="47.2341722822889" lon="4.96278227417943">
        <time>2019-05-17T03:23:32Z</time>
      </trkpt>
      <trkpt lat="47.2343266967811" lon="4.96276810122792">
        <time>2019-05-17T03:23:32Z</time>
      </trkpt>
      <trkpt lat="47.2345014359006" lon="4.96277232709044">
        <time>2019-05-17T03:23:32Z</time>
      </trkpt>
      <trkpt lat="47.2346799265663" lon="4.96274193502252">
        <time>2019-05-17T03:23:32Z</time>
      </trkpt>
      <trkpt lat="47.2348520437429" lon="4.96268437144762">
        <time>2019-05-17T03:23:32Z</time>
      </trkpt>
      <trkpt lat="47.2349970507258" lon="4.96260958798002">
        <time>2019-05-17T03:23:32Z</time>
      </trkpt>
      <trkpt lat="47.2350701686759" lon="4.96252181992387">
        <time>2019-05-17T03:23:32Z</time>
      </trkpt>
      <trkpt lat="47.2351197454327" lon="4.96240964431519">
        <time>2019-05-17T03:23:32Z</time>
      </trkpt>
      <trkpt lat="47.2351351072155" lon="4.96227268733877">
        <time>2019-05-17T03:23:32Z</time>
      </trkpt>
      <trkpt lat="47.2351232751934" lon="4.96214159686471">
        <time>2019-05-17T03:23:32Z</time>
      </trkpt>
      <trkpt lat="47.2350885546107" lon="4.96197458108605">
        <time>2019-05-17T03:23:32Z</time>
      </trkpt>
      <trkpt lat="47.2350066251386" lon="4.96163645643542">
        <time>2019-05-17T03:23:32Z</time>
      </trkpt>
      <trkpt lat="47.2349456997751" lon="4.96144155800466">
        <time>2019-05-17T03:23:32Z</time>
      </trkpt>
      <trkpt lat="47.2349157823352" lon="4.96132014743703">
        <time>2019-05-17T03:23:32Z</time>
      </trkpt>
      <trkpt lat="47.2348695428647" lon="4.96119793641715">
        <time>2019-05-17T03:23:32Z</time>
      </trkpt>
      <trkpt lat="47.2348222126106" lon="4.96112364938085">
        <time>2019-05-17T03:23:32Z</time>
      </trkpt>
      <trkpt lat="47.2347259155052" lon="4.96104695998724">
        <time>2019-05-17T03:23:32Z</time>
      </trkpt>
      <trkpt lat="47.234566511308" lon="4.96087122250941">
        <time>2019-05-17T03:23:32Z</time>
      </trkpt>
      <trkpt lat="47.2344250644411" lon="4.96062440177559">
        <time>2019-05-17T03:23:32Z</time>
      </trkpt>
      <trkpt lat="47.2342683854722" lon="4.96032885872636">
        <time>2019-05-17T03:23:32Z</time>
      </trkpt>
      <trkpt lat="47.2341748135048" lon="4.96013236393794">
        <time>2019-05-17T03:23:32Z</time>
      </trkpt>
      <trkpt lat="47.2341291178544" lon="4.95998619445514">
        <time>2019-05-17T03:23:32Z</time>
      </trkpt>
      <trkpt lat="47.2341149757275" lon="4.95988954789774">
        <time>2019-05-17T03:23:32Z</time>
      </trkpt>
      <trkpt lat="47.2341334784604" lon="4.95979450174241">
        <time>2019-05-17T03:23:32Z</time>
      </trkpt>
      <trkpt lat="47.2341805381651" lon="4.95968530301906">
        <time>2019-05-17T03:23:32Z</time>
      </trkpt>
      <trkpt lat="47.2342504963272" lon="4.95960607776034">
        <time>2019-05-17T03:23:32Z</time>
      </trkpt>
      <trkpt lat="47.2344349076869" lon="4.95947344137009">
        <time>2019-05-17T03:23:32Z</time>
      </trkpt>
      <trkpt lat="47.2345676646032" lon="4.95938399475659">
        <time>2019-05-17T03:23:32Z</time>
      </trkpt>
      <trkpt lat="47.2346351332043" lon="4.95929134847026">
        <time>2019-05-17T03:23:32Z</time>
      </trkpt>
      <trkpt lat="47.234669957359" lon="4.95919710115927">
        <time>2019-05-17T03:23:32Z</time>
      </trkpt>
      <trkpt lat="47.2346790291316" lon="4.95900499314269">
        <time>2019-05-17T03:23:32Z</time>
      </trkpt>
      <trkpt lat="47.2346437154596" lon="4.95873354512989">
        <time>2019-05-17T03:23:32Z</time>
      </trkpt>
      <trkpt lat="47.2346378809277" lon="4.95845188670711">
        <time>2019-05-17T03:23:32Z</time>
      </trkpt>
      <trkpt lat="47.2346574719778" lon="4.95830891544627">
        <time>2019-05-17T03:23:32Z</time>
      </trkpt>
      <trkpt lat="47.2346928400457" lon="4.95819070600626">
        <time>2019-05-17T03:23:32Z</time>
      </trkpt>
      <trkpt lat="47.2347450746223" lon="4.95804933375399">
        <time>2019-05-17T03:23:32Z</time>
      </trkpt>
      <trkpt lat="47.234798942985" lon="4.95783607590843">
        <time>2019-05-17T03:23:32Z</time>
      </trkpt>
      <trkpt lat="47.2348280568624" lon="4.95753319690153">
        <time>2019-05-17T03:23:32Z</time>
      </trkpt>
      <trkpt lat="47.2348163208607" lon="4.95726725417858">
        <time>2019-05-17T03:23:32Z</time>
      </trkpt>
      <trkpt lat="47.2347945196089" lon="4.95705302220745">
        <time>2019-05-17T03:23:32Z</time>
      </trkpt>
      <trkpt lat="47.234735224723" lon="4.95679345128421">
        <time>2019-05-17T03:23:32Z</time>
      </trkpt>
      <trkpt lat="47.234650671538" lon="4.95647174060431">
        <time>2019-05-17T03:23:32Z</time>
      </trkpt>
      <trkpt lat="47.2345274791526" lon="4.9561196016706">
        <time>2019-05-17T03:23:32Z</time>
      </trkpt>
      <trkpt lat="47.2344507667606" lon="4.95589995092293">
        <time>2019-05-17T03:23:32Z</time>
      </trkpt>
      <trkpt lat="47.2343940451968" lon="4.95576748518657">
        <time>2019-05-17T03:23:32Z</time>
      </trkpt>
      <trkpt lat="47.2343467848978" lon="4.95563031415683">
        <time>2019-05-17T03:23:32Z</time>
      </trkpt>
      <trkpt lat="47.2343400756786" lon="4.95553428074343">
        <time>2019-05-17T03:23:32Z</time>
      </trkpt>
      <trkpt lat="47.2343598094136" lon="4.95544824094507">
        <time>2019-05-17T03:23:32Z</time>
      </trkpt>
      <trkpt lat="47.2344339035773" lon="4.95531547647327">
        <time>2019-05-17T03:23:32Z</time>
      </trkpt>
      <trkpt lat="47.2345619468346" lon="4.95504893052217">
        <time>2019-05-17T03:23:32Z</time>
      </trkpt>
      <trkpt lat="47.2346000781936" lon="4.95498165037496">
        <time>2019-05-17T03:23:32Z</time>
      </trkpt>
      <trkpt lat="47.2346444917781" lon="4.95493574163493">
        <time>2019-05-17T03:23:32Z</time>
      </trkpt>
      <trkpt lat="47.2346844181981" lon="4.9548925649347">
        <time>2019-05-17T03:23:32Z</time>
      </trkpt>
      <trkpt lat="47.23472432454" lon="4.95484939207532">
        <time>2019-05-17T03:23:32Z</time>
      </trkpt>
      <trkpt lat="47.2347642503725" lon="4.9548062152192">
        <time>2019-05-17T03:23:32Z</time>
      </trkpt>
      <trkpt lat="47.2348041828387" lon="4.95476303862407">
        <time>2019-05-17T03:23:32Z</time>
      </trkpt>
      <trkpt lat="47.2348493117257" lon="4.95471421039861">
        <time>2019-05-17T03:23:32Z</time>
      </trkpt>
      <trkpt lat="47.2348839956273" lon="4.95467668269175">
        <time>2019-05-17T03:23:32Z</time>
      </trkpt>
      <trkpt lat="47.2349239218366" lon="4.95463351048666">
        <time>2019-05-17T03:23:32Z</time>
      </trkpt>
      <trkpt lat="47.2349487577644" lon="4.95463159801672">
        <time>2019-05-17T03:23:32Z</time>
      </trkpt>
      <trkpt lat="47.2350178353021" lon="4.95462683048547">
        <time>2019-05-17T03:23:32Z</time>
      </trkpt>
      <trkpt lat="47.2351230731158" lon="4.95462033475149">
        <time>2019-05-17T03:23:32Z</time>
      </trkpt>
      <trkpt lat="47.2352563784382" lon="4.9546136435478">
        <time>2019-05-17T03:23:32Z</time>
      </trkpt>
      <trkpt lat="47.2354096101391" lon="4.95460792725216">
        <time>2019-05-17T03:23:32Z</time>
      </trkpt>
      <trkpt lat="47.2355747424903" lon="4.95460440507489">
        <time>2019-05-17T03:23:32Z</time>
      </trkpt>
      <trkpt lat="47.2357436209356" lon="4.95460452126009">
        <time>2019-05-17T03:23:32Z</time>
      </trkpt>
      <trkpt lat="47.2359081353838" lon="4.95460944776106">
        <time>2019-05-17T03:23:32Z</time>
      </trkpt>
      <trkpt lat="47.2360736342512" lon="4.95463511407387">
        <time>2019-05-17T03:23:32Z</time>
      </trkpt>
      <trkpt lat="47.2362449697978" lon="4.95468985561845">
        <time>2019-05-17T03:23:32Z</time>
      </trkpt>
      <trkpt lat="47.2364135780923" lon="4.95476365060711">
        <time>2019-05-17T03:23:32Z</time>
      </trkpt>
      <trkpt lat="47.2365507805653" lon="4.95483588241826">
        <time>2019-05-17T03:23:32Z</time>
      </trkpt>
      <trkpt lat="47.2365708569411" lon="4.95484645240198">
        <time>2019-05-17T03:23:32Z</time>
      </trkpt>
      <trkpt lat="47.2367081500697" lon="4.95492832475378">
        <time>2019-05-17T03:23:32Z</time>
      </trkpt>
      <trkpt lat="47.2368168964967" lon="4.95499914287805">
        <time>2019-05-17T03:23:32Z</time>
      </trkpt>
      <trkpt lat="47.2368884575303" lon="4.95504900451812">
        <time>2019-05-17T03:23:32Z</time>
      </trkpt>
      <trkpt lat="47.2369142122022" lon="4.95506783803545">
        <time>2019-05-17T03:23:32Z</time>
      </trkpt>
      <trkpt lat="47.2371573931408" lon="4.95529876526706">
        <time>2019-05-17T03:23:32Z</time>
      </trkpt>
      <trkpt lat="47.2373799299703" lon="4.95545251247358">
        <time>2019-05-17T03:23:32Z</time>
      </trkpt>
      <trkpt lat="47.2375794750895" lon="4.95554422535685">
        <time>2019-05-17T03:23:32Z</time>
      </trkpt>
      <trkpt lat="47.2377508481023" lon="4.95558718454423">
        <time>2019-05-17T03:23:32Z</time>
      </trkpt>
      <trkpt lat="47.2378907008232" lon="4.95559587738091">
        <time>2019-05-17T03:23:32Z</time>
      </trkpt>
      <trkpt lat="47.2379952889261" lon="4.95558447235761">
        <time>2019-05-17T03:23:32Z</time>
      </trkpt>
      <trkpt lat="47.2380608157758" lon="4.95556721788021">
        <time>2019-05-17T03:23:32Z</time>
      </trkpt>
      <trkpt lat="47.2380835024747" lon="4.9555583389049">
        <time>2019-05-17T03:23:32Z</time>
      </trkpt>
      <trkpt lat="47.2381216109439" lon="4.95552908821456">
        <time>2019-05-17T03:23:32Z</time>
      </trkpt>
      <trkpt lat="47.2382227056371" lon="4.95545158516623">
        <time>2019-05-17T03:23:32Z</time>
      </trkpt>
      <trkpt lat="47.2383701619637" lon="4.95533867290427">
        <time>2019-05-17T03:23:32Z</time>
      </trkpt>
      <trkpt lat="47.2384989259518" lon="4.95547927309599">
        <time>2019-05-17T03:23:32Z</time>
      </trkpt>
      <trkpt lat="47.2386267019285" lon="4.95562670278394">
        <time>2019-05-17T03:23:32Z</time>
      </trkpt>
      <trkpt lat="47.238694519303" lon="4.9557198615465">
        <time>2019-05-17T03:23:32Z</time>
      </trkpt>
      <trkpt lat="47.2387541608435" lon="4.95581268629673">
        <time>2019-05-17T03:23:32Z</time>
      </trkpt>
      <trkpt lat="47.238804249675" lon="4.95589207687856">
        <time>2019-05-17T03:23:32Z</time>
      </trkpt>
      <trkpt lat="47.2388555019407" lon="4.95597251505538">
        <time>2019-05-17T03:23:32Z</time>
      </trkpt>
      <trkpt lat="47.2388886568664" lon="4.95602455122538">
        <time>2019-05-17T03:23:32Z</time>
      </trkpt>
      <trkpt lat="47.2389474509665" lon="4.95613010319076">
        <time>2019-05-17T03:23:32Z</time>
      </trkpt>
      <trkpt lat="47.2389975126441" lon="4.95623522784508">
        <time>2019-05-17T03:23:32Z</time>
      </trkpt>
      <trkpt lat="47.239064164711" lon="4.95637966708755">
        <time>2019-05-17T03:23:32Z</time>
      </trkpt>
      <trkpt lat="47.2391086210503" lon="4.95646082984447">
        <time>2019-05-17T03:23:32Z</time>
      </trkpt>
      <trkpt lat="47.2391516268327" lon="4.95655113752583">
        <time>2019-05-17T03:23:32Z</time>
      </trkpt>
      <trkpt lat="47.2391705128776" lon="4.95665732580962">
        <time>2019-05-17T03:23:32Z</time>
      </trkpt>
      <trkpt lat="47.2391633028171" lon="4.95675307416286">
        <time>2019-05-17T03:23:32Z</time>
      </trkpt>
      <trkpt lat="47.2391547499889" lon="4.95690789631795">
        <time>2019-05-17T03:23:32Z</time>
      </trkpt>
      <trkpt lat="47.239173621247" lon="4.95712552916523">
        <time>2019-05-17T03:23:32Z</time>
      </trkpt>
      <trkpt lat="47.2392142908479" lon="4.95731862612837">
        <time>2019-05-17T03:23:32Z</time>
      </trkpt>
      <trkpt lat="47.2392459592305" lon="4.95746718184178">
        <time>2019-05-17T03:23:32Z</time>
      </trkpt>
      <trkpt lat="47.2393076322127" lon="4.95761720676249">
        <time>2019-05-17T03:23:32Z</time>
      </trkpt>
      <trkpt lat="47.2393654726052" lon="4.95771559301299">
        <time>2019-05-17T03:23:32Z</time>
      </trkpt>
      <trkpt lat="47.2394286470672" lon="4.95779954053749">
        <time>2019-05-17T03:23:32Z</time>
      </trkpt>
      <trkpt lat="47.2395214919401" lon="4.9578996421729">
        <time>2019-05-17T03:23:32Z</time>
      </trkpt>
      <trkpt lat="47.2396243386812" lon="4.95800023419667">
        <time>2019-05-17T03:23:32Z</time>
      </trkpt>
      <trkpt lat="47.2397076753964" lon="4.95806681263624">
        <time>2019-05-17T03:23:32Z</time>
      </trkpt>
      <trkpt lat="47.239784513941" lon="4.95814758427844">
        <time>2019-05-17T03:23:32Z</time>
      </trkpt>
      <trkpt lat="47.2398703761703" lon="4.95821596326513">
        <time>2019-05-17T03:23:32Z</time>
      </trkpt>
      <trkpt lat="47.2399559463854" lon="4.95829716241286">
        <time>2019-05-17T03:23:32Z</time>
      </trkpt>
      <trkpt lat="47.2400420999461" lon="4.95835272186938">
        <time>2019-05-17T03:23:32Z</time>
      </trkpt>
      <trkpt lat="47.2401020576453" lon="4.95840699784064">
        <time>2019-05-17T03:23:32Z</time>
      </trkpt>
      <trkpt lat="47.2402138235321" lon="4.95848948216468">
        <time>2019-05-17T03:23:32Z</time>
      </trkpt>
      <trkpt lat="47.2402822214762" lon="4.95855700641131">
        <time>2019-05-17T03:23:32Z</time>
      </trkpt>
      <trkpt lat="47.2403948616291" lon="4.95860103029638">
        <time>2019-05-17T03:23:32Z</time>
      </trkpt>
      <trkpt lat="47.2404719918156" lon="4.95866898286543">
        <time>2019-05-17T03:23:32Z</time>
      </trkpt>
      <trkpt lat="47.240575900162" lon="4.9587125792097">
        <time>2019-05-17T03:23:32Z</time>
      </trkpt>
      <trkpt lat="47.2406803914418" lon="4.95873053463001">
        <time>2019-05-17T03:23:32Z</time>
      </trkpt>
      <trkpt lat="47.2408364968848" lon="4.95882747094495">
        <time>2019-05-17T03:23:32Z</time>
      </trkpt>
      <trkpt lat="47.2409411357469" lon="4.95983052421007">
        <time>2019-05-17T03:23:32Z</time>
      </trkpt>
      <trkpt lat="47.2410335632886" lon="4.96049875832925">
        <time>2019-05-17T03:23:32Z</time>
      </trkpt>
      <trkpt lat="47.2411661165523" lon="4.96129537749173">
        <time>2019-05-17T03:23:32Z</time>
      </trkpt>
      <trkpt lat="47.2412785933929" lon="4.96202776891924">
        <time>2019-05-17T03:23:32Z</time>
      </trkpt>
      <trkpt lat="47.2414921790447" lon="4.96210150097987">
        <time>2019-05-17T03:23:32Z</time>
      </trkpt>
      <trkpt lat="47.2416149171378" lon="4.96218066689327">
        <time>2019-05-17T03:23:32Z</time>
      </trkpt>
      <trkpt lat="47.2417043204553" lon="4.96223833181055">
        <time>2019-05-17T03:23:32Z</time>
      </trkpt>
      <trkpt lat="47.2419401191098" lon="4.96228150847656">
        <time>2019-05-17T03:23:32Z</time>
      </trkpt>
      <trkpt lat="47.2422604958913" lon="4.96239204769708">
        <time>2019-05-17T03:23:32Z</time>
      </trkpt>
      <trkpt lat="47.2425656092049" lon="4.96251338854633">
        <time>2019-05-17T03:23:32Z</time>
      </trkpt>
      <trkpt lat="47.2426231484651" lon="4.96253627231209">
        <time>2019-05-17T03:23:32Z</time>
      </trkpt>
      <trkpt lat="47.2426373263691" lon="4.96260645806398">
        <time>2019-05-17T03:23:32Z</time>
      </trkpt>
      <trkpt lat="47.2427198734434" lon="4.9630151026849">
        <time>2019-05-17T03:23:32Z</time>
      </trkpt>
      <trkpt lat="47.2428653524447" lon="4.96324348805183">
        <time>2019-05-17T03:23:32Z</time>
      </trkpt>
      <trkpt lat="47.2429477636737" lon="4.96340556269979">
        <time>2019-05-17T03:23:32Z</time>
      </trkpt>
      <trkpt lat="47.2430929835011" lon="4.96356939243129">
        <time>2019-05-17T03:23:32Z</time>
      </trkpt>
      <trkpt lat="47.2431578822688" lon="4.96366821711874">
        <time>2019-05-17T03:23:32Z</time>
      </trkpt>
      <trkpt lat="47.2432775774217" lon="4.96386012988772">
        <time>2019-05-17T03:23:32Z</time>
      </trkpt>
      <trkpt lat="47.2435334881295" lon="4.96423509991793">
        <time>2019-05-17T03:23:32Z</time>
      </trkpt>
      <trkpt lat="47.243704281779" lon="4.96447645966416">
        <time>2019-05-17T03:23:32Z</time>
      </trkpt>
      <trkpt lat="47.2438410415173" lon="4.96466437566665">
        <time>2019-05-17T03:23:32Z</time>
      </trkpt>
      <trkpt lat="47.2440300337003" lon="4.9648807491278">
        <time>2019-05-17T03:23:32Z</time>
      </trkpt>
      <trkpt lat="47.2443064888918" lon="4.965127305427">
        <time>2019-05-17T03:23:32Z</time>
      </trkpt>
      <trkpt lat="47.2444461938856" lon="4.96518594266155">
        <time>2019-05-17T03:23:32Z</time>
      </trkpt>
      <trkpt lat="47.2445512675284" lon="4.965216991952">
        <time>2019-05-17T03:23:32Z</time>
      </trkpt>
      <trkpt lat="47.2447109310537" lon="4.96517306343511">
        <time>2019-05-17T03:23:32Z</time>
      </trkpt>
      <trkpt lat="47.24485240385" lon="4.96515412769617">
        <time>2019-05-17T03:23:32Z</time>
      </trkpt>
      <trkpt lat="47.2449428129016" lon="4.96505502486421">
        <time>2019-05-17T03:23:32Z</time>
      </trkpt>
      <trkpt lat="47.2451212650604" lon="4.96496024723649">
        <time>2019-05-17T03:23:32Z</time>
      </trkpt>
      <trkpt lat="47.2452633270439" lon="4.96491545192918">
        <time>2019-05-17T03:23:32Z</time>
      </trkpt>
      <trkpt lat="47.2454934320986" lon="4.96487498588164">
        <time>2019-05-17T03:23:32Z</time>
      </trkpt>
      <trkpt lat="47.2455814847049" lon="4.96487931178756">
        <time>2019-05-17T03:23:32Z</time>
      </trkpt>
      <trkpt lat="47.2456648229859" lon="4.96509049873089">
        <time>2019-05-17T03:23:32Z</time>
      </trkpt>
      <trkpt lat="47.2456783083885" lon="4.96527236925334">
        <time>2019-05-17T03:23:32Z</time>
      </trkpt>
      <trkpt lat="47.245705868321" lon="4.965610249906">
        <time>2019-05-17T03:23:32Z</time>
      </trkpt>
      <trkpt lat="47.2456788268901" lon="4.96602310980102">
        <time>2019-05-17T03:23:32Z</time>
      </trkpt>
      <trkpt lat="47.2456729320222" lon="4.96628168806208">
        <time>2019-05-17T03:23:32Z</time>
      </trkpt>
      <trkpt lat="47.2456678112824" lon="4.96650628854089">
        <time>2019-05-17T03:23:32Z</time>
      </trkpt>
      <trkpt lat="47.2456652678001" lon="4.96661784093692">
        <time>2019-05-17T03:23:32Z</time>
      </trkpt>
      <trkpt lat="47.2457116133434" lon="4.96690487482903">
        <time>2019-05-17T03:23:32Z</time>
      </trkpt>
      <trkpt lat="47.2457603082118" lon="4.96708847410544">
        <time>2019-05-17T03:23:32Z</time>
      </trkpt>
      <trkpt lat="47.2458107801662" lon="4.96719450577717">
        <time>2019-05-17T03:23:32Z</time>
      </trkpt>
      <trkpt lat="47.2460520185891" lon="4.96743934980661">
        <time>2019-05-17T03:23:32Z</time>
      </trkpt>
      <trkpt lat="47.2461729230829" lon="4.96754884295683">
        <time>2019-05-17T03:23:32Z</time>
      </trkpt>
      <trkpt lat="47.2462063747166" lon="4.96762815133958">
        <time>2019-05-17T03:23:32Z</time>
      </trkpt>
      <trkpt lat="47.2462216256938" lon="4.96773244890619">
        <time>2019-05-17T03:23:32Z</time>
      </trkpt>
      <trkpt lat="47.2462327479128" lon="4.968017754316">
        <time>2019-05-17T03:23:32Z</time>
      </trkpt>
      <trkpt lat="47.2462462287742" lon="4.96819962425039">
        <time>2019-05-17T03:23:32Z</time>
      </trkpt>
      <trkpt lat="47.2462403290309" lon="4.96845820501258">
        <time>2019-05-17T03:23:32Z</time>
      </trkpt>
      <trkpt lat="47.2461610366645" lon="4.96884261211155">
        <time>2019-05-17T03:23:32Z</time>
      </trkpt>
      <trkpt lat="47.2463189401181" lon="4.96887626662673">
        <time>2019-05-17T03:23:32Z</time>
      </trkpt>
      <trkpt lat="47.2464615847195" lon="4.9688056249461">
        <time>2019-05-17T03:23:32Z</time>
      </trkpt>
      <trkpt lat="47.2465232456969" lon="4.96877509053415">
        <time>2019-05-17T03:23:32Z</time>
      </trkpt>
      <trkpt lat="47.246604238138" lon="4.96873498332523">
        <time>2019-05-17T03:23:32Z</time>
      </trkpt>
      <trkpt lat="47.2467480716869" lon="4.96861262062629">
        <time>2019-05-17T03:23:32Z</time>
      </trkpt>
      <trkpt lat="47.2470245186113" lon="4.96885921116083">
        <time>2019-05-17T03:23:32Z</time>
      </trkpt>
      <trkpt lat="47.247285124618" lon="4.96902736069193">
        <time>2019-05-17T03:23:32Z</time>
      </trkpt>
      <trkpt lat="47.247508748784" lon="4.96927135307777">
        <time>2019-05-17T03:23:32Z</time>
      </trkpt>
      <trkpt lat="47.2478045752285" lon="4.96944123876617">
        <time>2019-05-17T03:23:32Z</time>
      </trkpt>
      <trkpt lat="47.2480833808587" lon="4.96958440017828">
        <time>2019-05-17T03:23:32Z</time>
      </trkpt>
      <trkpt lat="47.2485517285759" lon="4.96984017032768">
        <time>2019-05-17T03:23:32Z</time>
      </trkpt>
      <trkpt lat="47.2486926432199" lon="4.96992504826395">
        <time>2019-05-17T03:23:32Z</time>
      </trkpt>
      <trkpt lat="47.2489714575737" lon="4.97006821584909">
        <time>2019-05-17T03:23:32Z</time>
      </trkpt>
      <trkpt lat="47.2491810021818" lon="4.97015619513428">
        <time>2019-05-17T03:23:32Z</time>
      </trkpt>
      <trkpt lat="47.2493899557211" lon="4.97027003587705">
        <time>2019-05-17T03:23:32Z</time>
      </trkpt>
      <trkpt lat="47.2496006898037" lon="4.97030630016655">
        <time>2019-05-17T03:23:32Z</time>
      </trkpt>
      <trkpt lat="47.249775013701" lon="4.97039254812389">
        <time>2019-05-17T03:23:32Z</time>
      </trkpt>
      <trkpt lat="47.2498800852109" lon="4.97042361069951">
        <time>2019-05-17T03:23:32Z</time>
      </trkpt>
      <trkpt lat="47.2500567796561" lon="4.97040642116146">
        <time>2019-05-17T03:23:32Z</time>
      </trkpt>
      <trkpt lat="47.2500514654232" lon="4.97063916223384">
        <time>2019-05-17T03:23:32Z</time>
      </trkpt>
      <trkpt lat="47.2501124488661" lon="4.97105638907739">
        <time>2019-05-17T03:23:32Z</time>
      </trkpt>
      <trkpt lat="47.2501259254581" lon="4.97123827380103">
        <time>2019-05-17T03:23:32Z</time>
      </trkpt>
      <trkpt lat="47.2503202296075" lon="4.97122195743629">
        <time>2019-05-17T03:23:32Z</time>
      </trkpt>
      <trkpt lat="47.2505327263716" lon="4.97118064328417">
        <time>2019-05-17T03:23:32Z</time>
      </trkpt>
      <trkpt lat="47.250854428521" lon="4.97098937109345">
        <time>2019-05-17T03:23:32Z</time>
      </trkpt>
      <trkpt lat="47.25106811564" lon="4.97089633775436">
        <time>2019-05-17T03:23:32Z</time>
      </trkpt>
      <trkpt lat="47.2512835642049" lon="4.97072572376368">
        <time>2019-05-17T03:23:32Z</time>
      </trkpt>
      <trkpt lat="47.2514692631169" lon="4.97059285299054">
        <time>2019-05-17T03:23:32Z</time>
      </trkpt>
      <trkpt lat="47.2515882457926" lon="4.9705077171709">
        <time>2019-05-17T03:23:32Z</time>
      </trkpt>
      <trkpt lat="47.2518019319192" lon="4.97041468060599">
        <time>2019-05-17T03:23:32Z</time>
      </trkpt>
      <trkpt lat="47.2519433963894" lon="4.97039575577695">
        <time>2019-05-17T03:23:32Z</time>
      </trkpt>
      <trkpt lat="47.2521024799386" lon="4.97037769837047">
        <time>2019-05-17T03:23:32Z</time>
      </trkpt>
      <trkpt lat="47.2522785838112" lon="4.97038636934375">
        <time>2019-05-17T03:23:32Z</time>
      </trkpt>
      <trkpt lat="47.2523854176414" lon="4.97033985108245">
        <time>2019-05-17T03:23:32Z</time>
      </trkpt>
      <trkpt lat="47.2525274813658" lon="4.97029506478861">
        <time>2019-05-17T03:23:32Z</time>
      </trkpt>
      <trkpt lat="47.2526865560027" lon="4.97027700644921">
        <time>2019-05-17T03:23:32Z</time>
      </trkpt>
      <trkpt lat="47.2529149006333" lon="4.97031414010552">
        <time>2019-05-17T03:23:32Z</time>
      </trkpt>
      <trkpt lat="47.2530557740568" lon="4.9703210763428">
        <time>2019-05-17T03:23:32Z</time>
      </trkpt>
      <trkpt lat="47.2533011384213" lon="4.97038493941335">
        <time>2019-05-17T03:23:32Z</time>
      </trkpt>
      <trkpt lat="47.2534238111435" lon="4.97041687151818">
        <time>2019-05-17T03:23:32Z</time>
      </trkpt>
      <trkpt lat="47.2535101995335" lon="4.97044669528262">
        <time>2019-05-17T03:23:32Z</time>
      </trkpt>
      <trkpt lat="47.2536104394753" lon="4.97073674686955">
        <time>2019-05-17T03:23:32Z</time>
      </trkpt>
      <trkpt lat="47.253641526709" lon="4.97091951313123">
        <time>2019-05-17T03:23:32Z</time>
      </trkpt>
      <trkpt lat="47.2536902238417" lon="4.97110314776953">
        <time>2019-05-17T03:23:32Z</time>
      </trkpt>
      <trkpt lat="47.2537559403132" lon="4.97131350897901">
        <time>2019-05-17T03:23:32Z</time>
      </trkpt>
      <trkpt lat="47.2538903162041" lon="4.97160492747945">
        <time>2019-05-17T03:23:32Z</time>
      </trkpt>
      <trkpt lat="47.2539924341716" lon="4.97176530336291">
        <time>2019-05-17T03:23:32Z</time>
      </trkpt>
      <trkpt lat="47.2540933698269" lon="4.97197740186198">
        <time>2019-05-17T03:23:32Z</time>
      </trkpt>
      <trkpt lat="47.2541602574558" lon="4.97213604320285">
        <time>2019-05-17T03:23:32Z</time>
      </trkpt>
      <trkpt lat="47.2541907510167" lon="4.97234467522041">
        <time>2019-05-17T03:23:32Z</time>
      </trkpt>
      <trkpt lat="47.2542036346354" lon="4.97255243641134">
        <time>2019-05-17T03:23:32Z</time>
      </trkpt>
      <trkpt lat="47.2541548210025" lon="4.97314552453271">
        <time>2019-05-17T03:23:32Z</time>
      </trkpt>
      <trkpt lat="47.2541993768568" lon="4.97351019316432">
        <time>2019-05-17T03:23:32Z</time>
      </trkpt>
      <trkpt lat="47.2542147277912" lon="4.97355291054628">
        <time>2019-05-17T03:23:32Z</time>
      </trkpt>
      <trkpt lat="47.2542656800437" lon="4.97369470028631">
        <time>2019-05-17T03:23:32Z</time>
      </trkpt>
      <trkpt lat="47.2544041978901" lon="4.97380509308723">
        <time>2019-05-17T03:23:32Z</time>
      </trkpt>
      <trkpt lat="47.2546119655555" lon="4.97397068414366">
        <time>2019-05-17T03:23:32Z</time>
      </trkpt>
      <trkpt lat="47.2547516655783" lon="4.97402935656755">
        <time>2019-05-17T03:23:32Z</time>
      </trkpt>
      <trkpt lat="47.2549476076676" lon="4.97416340826202">
        <time>2019-05-17T03:23:32Z</time>
      </trkpt>
      <trkpt lat="47.2549712405606" lon="4.9741796481804">
        <time>2019-05-17T03:23:32Z</time>
      </trkpt>
      <trkpt lat="47.2549948948802" lon="4.97420011959593">
        <time>2019-05-17T03:23:32Z</time>
      </trkpt>
      <trkpt lat="47.2550270158353" lon="4.97423064759355">
        <time>2019-05-17T03:23:32Z</time>
      </trkpt>
      <trkpt lat="47.2550641051956" lon="4.9742658286933">
        <time>2019-05-17T03:23:32Z</time>
      </trkpt>
      <trkpt lat="47.2551064747687" lon="4.97430605065437">
        <time>2019-05-17T03:23:32Z</time>
      </trkpt>
      <trkpt lat="47.2551515212533" lon="4.97434996129071">
        <time>2019-05-17T03:23:32Z</time>
      </trkpt>
      <trkpt lat="47.2551962993889" lon="4.97439561058833">
        <time>2019-05-17T03:23:32Z</time>
      </trkpt>
      <trkpt lat="47.2552404912638" lon="4.97444251354738">
        <time>2019-05-17T03:23:32Z</time>
      </trkpt>
      <trkpt lat="47.2552838806694" lon="4.97449012907084">
        <time>2019-05-17T03:23:32Z</time>
      </trkpt>
      <trkpt lat="47.2553262033207" lon="4.97453798050174">
        <time>2019-05-17T03:23:32Z</time>
      </trkpt>
      <trkpt lat="47.2553672335258" lon="4.97458557760274">
        <time>2019-05-17T03:23:32Z</time>
      </trkpt>
      <trkpt lat="47.255406672301" lon="4.9746323841496">
        <time>2019-05-17T03:23:32Z</time>
      </trkpt>
      <trkpt lat="47.2554443219668" lon="4.97467787380081">
        <time>2019-05-17T03:23:32Z</time>
      </trkpt>
      <trkpt lat="47.2554798715559" lon="4.97472159773535">
        <time>2019-05-17T03:23:32Z</time>
      </trkpt>
      <trkpt lat="47.2555130883552" lon="4.97476298469524">
        <time>2019-05-17T03:23:32Z</time>
      </trkpt>
      <trkpt lat="47.2555437523316" lon="4.97480163678512">
        <time>2019-05-17T03:23:32Z</time>
      </trkpt>
      <trkpt lat="47.2555715676131" lon="4.97483688185247">
        <time>2019-05-17T03:23:32Z</time>
      </trkpt>
      <trkpt lat="47.2555963234688" lon="4.97486837623607">
        <time>2019-05-17T03:23:32Z</time>
      </trkpt>
      <trkpt lat="47.2556177126705" lon="4.97489553196184">
        <time>2019-05-17T03:23:32Z</time>
      </trkpt>
      <trkpt lat="47.2556425302015" lon="4.97492631811612">
        <time>2019-05-17T03:23:32Z</time>
      </trkpt>
      <trkpt lat="47.2556655057686" lon="4.97495128208554">
        <time>2019-05-17T03:23:32Z</time>
      </trkpt>
      <trkpt lat="47.2556889189974" lon="4.97497190681361">
        <time>2019-05-17T03:23:32Z</time>
      </trkpt>
      <trkpt lat="47.2557188466925" lon="4.97499597850618">
        <time>2019-05-17T03:23:32Z</time>
      </trkpt>
      <trkpt lat="47.2557543268252" lon="4.97502274491333">
        <time>2019-05-17T03:23:32Z</time>
      </trkpt>
      <trkpt lat="47.2557944735777" lon="4.97505139643179">
        <time>2019-05-17T03:23:32Z</time>
      </trkpt>
      <trkpt lat="47.2558383970689" lon="4.97508122836527">
        <time>2019-05-17T03:23:32Z</time>
      </trkpt>
      <trkpt lat="47.2558851082576" lon="4.97511152949259">
        <time>2019-05-17T03:23:32Z</time>
      </trkpt>
      <trkpt lat="47.2559337571164" lon="4.97514145366847">
        <time>2019-05-17T03:23:32Z</time>
      </trkpt>
      <trkpt lat="47.2559833634726" lon="4.97517029009978">
        <time>2019-05-17T03:23:32Z</time>
      </trkpt>
      <trkpt lat="47.2560330569935" lon="4.97519732851818">
        <time>2019-05-17T03:23:32Z</time>
      </trkpt>
      <trkpt lat="47.2560818774009" lon="4.97522176458414">
        <time>2019-05-17T03:23:32Z</time>
      </trkpt>
      <trkpt lat="47.256128936415" lon="4.97524284802392">
        <time>2019-05-17T03:23:32Z</time>
      </trkpt>
      <trkpt lat="47.2561732889934" lon="4.97525990887117">
        <time>2019-05-17T03:23:32Z</time>
      </trkpt>
      <trkpt lat="47.2562140406103" lon="4.97527210609348">
        <time>2019-05-17T03:23:32Z</time>
      </trkpt>
      <trkpt lat="47.256250284367" lon="4.97527867871323">
        <time>2019-05-17T03:23:32Z</time>
      </trkpt>
      <trkpt lat="47.2562810301276" lon="4.97527896349863">
        <time>2019-05-17T03:23:32Z</time>
      </trkpt>
      <trkpt lat="47.2563105926346" lon="4.97527701027396">
        <time>2019-05-17T03:23:32Z</time>
      </trkpt>
      <trkpt lat="47.256343434168" lon="4.97527721022719">
        <time>2019-05-17T03:23:32Z</time>
      </trkpt>
      <trkpt lat="47.2563790309407" lon="4.97527929878033">
        <time>2019-05-17T03:23:32Z</time>
      </trkpt>
      <trkpt lat="47.2564169766515" lon="4.97528301715125">
        <time>2019-05-17T03:23:32Z</time>
      </trkpt>
      <trkpt lat="47.2564566835963" lon="4.9752881057564">
        <time>2019-05-17T03:23:32Z</time>
      </trkpt>
      <trkpt lat="47.2564976824835" lon="4.97529429455687">
        <time>2019-05-17T03:23:32Z</time>
      </trkpt>
      <trkpt lat="47.2565394847142" lon="4.97530133293094">
        <time>2019-05-17T03:23:32Z</time>
      </trkpt>
      <trkpt lat="47.2565815954287" lon="4.97530885587203">
        <time>2019-05-17T03:23:32Z</time>
      </trkpt>
      <trkpt lat="47.2566235083416" lon="4.97531665832851">
        <time>2019-05-17T03:23:32Z</time>
      </trkpt>
      <trkpt lat="47.256664734747" lon="4.97532447011437">
        <time>2019-05-17T03:23:32Z</time>
      </trkpt>
      <trkpt lat="47.2567047329379" lon="4.97533203390939">
        <time>2019-05-17T03:23:32Z</time>
      </trkpt>
      <trkpt lat="47.2567430710641" lon="4.97533899514419">
        <time>2019-05-17T03:23:32Z</time>
      </trkpt>
      <trkpt lat="47.2567792137584" lon="4.97534518318054">
        <time>2019-05-17T03:23:32Z</time>
      </trkpt>
      <trkpt lat="47.2568126565086" lon="4.97535029119646">
        <time>2019-05-17T03:23:32Z</time>
      </trkpt>
      <trkpt lat="47.2568429020358" lon="4.97535405998603">
        <time>2019-05-17T03:23:32Z</time>
      </trkpt>
      <trkpt lat="47.2568694908839" lon="4.97535617761568">
        <time>2019-05-17T03:23:32Z</time>
      </trkpt>
      <trkpt lat="47.256904736348" lon="4.97536123036047">
        <time>2019-05-17T03:23:32Z</time>
      </trkpt>
      <trkpt lat="47.2569598685733" lon="4.97537356936996">
        <time>2019-05-17T03:23:32Z</time>
      </trkpt>
      <trkpt lat="47.2570326513241" lon="4.97539260441946">
        <time>2019-05-17T03:23:32Z</time>
      </trkpt>
      <trkpt lat="47.2571209197614" lon="4.97541784985355">
        <time>2019-05-17T03:23:32Z</time>
      </trkpt>
      <trkpt lat="47.2572223653525" lon="4.97544867441038">
        <time>2019-05-17T03:23:32Z</time>
      </trkpt>
      <trkpt lat="47.2572668517886" lon="4.97546284076638">
        <time>2019-05-17T03:23:32Z</time>
      </trkpt>
      <trkpt lat="47.2573348620116" lon="4.97548449901481">
        <time>2019-05-17T03:23:32Z</time>
      </trkpt>
      <trkpt lat="47.2574560992514" lon="4.97552477786126">
        <time>2019-05-17T03:23:32Z</time>
      </trkpt>
      <trkpt lat="47.2575839397083" lon="4.97556898834614">
        <time>2019-05-17T03:23:32Z</time>
      </trkpt>
      <trkpt lat="47.2577160856598" lon="4.97561648749718">
        <time>2019-05-17T03:23:32Z</time>
      </trkpt>
      <trkpt lat="47.2578503898432" lon="4.97566674894221">
        <time>2019-05-17T03:23:32Z</time>
      </trkpt>
      <trkpt lat="47.2579845716902" lon="4.97571918023541">
        <time>2019-05-17T03:23:32Z</time>
      </trkpt>
      <trkpt lat="47.2581164306924" lon="4.97577320590422">
        <time>2019-05-17T03:23:32Z</time>
      </trkpt>
      <trkpt lat="47.2582437844306" lon="4.97582833283852">
        <time>2019-05-17T03:23:32Z</time>
      </trkpt>
      <trkpt lat="47.2583643514321" lon="4.97588388701856">
        <time>2019-05-17T03:23:32Z</time>
      </trkpt>
      <trkpt lat="47.2584759226801" lon="4.97593937399188">
        <time>2019-05-17T03:23:32Z</time>
      </trkpt>
      <trkpt lat="47.2585763259806" lon="4.9759941691037">
        <time>2019-05-17T03:23:32Z</time>
      </trkpt>
      <trkpt lat="47.2586661624363" lon="4.97604280497799">
        <time>2019-05-17T03:23:32Z</time>
      </trkpt>
      <trkpt lat="47.2587477482236" lon="4.97608075281664">
        <time>2019-05-17T03:23:32Z</time>
      </trkpt>
      <trkpt lat="47.2588214341807" lon="4.9761090712528">
        <time>2019-05-17T03:23:32Z</time>
      </trkpt>
      <trkpt lat="47.2588875710117" lon="4.97612882463278">
        <time>2019-05-17T03:23:32Z</time>
      </trkpt>
      <trkpt lat="47.258946484167" lon="4.97614096850893">
        <time>2019-05-17T03:23:32Z</time>
      </trkpt>
      <trkpt lat="47.2589984855726" lon="4.97614666149192">
        <time>2019-05-17T03:23:32Z</time>
      </trkpt>
      <trkpt lat="47.2590439642196" lon="4.97614687043961">
        <time>2019-05-17T03:23:32Z</time>
      </trkpt>
      <trkpt lat="47.2590832266655" lon="4.97614260052198">
        <time>2019-05-17T03:23:32Z</time>
      </trkpt>
      <trkpt lat="47.2591166136224" lon="4.97613496453279">
        <time>2019-05-17T03:23:32Z</time>
      </trkpt>
      <trkpt lat="47.2591426556125" lon="4.97612560278442">
        <time>2019-05-17T03:23:32Z</time>
      </trkpt>
      <trkpt lat="47.2591670654083" lon="4.97611366862997">
        <time>2019-05-17T03:23:32Z</time>
      </trkpt>
      <trkpt lat="47.2591914438146" lon="4.97609667995897">
        <time>2019-05-17T03:23:32Z</time>
      </trkpt>
      <trkpt lat="47.2592142341423" lon="4.97607688800112">
        <time>2019-05-17T03:23:32Z</time>
      </trkpt>
      <trkpt lat="47.2592517914755" lon="4.97607990185653">
        <time>2019-05-17T03:23:32Z</time>
      </trkpt>
      <trkpt lat="47.2592961600231" lon="4.97608706786154">
        <time>2019-05-17T03:23:32Z</time>
      </trkpt>
      <trkpt lat="47.2593547863165" lon="4.97609654524504">
        <time>2019-05-17T03:23:32Z</time>
      </trkpt>
      <trkpt lat="47.2594256567982" lon="4.97610805049016">
        <time>2019-05-17T03:23:32Z</time>
      </trkpt>
      <trkpt lat="47.259506774205" lon="4.97612129110571">
        <time>2019-05-17T03:23:32Z</time>
      </trkpt>
      <trkpt lat="47.2595961000219" lon="4.9761358861871">
        <time>2019-05-17T03:23:32Z</time>
      </trkpt>
      <trkpt lat="47.2596916652308" lon="4.97615154544733">
        <time>2019-05-17T03:23:32Z</time>
      </trkpt>
      <trkpt lat="47.2597914363899" lon="4.97616803001276">
        <time>2019-05-17T03:23:32Z</time>
      </trkpt>
      <trkpt lat="47.2598933917221" lon="4.97618495490464">
        <time>2019-05-17T03:23:32Z</time>
      </trkpt>
      <trkpt lat="47.2599955544149" lon="4.97620203106855">
        <time>2019-05-17T03:23:32Z</time>
      </trkpt>
      <trkpt lat="47.260095901002" lon="4.97621892313954">
        <time>2019-05-17T03:23:32Z</time>
      </trkpt>
      <trkpt lat="47.2601923997893" lon="4.97623534015972">
        <time>2019-05-17T03:23:32Z</time>
      </trkpt>
      <trkpt lat="47.2602830456091" lon="4.9762509957355">
        <time>2019-05-17T03:23:32Z</time>
      </trkpt>
      <trkpt lat="47.2603658694459" lon="4.97626559954952">
        <time>2019-05-17T03:23:32Z</time>
      </trkpt>
      <trkpt lat="47.2604388238932" lon="4.97627872295685">
        <time>2019-05-17T03:23:32Z</time>
      </trkpt>
      <trkpt lat="47.2605098801957" lon="4.97629369620785">
        <time>2019-05-17T03:23:32Z</time>
      </trkpt>
      <trkpt lat="47.2605873579005" lon="4.97631334524582">
        <time>2019-05-17T03:23:32Z</time>
      </trkpt>
      <trkpt lat="47.260669765944" lon="4.97633693155811">
        <time>2019-05-17T03:23:32Z</time>
      </trkpt>
      <trkpt lat="47.2607555416612" lon="4.9763636210113">
        <time>2019-05-17T03:23:32Z</time>
      </trkpt>
      <trkpt lat="47.2608431932767" lon="4.97639263348693">
        <time>2019-05-17T03:23:32Z</time>
      </trkpt>
      <trkpt lat="47.2609311916114" lon="4.97642327176106">
        <time>2019-05-17T03:23:32Z</time>
      </trkpt>
      <trkpt lat="47.2610180205069" lon="4.97645465752416">
        <time>2019-05-17T03:23:32Z</time>
      </trkpt>
      <trkpt lat="47.2611021522901" lon="4.97648605205019">
        <time>2019-05-17T03:23:32Z</time>
      </trkpt>
      <trkpt lat="47.2611820752667" lon="4.97651672146799">
        <time>2019-05-17T03:23:32Z</time>
      </trkpt>
      <trkpt lat="47.2612562745946" lon="4.97654577854342">
        <time>2019-05-17T03:23:32Z</time>
      </trkpt>
      <trkpt lat="47.2613232297801" lon="4.97657253459012">
        <time>2019-05-17T03:23:32Z</time>
      </trkpt>
      <trkpt lat="47.2613814041185" lon="4.9765961607695">
        <time>2019-05-17T03:23:32Z</time>
      </trkpt>
      <trkpt lat="47.2614293072567" lon="4.97661591201696">
        <time>2019-05-17T03:23:32Z</time>
      </trkpt>
      <trkpt lat="47.2614654030263" lon="4.97663096033067">
        <time>2019-05-17T03:23:32Z</time>
      </trkpt>
      <trkpt lat="47.2614921375194" lon="4.97664230163823">
        <time>2019-05-17T03:23:32Z</time>
      </trkpt>
      <trkpt lat="47.2614906650933" lon="4.9768620905584">
        <time>2019-05-17T03:23:32Z</time>
      </trkpt>
      <trkpt lat="47.261479251753" lon="4.97705715447118">
        <time>2019-05-17T03:23:32Z</time>
      </trkpt>
      <trkpt lat="47.2614626141359" lon="4.97723073638735">
        <time>2019-05-17T03:23:32Z</time>
      </trkpt>
      <trkpt lat="47.2614415041214" lon="4.97738438665962">
        <time>2019-05-17T03:23:32Z</time>
      </trkpt>
      <trkpt lat="47.2614166901578" lon="4.97751965810667">
        <time>2019-05-17T03:23:32Z</time>
      </trkpt>
      <trkpt lat="47.2613889249643" lon="4.97763806285468">
        <time>2019-05-17T03:23:32Z</time>
      </trkpt>
      <trkpt lat="47.2613589482995" lon="4.97774119388978">
        <time>2019-05-17T03:23:32Z</time>
      </trkpt>
      <trkpt lat="47.2613275472896" lon="4.97783065876792">
        <time>2019-05-17T03:23:32Z</time>
      </trkpt>
      <trkpt lat="47.2612954382563" lon="4.97790790998261">
        <time>2019-05-17T03:23:32Z</time>
      </trkpt>
      <trkpt lat="47.2612634437935" lon="4.97797455603374">
        <time>2019-05-17T03:23:32Z</time>
      </trkpt>
      <trkpt lat="47.2612322691052" lon="4.97803214665612">
        <time>2019-05-17T03:23:32Z</time>
      </trkpt>
      <trkpt lat="47.2612026654055" lon="4.97808223304124">
        <time>2019-05-17T03:23:32Z</time>
      </trkpt>
      <trkpt lat="47.261175410984" lon="4.97812637097588">
        <time>2019-05-17T03:23:32Z</time>
      </trkpt>
      <trkpt lat="47.2611512758242" lon="4.97816606694111">
        <time>2019-05-17T03:23:32Z</time>
      </trkpt>
      <trkpt lat="47.2611309806675" lon="4.97820296677515">
        <time>2019-05-17T03:23:32Z</time>
      </trkpt>
      <trkpt lat="47.2611153153681" lon="4.97823858119661">
        <time>2019-05-17T03:23:32Z</time>
      </trkpt>
      <trkpt lat="47.26110103825" lon="4.97827823920565">
        <time>2019-05-17T03:23:32Z</time>
      </trkpt>
      <trkpt lat="47.2610846309001" lon="4.97832547150663">
        <time>2019-05-17T03:23:32Z</time>
      </trkpt>
      <trkpt lat="47.2610665758804" lon="4.9783787805226">
        <time>2019-05-17T03:23:32Z</time>
      </trkpt>
      <trkpt lat="47.2610472497924" lon="4.97843686227828">
        <time>2019-05-17T03:23:32Z</time>
      </trkpt>
      <trkpt lat="47.2610270798298" lon="4.97849826291569">
        <time>2019-05-17T03:23:32Z</time>
      </trkpt>
      <trkpt lat="47.2610064719242" lon="4.97856163346578">
        <time>2019-05-17T03:23:32Z</time>
      </trkpt>
      <trkpt lat="47.2609858776116" lon="4.97862557180357">
        <time>2019-05-17T03:23:32Z</time>
      </trkpt>
      <trkpt lat="47.2609656685361" lon="4.97868867593589">
        <time>2019-05-17T03:23:32Z</time>
      </trkpt>
      <trkpt lat="47.2609462778862" lon="4.97874959417726">
        <time>2019-05-17T03:23:32Z</time>
      </trkpt>
      <trkpt lat="47.2609281039411" lon="4.97880687614947">
        <time>2019-05-17T03:23:32Z</time>
      </trkpt>
      <trkpt lat="47.260911618031" lon="4.97885912805424">
        <time>2019-05-17T03:23:32Z</time>
      </trkpt>
      <trkpt lat="47.2608971610174" lon="4.97890503276872">
        <time>2019-05-17T03:23:32Z</time>
      </trkpt>
      <trkpt lat="47.2608852147172" lon="4.97894315056816">
        <time>2019-05-17T03:23:32Z</time>
      </trkpt>
      <trkpt lat="47.2608716749424" lon="4.97898652795502">
        <time>2019-05-17T03:23:32Z</time>
      </trkpt>
      <trkpt lat="47.2609425933859" lon="4.9790246841732">
        <time>2019-05-17T03:23:32Z</time>
      </trkpt>
      <trkpt lat="47.2610167764219" lon="4.97905241799534">
        <time>2019-05-17T03:23:32Z</time>
      </trkpt>
      <trkpt lat="47.2610909140255" lon="4.97908014883514">
        <time>2019-05-17T03:23:32Z</time>
      </trkpt>
      <trkpt lat="47.2611650965175" lon="4.97910793004877">
        <time>2019-05-17T03:23:32Z</time>
      </trkpt>
      <trkpt lat="47.261239261259" lon="4.97913566238406">
        <time>2019-05-17T03:23:32Z</time>
      </trkpt>
      <trkpt lat="47.2613134082397" lon="4.97916339473395">
        <time>2019-05-17T03:23:32Z</time>
      </trkpt>
      <trkpt lat="47.2613875823667" lon="4.97919112850245">
        <time>2019-05-17T03:23:32Z</time>
      </trkpt>
      <trkpt lat="47.2614617554225" lon="4.97921890874447">
        <time>2019-05-17T03:23:32Z</time>
      </trkpt>
      <trkpt lat="47.261535911799" lon="4.97924664179054">
        <time>2019-05-17T03:23:32Z</time>
      </trkpt>
      <trkpt lat="47.2616100764796" lon="4.97927437532423">
        <time>2019-05-17T03:23:32Z</time>
      </trkpt>
      <trkpt lat="47.2616842505915" lon="4.97930210858633">
        <time>2019-05-17T03:23:32Z</time>
      </trkpt>
      <trkpt lat="47.2617584235949" lon="4.97932988995018">
        <time>2019-05-17T03:23:32Z</time>
      </trkpt>
      <trkpt lat="47.2618325705352" lon="4.97935762202428">
        <time>2019-05-17T03:23:32Z</time>
      </trkpt>
      <trkpt lat="47.2619067446031" lon="4.97938535633108">
        <time>2019-05-17T03:23:32Z</time>
      </trkpt>
      <trkpt lat="47.2619809186626" lon="4.97941309071477">
        <time>2019-05-17T03:23:32Z</time>
      </trkpt>
      <trkpt lat="47.2620601916893" lon="4.97944139251792">
        <time>2019-05-17T03:23:32Z</time>
      </trkpt>
      <trkpt lat="47.2620885078541" lon="4.97944652570938">
        <time>2019-05-17T03:23:32Z</time>
      </trkpt>
      <trkpt lat="47.2621239697433" lon="4.97945929566756">
        <time>2019-05-17T03:23:32Z</time>
      </trkpt>
      <trkpt lat="47.2621587948741" lon="4.97948368491469">
        <time>2019-05-17T03:23:32Z</time>
      </trkpt>
      <trkpt lat="47.2621827661759" lon="4.97952341386393">
        <time>2019-05-17T03:23:32Z</time>
      </trkpt>
      <trkpt lat="47.2621855760185" lon="4.97958218374877">
        <time>2019-05-17T03:23:32Z</time>
      </trkpt>
      <trkpt lat="47.2621688799926" lon="4.97964022760667">
        <time>2019-05-17T03:23:32Z</time>
      </trkpt>
      <trkpt lat="47.2621451332461" lon="4.97968728598142">
        <time>2019-05-17T03:23:32Z</time>
      </trkpt>
      <trkpt lat="47.2621103387966" lon="4.97974119196862">
        <time>2019-05-17T03:23:32Z</time>
      </trkpt>
      <trkpt lat="47.2620565323238" lon="4.97981071633743">
        <time>2019-05-17T03:23:32Z</time>
      </trkpt>
      <trkpt lat="47.2620316824345" lon="4.97984206241272">
        <time>2019-05-17T03:23:32Z</time>
      </trkpt>
      <trkpt lat="47.2620094451277" lon="4.9798707196409">
        <time>2019-05-17T03:23:32Z</time>
      </trkpt>
      <trkpt lat="47.2619838685246" lon="4.97990385350199">
        <time>2019-05-17T03:23:32Z</time>
      </trkpt>
      <trkpt lat="47.2619558166238" lon="4.97994046360898">
        <time>2019-05-17T03:23:32Z</time>
      </trkpt>
      <trkpt lat="47.2619260374095" lon="4.97997940693993">
        <time>2019-05-17T03:23:32Z</time>
      </trkpt>
      <trkpt lat="47.2618953318555" lon="4.98001967348075">
        <time>2019-05-17T03:23:32Z</time>
      </trkpt>
      <trkpt lat="47.2618645204424" lon="4.98006017677004">
        <time>2019-05-17T03:23:32Z</time>
      </trkpt>
      <trkpt lat="47.2618343575585" lon="4.98009990613008">
        <time>2019-05-17T03:23:32Z</time>
      </trkpt>
      <trkpt lat="47.2618056367004" lon="4.98013776644093">
        <time>2019-05-17T03:23:32Z</time>
      </trkpt>
      <trkpt lat="47.2617792047805" lon="4.98017270434262">
        <time>2019-05-17T03:23:32Z</time>
      </trkpt>
      <trkpt lat="47.261755772235" lon="4.98020366625195">
        <time>2019-05-17T03:23:32Z</time>
      </trkpt>
      <trkpt lat="47.2617361756486" lon="4.9802296137876">
        <time>2019-05-17T03:23:32Z</time>
      </trkpt>
      <trkpt lat="47.2617136944825" lon="4.98025934491061">
        <time>2019-05-17T03:23:32Z</time>
      </trkpt>
      <trkpt lat="47.261692253819" lon="4.98029434362527">
        <time>2019-05-17T03:23:32Z</time>
      </trkpt>
      <trkpt lat="47.2616682403572" lon="4.9803360562237">
        <time>2019-05-17T03:23:32Z</time>
      </trkpt>
      <trkpt lat="47.2616362328427" lon="4.98039166044195">
        <time>2019-05-17T03:23:32Z</time>
      </trkpt>
      <trkpt lat="47.2616042197594" lon="4.98044726431973">
        <time>2019-05-17T03:23:32Z</time>
      </trkpt>
      <trkpt lat="47.2615722116365" lon="4.98050286837755">
        <time>2019-05-17T03:23:32Z</time>
      </trkpt>
      <trkpt lat="47.2615481852964" lon="4.98054458260063">
        <time>2019-05-17T03:23:32Z</time>
      </trkpt>
      <trkpt lat="47.2615241855229" lon="4.98058629891529">
        <time>2019-05-17T03:23:32Z</time>
      </trkpt>
      <trkpt lat="47.2614921684467" lon="4.98064190318239">
        <time>2019-05-17T03:23:32Z</time>
      </trkpt>
      <trkpt lat="47.2614681598641" lon="4.98068361490149">
        <time>2019-05-17T03:23:32Z</time>
      </trkpt>
      <trkpt lat="47.2614550886792" lon="4.98071770123962">
        <time>2019-05-17T03:23:32Z</time>
      </trkpt>
      <trkpt lat="47.261473346198" lon="4.98075515369159">
        <time>2019-05-17T03:23:32Z</time>
      </trkpt>
      <trkpt lat="47.261493295538" lon="4.98079383067316">
        <time>2019-05-17T03:23:32Z</time>
      </trkpt>
      <trkpt lat="47.2615100800303" lon="4.9808247465745">
        <time>2019-05-17T03:23:32Z</time>
      </trkpt>
      <trkpt lat="47.2615291795247" lon="4.98085838218675">
        <time>2019-05-17T03:23:32Z</time>
      </trkpt>
      <trkpt lat="47.2615504312076" lon="4.98089387708275">
        <time>2019-05-17T03:23:32Z</time>
      </trkpt>
      <trkpt lat="47.2615735918577" lon="4.98093027232999">
        <time>2019-05-17T03:23:32Z</time>
      </trkpt>
      <trkpt lat="47.261598387319" lon="4.98096674844199">
        <time>2019-05-17T03:23:32Z</time>
      </trkpt>
      <trkpt lat="47.2616246563905" lon="4.9810023505374">
        <time>2019-05-17T03:23:32Z</time>
      </trkpt>
      <trkpt lat="47.2616522096811" lon="4.98103621605208">
        <time>2019-05-17T03:23:32Z</time>
      </trkpt>
      <trkpt lat="47.261680745265" lon="4.98106747848474">
        <time>2019-05-17T03:23:32Z</time>
      </trkpt>
      <trkpt lat="47.2617100755755" lon="4.98109521994282">
        <time>2019-05-17T03:23:32Z</time>
      </trkpt>
      <trkpt lat="47.2617400108167" lon="4.98111849878864">
        <time>2019-05-17T03:23:32Z</time>
      </trkpt>
      <trkpt lat="47.2617703037624" lon="4.98113653107777">
        <time>2019-05-17T03:23:32Z</time>
      </trkpt>
      <trkpt lat="47.2618024959148" lon="4.98115470374962">
        <time>2019-05-17T03:23:32Z</time>
      </trkpt>
      <trkpt lat="47.2618380913172" lon="4.98117877920689">
        <time>2019-05-17T03:23:32Z</time>
      </trkpt>
      <trkpt lat="47.2618769783869" lon="4.98120844554444">
        <time>2019-05-17T03:23:32Z</time>
      </trkpt>
      <trkpt lat="47.2619182285928" lon="4.98124277350726">
        <time>2019-05-17T03:23:32Z</time>
      </trkpt>
      <trkpt lat="47.2619621953969" lon="4.9812818091116">
        <time>2019-05-17T03:23:32Z</time>
      </trkpt>
      <trkpt lat="47.262008358128" lon="4.98132478913693">
        <time>2019-05-17T03:23:32Z</time>
      </trkpt>
      <trkpt lat="47.2620563861595" lon="4.98137137291562">
        <time>2019-05-17T03:23:32Z</time>
      </trkpt>
      <trkpt lat="47.2621060085613" lon="4.98142101166954">
        <time>2019-05-17T03:23:32Z</time>
      </trkpt>
      <trkpt lat="47.2621569233047" lon="4.98147327894626">
        <time>2019-05-17T03:23:32Z</time>
      </trkpt>
      <trkpt lat="47.2622088148468" lon="4.98152763597999">
        <time>2019-05-17T03:23:32Z</time>
      </trkpt>
      <trkpt lat="47.2622614177677" lon="4.98158368094092">
        <time>2019-05-17T03:23:32Z</time>
      </trkpt>
      <trkpt lat="47.2623143776031" lon="4.98164087883679">
        <time>2019-05-17T03:23:32Z</time>
      </trkpt>
      <trkpt lat="47.2623674118804" lon="4.98169884573142">
        <time>2019-05-17T03:23:32Z</time>
      </trkpt>
      <trkpt lat="47.2624202219768" lon="4.98175698256501">
        <time>2019-05-17T03:23:32Z</time>
      </trkpt>
      <trkpt lat="47.2624725069469" lon="4.98181491263059">
        <time>2019-05-17T03:23:32Z</time>
      </trkpt>
      <trkpt lat="47.2625239942871" lon="4.98187213186868">
        <time>2019-05-17T03:23:32Z</time>
      </trkpt>
      <trkpt lat="47.2625786529107" lon="4.98192705029721">
        <time>2019-05-17T03:23:32Z</time>
      </trkpt>
      <trkpt lat="47.2626399957965" lon="4.98197836342894">
        <time>2019-05-17T03:23:32Z</time>
      </trkpt>
      <trkpt lat="47.2627069432963" lon="4.98202611972976">
        <time>2019-05-17T03:23:32Z</time>
      </trkpt>
      <trkpt lat="47.2627784376144" lon="4.98207021309115">
        <time>2019-05-17T03:23:32Z</time>
      </trkpt>
      <trkpt lat="47.2628533520532" lon="4.98211068719503">
        <time>2019-05-17T03:23:32Z</time>
      </trkpt>
      <trkpt lat="47.2629306465573" lon="4.98214748487985">
        <time>2019-05-17T03:23:32Z</time>
      </trkpt>
      <trkpt lat="47.2630092126791" lon="4.98218065235129">
        <time>2019-05-17T03:23:32Z</time>
      </trkpt>
      <trkpt lat="47.2630880019124" lon="4.98221008964619">
        <time>2019-05-17T03:23:32Z</time>
      </trkpt>
      <trkpt lat="47.2631659165925" lon="4.98223578400813">
        <time>2019-05-17T03:23:32Z</time>
      </trkpt>
      <trkpt lat="47.2632418669827" lon="4.98225778826489">
        <time>2019-05-17T03:23:32Z</time>
      </trkpt>
      <trkpt lat="47.2633147755548" lon="4.98227608250407">
        <time>2019-05-17T03:23:32Z</time>
      </trkpt>
      <trkpt lat="47.2633835665838" lon="4.98229051977332">
        <time>2019-05-17T03:23:32Z</time>
      </trkpt>
      <trkpt lat="47.2634471659005" lon="4.98230124820106">
        <time>2019-05-17T03:23:32Z</time>
      </trkpt>
      <trkpt lat="47.2635045068402" lon="4.98230816121597">
        <time>2019-05-17T03:23:32Z</time>
      </trkpt>
      <trkpt lat="47.2635544550302" lon="4.98231124994996">
        <time>2019-05-17T03:23:32Z</time>
      </trkpt>
      <trkpt lat="47.2635959881649" lon="4.98231045729638">
        <time>2019-05-17T03:23:32Z</time>
      </trkpt>
      <trkpt lat="47.2636371531951" lon="4.98231098291841">
        <time>2019-05-17T03:23:32Z</time>
      </trkpt>
      <trkpt lat="47.2636863078872" lon="4.98231758551135">
        <time>2019-05-17T03:23:32Z</time>
      </trkpt>
      <trkpt lat="47.2637427459512" lon="4.98232956435297">
        <time>2019-05-17T03:23:32Z</time>
      </trkpt>
      <trkpt lat="47.2638057475636" lon="4.98234642178616">
        <time>2019-05-17T03:23:32Z</time>
      </trkpt>
      <trkpt lat="47.2638745776235" lon="4.98236750374603">
        <time>2019-05-17T03:23:32Z</time>
      </trkpt>
      <trkpt lat="47.2639485821968" lon="4.98239224575013">
        <time>2019-05-17T03:23:32Z</time>
      </trkpt>
      <trkpt lat="47.2640270347135" lon="4.98242000882082">
        <time>2019-05-17T03:23:32Z</time>
      </trkpt>
      <trkpt lat="47.2641092067937" lon="4.98245023293643">
        <time>2019-05-17T03:23:32Z</time>
      </trkpt>
      <trkpt lat="47.2641944367012" lon="4.98248230676762">
        <time>2019-05-17T03:23:32Z</time>
      </trkpt>
      <trkpt lat="47.2642819801341" lon="4.982515590447">
        <time>2019-05-17T03:23:32Z</time>
      </trkpt>
      <trkpt lat="47.264371153242" lon="4.98254956607414">
        <time>2019-05-17T03:23:32Z</time>
      </trkpt>
      <trkpt lat="47.2644612229689" lon="4.98258353891094">
        <time>2019-05-17T03:23:32Z</time>
      </trkpt>
      <trkpt lat="47.264551486842" lon="4.98261700479334">
        <time>2019-05-17T03:23:32Z</time>
      </trkpt>
      <trkpt lat="47.2646412575668" lon="4.98264925738131">
        <time>2019-05-17T03:23:32Z</time>
      </trkpt>
      <trkpt lat="47.2647298508105" lon="4.98267979991665">
        <time>2019-05-17T03:23:32Z</time>
      </trkpt>
      <trkpt lat="47.2648164768272" lon="4.98270801469776">
        <time>2019-05-17T03:23:32Z</time>
      </trkpt>
      <trkpt lat="47.2649028545078" lon="4.98273830029721">
        <time>2019-05-17T03:23:32Z</time>
      </trkpt>
      <trkpt lat="47.2649904116698" lon="4.98277494964278">
        <time>2019-05-17T03:23:32Z</time>
      </trkpt>
      <trkpt lat="47.2650782618455" lon="4.98281677226409">
        <time>2019-05-17T03:23:32Z</time>
      </trkpt>
      <trkpt lat="47.2651654167618" lon="4.98286258975685">
        <time>2019-05-17T03:23:32Z</time>
      </trkpt>
      <trkpt lat="47.2652509780868" lon="4.98291131780137">
        <time>2019-05-17T03:23:32Z</time>
      </trkpt>
      <trkpt lat="47.2653340032918" lon="4.98296176719549">
        <time>2019-05-17T03:23:32Z</time>
      </trkpt>
      <trkpt lat="47.2654135663582" lon="4.98301285141237">
        <time>2019-05-17T03:23:32Z</time>
      </trkpt>
      <trkpt lat="47.2654887180674" lon="4.98306333444392">
        <time>2019-05-17T03:23:32Z</time>
      </trkpt>
      <trkpt lat="47.2655585206621" lon="4.9831121821341">
        <time>2019-05-17T03:23:32Z</time>
      </trkpt>
      <trkpt lat="47.2656220498788" lon="4.98315825585646">
        <time>2019-05-17T03:23:32Z</time>
      </trkpt>
      <trkpt lat="47.2656783741262" lon="4.98320032533895">
        <time>2019-05-17T03:23:32Z</time>
      </trkpt>
      <trkpt lat="47.2657265486835" lon="4.98323729738324">
        <time>2019-05-17T03:23:32Z</time>
      </trkpt>
      <trkpt lat="47.265765639204" lon="4.98326803773886">
        <time>2019-05-17T03:23:32Z</time>
      </trkpt>
      <trkpt lat="47.2657947211861" lon="4.9832914183476">
        <time>2019-05-17T03:23:32Z</time>
      </trkpt>
      <trkpt lat="47.2658159789415" lon="4.98330888872336">
        <time>2019-05-17T03:23:32Z</time>
      </trkpt>
      <trkpt lat="47.2658888420575" lon="4.9833540703977">
        <time>2019-05-17T03:23:32Z</time>
      </trkpt>
      <trkpt lat="47.2659585777244" lon="4.98339666391323">
        <time>2019-05-17T03:23:32Z</time>
      </trkpt>
      <trkpt lat="47.266028286238" lon="4.98343925538172">
        <time>2019-05-17T03:23:32Z</time>
      </trkpt>
      <trkpt lat="47.2660980220197" lon="4.98348184260692">
        <time>2019-05-17T03:23:32Z</time>
      </trkpt>
      <trkpt lat="47.2661677304988" lon="4.98352443429738">
        <time>2019-05-17T03:23:32Z</time>
      </trkpt>
      <trkpt lat="47.2662374662645" lon="4.98356702093053">
        <time>2019-05-17T03:23:32Z</time>
      </trkpt>
      <trkpt lat="47.2662758516869" lon="4.98359047530253">
        <time>2019-05-17T03:23:32Z</time>
      </trkpt>
      <trkpt lat="47.2663071746904" lon="4.98360961365701">
        <time>2019-05-17T03:23:32Z</time>
      </trkpt>
      <trkpt lat="47.2663769104216" lon="4.98365220051215">
        <time>2019-05-17T03:23:32Z</time>
      </trkpt>
      <trkpt lat="47.2664466459675" lon="4.98369479480476">
        <time>2019-05-17T03:23:32Z</time>
      </trkpt>
      <trkpt lat="47.2665163555926" lon="4.98373733332278">
        <time>2019-05-17T03:23:32Z</time>
      </trkpt>
      <trkpt lat="47.2665861005249" lon="4.9837799283037">
        <time>2019-05-17T03:23:32Z</time>
      </trkpt>
      <trkpt lat="47.2666558084783" lon="4.98382251423117">
        <time>2019-05-17T03:23:32Z</time>
      </trkpt>
      <trkpt lat="47.2667255439737" lon="4.98386510815371">
        <time>2019-05-17T03:23:32Z</time>
      </trkpt>
      <trkpt lat="47.2667952524279" lon="4.98390769514462">
        <time>2019-05-17T03:23:32Z</time>
      </trkpt>
      <trkpt lat="47.2668649878888" lon="4.9839502892892">
        <time>2019-05-17T03:23:32Z</time>
      </trkpt>
      <trkpt lat="47.2669390273196" lon="4.98399581784527">
        <time>2019-05-17T03:23:32Z</time>
      </trkpt>
      <trkpt lat="47.2669679478138" lon="4.9840154701641">
        <time>2019-05-17T03:23:32Z</time>
      </trkpt>
      <trkpt lat="47.2670068491957" lon="4.98404170211056">
        <time>2019-05-17T03:23:32Z</time>
      </trkpt>
      <trkpt lat="47.2670583278026" lon="4.98407614019414">
        <time>2019-05-17T03:23:32Z</time>
      </trkpt>
      <trkpt lat="47.2671205941343" lon="4.9841174652396">
        <time>2019-05-17T03:23:32Z</time>
      </trkpt>
      <trkpt lat="47.2671918683735" lon="4.984164347139">
        <time>2019-05-17T03:23:32Z</time>
      </trkpt>
      <trkpt lat="47.2672704694345" lon="4.98421548104051">
        <time>2019-05-17T03:23:32Z</time>
      </trkpt>
      <trkpt lat="47.2673546367499" lon="4.9842695442922">
        <time>2019-05-17T03:23:32Z</time>
      </trkpt>
      <trkpt lat="47.267442598559" lon="4.98432521856473">
        <time>2019-05-17T03:23:32Z</time>
      </trkpt>
      <trkpt lat="47.2675326121386" lon="4.98438112908698">
        <time>2019-05-17T03:23:32Z</time>
      </trkpt>
      <trkpt lat="47.2676229142704" lon="4.98443602067557">
        <time>2019-05-17T03:23:32Z</time>
      </trkpt>
      <trkpt lat="47.2677118166454" lon="4.98448856523106">
        <time>2019-05-17T03:23:32Z</time>
      </trkpt>
      <trkpt lat="47.267797557389" lon="4.98453740084104">
        <time>2019-05-17T03:23:32Z</time>
      </trkpt>
      <trkpt lat="47.2678783100455" lon="4.98458124795556">
        <time>2019-05-17T03:23:32Z</time>
      </trkpt>
      <trkpt lat="47.2679524146002" lon="4.98461875457037">
        <time>2019-05-17T03:23:32Z</time>
      </trkpt>
      <trkpt lat="47.2680181078818" lon="4.9846485912748">
        <time>2019-05-17T03:23:32Z</time>
      </trkpt>
      <trkpt lat="47.2680784821673" lon="4.98467195191085">
        <time>2019-05-17T03:23:32Z</time>
      </trkpt>
      <trkpt lat="47.2681377914674" lon="4.98469109520701">
        <time>2019-05-17T03:23:32Z</time>
      </trkpt>
      <trkpt lat="47.2681960493764" lon="4.98470625083672">
        <time>2019-05-17T03:23:32Z</time>
      </trkpt>
      <trkpt lat="47.2682532375266" lon="4.98471780826261">
        <time>2019-05-17T03:23:32Z</time>
      </trkpt>
      <trkpt lat="47.2683093309929" lon="4.9847260800144">
        <time>2019-05-17T03:23:32Z</time>
      </trkpt>
      <trkpt lat="47.2683643590159" lon="4.98473136337581">
        <time>2019-05-17T03:23:32Z</time>
      </trkpt>
      <trkpt lat="47.2684182879403" lon="4.98473394029239">
        <time>2019-05-17T03:23:32Z</time>
      </trkpt>
      <trkpt lat="47.2684710981139" lon="4.98473423195564">
        <time>2019-05-17T03:23:32Z</time>
      </trkpt>
      <trkpt lat="47.2685228311118" lon="4.98473248165961">
        <time>2019-05-17T03:23:32Z</time>
      </trkpt>
      <trkpt lat="47.2685734328171" lon="4.98472901679657">
        <time>2019-05-17T03:23:32Z</time>
      </trkpt>
      <trkpt lat="47.2686229049724" lon="4.98472417241655">
        <time>2019-05-17T03:23:32Z</time>
      </trkpt>
      <trkpt lat="47.2686712694826" lon="4.98471817861831">
        <time>2019-05-17T03:23:32Z</time>
      </trkpt>
      <trkpt lat="47.2687185076356" lon="4.98471146398256">
        <time>2019-05-17T03:23:32Z</time>
      </trkpt>
      <trkpt lat="47.2687645756694" lon="4.98470431566936">
        <time>2019-05-17T03:23:32Z</time>
      </trkpt>
      <trkpt lat="47.2688095126062" lon="4.98469706405992">
        <time>2019-05-17T03:23:32Z</time>
      </trkpt>
      <trkpt lat="47.2688533029222" lon="4.98468995044418">
        <time>2019-05-17T03:23:32Z</time>
      </trkpt>
      <trkpt lat="47.2688982132007" lon="4.98468586707385">
        <time>2019-05-17T03:23:32Z</time>
      </trkpt>
      <trkpt lat="47.2689460411133" lon="4.9846869128014">
        <time>2019-05-17T03:23:32Z</time>
      </trkpt>
      <trkpt lat="47.2689959605168" lon="4.98469246073407">
        <time>2019-05-17T03:23:32Z</time>
      </trkpt>
      <trkpt lat="47.2690472004983" lon="4.98470182232663">
        <time>2019-05-17T03:23:32Z</time>
      </trkpt>
      <trkpt lat="47.2690989450386" lon="4.98471429212736">
        <time>2019-05-17T03:23:32Z</time>
      </trkpt>
      <trkpt lat="47.2691503960641" lon="4.98472920469085">
        <time>2019-05-17T03:23:32Z</time>
      </trkpt>
      <trkpt lat="47.2692007178482" lon="4.98474591552406">
        <time>2019-05-17T03:23:32Z</time>
      </trkpt>
      <trkpt lat="47.2692491660354" lon="4.98476376346476">
        <time>2019-05-17T03:23:32Z</time>
      </trkpt>
      <trkpt lat="47.2692949356849" lon="4.98478199550969">
        <time>2019-05-17T03:23:32Z</time>
      </trkpt>
      <trkpt lat="47.2693371800502" lon="4.98480001225001">
        <time>2019-05-17T03:23:32Z</time>
      </trkpt>
      <trkpt lat="47.269375103874" lon="4.98481704974478">
        <time>2019-05-17T03:23:32Z</time>
      </trkpt>
      <trkpt lat="47.269407959502" lon="4.98483256646313">
        <time>2019-05-17T03:23:32Z</time>
      </trkpt>
      <trkpt lat="47.2694450067045" lon="4.98485093471443">
        <time>2019-05-17T03:23:32Z</time>
      </trkpt>
      <trkpt lat="47.2694723642419" lon="4.98486570076352">
        <time>2019-05-17T03:23:32Z</time>
      </trkpt>
      <trkpt lat="47.2694911327352" lon="4.98488131777635">
        <time>2019-05-17T03:23:32Z</time>
      </trkpt>
      <trkpt lat="47.2695147851735" lon="4.98490102032392">
        <time>2019-05-17T03:23:32Z</time>
      </trkpt>
      <trkpt lat="47.2695479367046" lon="4.98492796291824">
        <time>2019-05-17T03:23:32Z</time>
      </trkpt>
      <trkpt lat="47.2695906344924" lon="4.98496168580519">
        <time>2019-05-17T03:23:32Z</time>
      </trkpt>
      <trkpt lat="47.2696429050702" lon="4.98500185454369">
        <time>2019-05-17T03:23:32Z</time>
      </trkpt>
      <trkpt lat="47.26970481154" lon="4.98504808842321">
        <time>2019-05-17T03:23:32Z</time>
      </trkpt>
      <trkpt lat="47.2697763453035" lon="4.98509996406586">
        <time>2019-05-17T03:23:32Z</time>
      </trkpt>
      <trkpt lat="47.2698575332538" lon="4.98515710712718">
        <time>2019-05-17T03:23:32Z</time>
      </trkpt>
      <trkpt lat="47.2699484667367" lon="4.98521913912362">
        <time>2019-05-17T03:23:32Z</time>
      </trkpt>
      <trkpt lat="47.2700491255836" lon="4.98528572984325">
        <time>2019-05-17T03:23:32Z</time>
      </trkpt>
      <trkpt lat="47.2701595666949" lon="4.9853564061885">
        <time>2019-05-17T03:23:32Z</time>
      </trkpt>
      <trkpt lat="47.2702798077305" lon="4.98543078521779">
        <time>2019-05-17T03:23:32Z</time>
      </trkpt>
      <trkpt lat="47.2704099103726" lon="4.98550854811388">
        <time>2019-05-17T03:23:32Z</time>
      </trkpt>
      <trkpt lat="47.2705498767219" lon="4.98558926470891">
        <time>2019-05-17T03:23:32Z</time>
      </trkpt>
      <trkpt lat="47.270699732161" lon="4.98567255407472">
        <time>2019-05-17T03:23:32Z</time>
      </trkpt>
      <trkpt lat="47.2708474130082" lon="4.98574621158844">
        <time>2019-05-17T03:23:32Z</time>
      </trkpt>
      <trkpt lat="47.2709818077366" lon="4.98579955157083">
        <time>2019-05-17T03:23:32Z</time>
      </trkpt>
      <trkpt lat="47.2711045357576" lon="4.98583448710011">
        <time>2019-05-17T03:23:32Z</time>
      </trkpt>
      <trkpt lat="47.2712171642108" lon="4.98585286350938">
        <time>2019-05-17T03:23:32Z</time>
      </trkpt>
      <trkpt lat="47.2713212696599" lon="4.98585655027376">
        <time>2019-05-17T03:23:32Z</time>
      </trkpt>
      <trkpt lat="47.2714184903554" lon="4.98584743625663">
        <time>2019-05-17T03:23:32Z</time>
      </trkpt>
      <trkpt lat="47.2715104026442" lon="4.98582739994297">
        <time>2019-05-17T03:23:32Z</time>
      </trkpt>
      <trkpt lat="47.2715985614694" lon="4.98579835789821">
        <time>2019-05-17T03:23:32Z</time>
      </trkpt>
      <trkpt lat="47.271684590087" lon="4.98576215102589">
        <time>2019-05-17T03:23:32Z</time>
      </trkpt>
      <trkpt lat="47.2717700461433" lon="4.98572060231785">
        <time>2019-05-17T03:23:32Z</time>
      </trkpt>
      <trkpt lat="47.2718565666744" lon="4.98567570171818">
        <time>2019-05-17T03:23:32Z</time>
      </trkpt>
      <trkpt lat="47.2719457010552" lon="4.98562927019327">
        <time>2019-05-17T03:23:32Z</time>
      </trkpt>
      <trkpt lat="47.2720390610665" lon="4.98558318967661">
        <time>2019-05-17T03:23:32Z</time>
      </trkpt>
      <trkpt lat="47.2721382418982" lon="4.98553929156841">
        <time>2019-05-17T03:23:32Z</time>
      </trkpt>
      <trkpt lat="47.2722447976575" lon="4.98549955358449">
        <time>2019-05-17T03:23:32Z</time>
      </trkpt>
      <trkpt lat="47.2723603425303" lon="4.98546580156828">
        <time>2019-05-17T03:23:32Z</time>
      </trkpt>
      <trkpt lat="47.2724789969971" lon="4.98544116511545">
        <time>2019-05-17T03:23:32Z</time>
      </trkpt>
      <trkpt lat="47.2725934281744" lon="4.98542683046854">
        <time>2019-05-17T03:23:32Z</time>
      </trkpt>
      <trkpt lat="47.2727031879175" lon="4.98542160750023">
        <time>2019-05-17T03:23:32Z</time>
      </trkpt>
      <trkpt lat="47.2728077931854" lon="4.98542423098369">
        <time>2019-05-17T03:23:32Z</time>
      </trkpt>
      <trkpt lat="47.272906776277" lon="4.98543354076693">
        <time>2019-05-17T03:23:32Z</time>
      </trkpt>
      <trkpt lat="47.2729996721808" lon="4.9854483319889">
        <time>2019-05-17T03:23:32Z</time>
      </trkpt>
      <trkpt lat="47.2730859484496" lon="4.98546743718883">
        <time>2019-05-17T03:23:32Z</time>
      </trkpt>
      <trkpt lat="47.2731651960188" lon="4.9854896069783">
        <time>2019-05-17T03:23:32Z</time>
      </trkpt>
      <trkpt lat="47.273236893389" lon="4.98551363203239">
        <time>2019-05-17T03:23:32Z</time>
      </trkpt>
      <trkpt lat="47.2733005912467" lon="4.98553839706692">
        <time>2019-05-17T03:23:32Z</time>
      </trkpt>
      <trkpt lat="47.2733557608411" lon="4.98556259783176">
        <time>2019-05-17T03:23:32Z</time>
      </trkpt>
      <trkpt lat="47.2734019893051" lon="4.98558512654074">
        <time>2019-05-17T03:23:32Z</time>
      </trkpt>
      <trkpt lat="47.2734388025036" lon="4.98560471668837">
        <time>2019-05-17T03:23:32Z</time>
      </trkpt>
      <trkpt lat="47.2734656597689" lon="4.98562022073371">
        <time>2019-05-17T03:23:32Z</time>
      </trkpt>
      <trkpt lat="47.2734849306528" lon="4.98563219538643">
        <time>2019-05-17T03:23:32Z</time>
      </trkpt>
      <trkpt lat="47.2735515441173" lon="4.98565125038262">
        <time>2019-05-17T03:23:32Z</time>
      </trkpt>
      <trkpt lat="47.273615360418" lon="4.98566843723433">
        <time>2019-05-17T03:23:32Z</time>
      </trkpt>
      <trkpt lat="47.2736791760356" lon="4.98568567788903">
        <time>2019-05-17T03:23:32Z</time>
      </trkpt>
      <trkpt lat="47.2737430017495" lon="4.98570286528957">
        <time>2019-05-17T03:23:32Z</time>
      </trkpt>
      <trkpt lat="47.2738068169546" lon="4.98572009948572">
        <time>2019-05-17T03:23:32Z</time>
      </trkpt>
      <trkpt lat="47.2738706336444" lon="4.98573729304232">
        <time>2019-05-17T03:23:32Z</time>
      </trkpt>
      <trkpt lat="47.2739344488417" lon="4.98575452732066">
        <time>2019-05-17T03:23:32Z</time>
      </trkpt>
      <trkpt lat="47.2739982656732" lon="4.98577171444603">
        <time>2019-05-17T03:23:32Z</time>
      </trkpt>
      <trkpt lat="47.2740620806945" lon="4.98578895613403">
        <time>2019-05-17T03:23:32Z</time>
      </trkpt>
      <trkpt lat="47.2741258975183" lon="4.98580614334148">
        <time>2019-05-17T03:23:32Z</time>
      </trkpt>
      <trkpt lat="47.2741897127" lon="4.98582337778417">
        <time>2019-05-17T03:23:32Z</time>
      </trkpt>
      <trkpt lat="47.2742535382332" lon="4.98584057202636">
        <time>2019-05-17T03:23:32Z</time>
      </trkpt>
      <trkpt lat="47.2743173534072" lon="4.98585780655125">
        <time>2019-05-17T03:23:32Z</time>
      </trkpt>
      <trkpt lat="47.2743811702154" lon="4.98587499392283">
        <time>2019-05-17T03:23:32Z</time>
      </trkpt>
      <trkpt lat="47.274444985232" lon="4.98589223504326">
        <time>2019-05-17T03:23:32Z</time>
      </trkpt>
      <trkpt lat="47.2745120623158" lon="4.98591219072622">
        <time>2019-05-17T03:23:32Z</time>
      </trkpt>
      <trkpt lat="47.2745337065028" lon="4.98593113096044">
        <time>2019-05-17T03:23:32Z</time>
      </trkpt>
      <trkpt lat="47.2745622921391" lon="4.9859573809969">
        <time>2019-05-17T03:23:32Z</time>
      </trkpt>
      <trkpt lat="47.2745994462447" lon="4.98599319779437">
        <time>2019-05-17T03:23:32Z</time>
      </trkpt>
      <trkpt lat="47.2746433977775" lon="4.9860380298399">
        <time>2019-05-17T03:23:32Z</time>
      </trkpt>
      <trkpt lat="47.2746925146429" lon="4.98609126648258">
        <time>2019-05-17T03:23:32Z</time>
      </trkpt>
      <trkpt lat="47.2747451163624" lon="4.98615244709479">
        <time>2019-05-17T03:23:32Z</time>
      </trkpt>
      <trkpt lat="47.2747994901002" lon="4.98622087713532">
        <time>2019-05-17T03:23:32Z</time>
      </trkpt>
      <trkpt lat="47.2748539707246" lon="4.98629617660218">
        <time>2019-05-17T03:23:32Z</time>
      </trkpt>
      <trkpt lat="47.2749068469134" lon="4.98637765752963">
        <time>2019-05-17T03:23:32Z</time>
      </trkpt>
      <trkpt lat="47.2749564838678" lon="4.98646480282714">
        <time>2019-05-17T03:23:32Z</time>
      </trkpt>
      <trkpt lat="47.2750011382911" lon="4.98655706066864">
        <time>2019-05-17T03:23:32Z</time>
      </trkpt>
      <trkpt lat="47.275039185897" lon="4.98665391526912">
        <time>2019-05-17T03:23:32Z</time>
      </trkpt>
      <trkpt lat="47.2750688943706" lon="4.98675472320642">
        <time>2019-05-17T03:23:32Z</time>
      </trkpt>
      <trkpt lat="47.2750885907651" lon="4.98685905835628">
        <time>2019-05-17T03:23:32Z</time>
      </trkpt>
      <trkpt lat="47.2750996039564" lon="4.98696860615531">
        <time>2019-05-17T03:23:32Z</time>
      </trkpt>
      <trkpt lat="47.275126382859" lon="4.98698961680759">
        <time>2019-05-17T03:23:32Z</time>
      </trkpt>
      <trkpt lat="47.2751467142313" lon="4.98700548813776">
        <time>2019-05-17T03:23:32Z</time>
      </trkpt>
      <trkpt lat="47.2751821546508" lon="4.98703307329242">
        <time>2019-05-17T03:23:32Z</time>
      </trkpt>
      <trkpt lat="47.2752247860701" lon="4.98706608574966">
        <time>2019-05-17T03:23:32Z</time>
      </trkpt>
      <trkpt lat="47.2752732917323" lon="4.9871033264427">
        <time>2019-05-17T03:23:32Z</time>
      </trkpt>
      <trkpt lat="47.2753262969889" lon="4.98714372547819">
        <time>2019-05-17T03:23:32Z</time>
      </trkpt>
      <trkpt lat="47.2753825561043" lon="4.98718618022163">
        <time>2019-05-17T03:23:32Z</time>
      </trkpt>
      <trkpt lat="47.2754407041972" lon="4.98722958212427">
        <time>2019-05-17T03:23:32Z</time>
      </trkpt>
      <trkpt lat="47.2754994323783" lon="4.98727282458912">
        <time>2019-05-17T03:23:32Z</time>
      </trkpt>
      <trkpt lat="47.2755574224461" lon="4.98731474756597">
        <time>2019-05-17T03:23:32Z</time>
      </trkpt>
      <trkpt lat="47.2756133548597" lon="4.98735429770915">
        <time>2019-05-17T03:23:32Z</time>
      </trkpt>
      <trkpt lat="47.2756659020048" lon="4.9873903625764">
        <time>2019-05-17T03:23:32Z</time>
      </trkpt>
      <trkpt lat="47.2757137544391" lon="4.9874217874182">
        <time>2019-05-17T03:23:32Z</time>
      </trkpt>
      <trkpt lat="47.275755603411" lon="4.98744745990026">
        <time>2019-05-17T03:23:32Z</time>
      </trkpt>
      <trkpt lat="47.2757959232448" lon="4.98747043111192">
        <time>2019-05-17T03:23:32Z</time>
      </trkpt>
      <trkpt lat="47.2758349745531" lon="4.98749807449136">
        <time>2019-05-17T03:23:32Z</time>
      </trkpt>
      <trkpt lat="47.2758871845761" lon="4.98753526410461">
        <time>2019-05-17T03:23:32Z</time>
      </trkpt>
      <trkpt lat="47.2759556790648" lon="4.98758443977241">
        <time>2019-05-17T03:23:32Z</time>
      </trkpt>
      <trkpt lat="47.2760378747352" lon="4.98764386689308">
        <time>2019-05-17T03:23:32Z</time>
      </trkpt>
      <trkpt lat="47.2761311572751" lon="4.98771185741435">
        <time>2019-05-17T03:23:32Z</time>
      </trkpt>
      <trkpt lat="47.2762328301489" lon="4.98778680070652">
        <time>2019-05-17T03:23:32Z</time>
      </trkpt>
      <trkpt lat="47.2763403632789" lon="4.9878669647694">
        <time>2019-05-17T03:23:32Z</time>
      </trkpt>
      <trkpt lat="47.2764510615652" lon="4.98795065259641">
        <time>2019-05-17T03:23:32Z</time>
      </trkpt>
      <trkpt lat="47.2765623020719" lon="4.98803621393244">
        <time>2019-05-17T03:23:32Z</time>
      </trkpt>
      <trkpt lat="47.2766714987316" lon="4.98812196363955">
        <time>2019-05-17T03:23:32Z</time>
      </trkpt>
      <trkpt lat="47.2767759849281" lon="4.98820619706688">
        <time>2019-05-17T03:23:32Z</time>
      </trkpt>
      <trkpt lat="47.2768731543105" lon="4.98828726713673">
        <time>2019-05-17T03:23:32Z</time>
      </trkpt>
      <trkpt lat="47.2769603780384" lon="4.98836344330116">
        <time>2019-05-17T03:23:32Z</time>
      </trkpt>
      <trkpt lat="47.2770350138608" lon="4.98843307176318">
        <time>2019-05-17T03:23:32Z</time>
      </trkpt>
      <trkpt lat="47.2770944305571" lon="4.98849450170321">
        <time>2019-05-17T03:23:32Z</time>
      </trkpt>
      <trkpt lat="47.2771486304955" lon="4.98855211249421">
        <time>2019-05-17T03:23:32Z</time>
      </trkpt>
      <trkpt lat="47.2772084227566" lon="4.98861110286572">
        <time>2019-05-17T03:23:32Z</time>
      </trkpt>
      <trkpt lat="47.2772725634155" lon="4.98867067832573">
        <time>2019-05-17T03:23:32Z</time>
      </trkpt>
      <trkpt lat="47.2773398137786" lon="4.98873022722471">
        <time>2019-05-17T03:23:32Z</time>
      </trkpt>
      <trkpt lat="47.2774089104202" lon="4.98878900706986">
        <time>2019-05-17T03:23:32Z</time>
      </trkpt>
      <trkpt lat="47.2774785704052" lon="4.98884635182971">
        <time>2019-05-17T03:23:32Z</time>
      </trkpt>
      <trkpt lat="47.2775475673094" lon="4.98890152653426">
        <time>2019-05-17T03:23:32Z</time>
      </trkpt>
      <trkpt lat="47.277614653836" lon="4.98895385956577">
        <time>2019-05-17T03:23:32Z</time>
      </trkpt>
      <trkpt lat="47.2776785573842" lon="4.98900266989183">
        <time>2019-05-17T03:23:32Z</time>
      </trkpt>
      <trkpt lat="47.2777379953938" lon="4.98904722707011">
        <time>2019-05-17T03:23:32Z</time>
      </trkpt>
      <trkpt lat="47.2777917587669" lon="4.98908681489413">
        <time>2019-05-17T03:23:32Z</time>
      </trkpt>
      <trkpt lat="47.2778385467025" lon="4.98912079656457">
        <time>2019-05-17T03:23:32Z</time>
      </trkpt>
      <trkpt lat="47.277877149201" lon="4.98914844685831">
        <time>2019-05-17T03:23:32Z</time>
      </trkpt>
      <trkpt lat="47.2779062758882" lon="4.98916903738047">
        <time>2019-05-17T03:23:32Z</time>
      </trkpt>
      <trkpt lat="47.2779278519339" lon="4.9891841374173">
        <time>2019-05-17T03:23:32Z</time>
      </trkpt>
      <trkpt lat="47.2779754601484" lon="4.98921564358346">
        <time>2019-05-17T03:23:32Z</time>
      </trkpt>
      <trkpt lat="47.2780198952472" lon="4.98924496101061">
        <time>2019-05-17T03:23:32Z</time>
      </trkpt>
      <trkpt lat="47.2780643027976" lon="4.98927426978365">
        <time>2019-05-17T03:23:32Z</time>
      </trkpt>
      <trkpt lat="47.2781087101716" lon="4.98930358593338">
        <time>2019-05-17T03:23:32Z</time>
      </trkpt>
      <trkpt lat="47.2781531175375" lon="4.98933290213178">
        <time>2019-05-17T03:23:32Z</time>
      </trkpt>
      <trkpt lat="47.2781975261491" lon="4.98936216382564">
        <time>2019-05-17T03:23:32Z</time>
      </trkpt>
      <trkpt lat="47.278241934053" lon="4.98939148014885">
        <time>2019-05-17T03:23:32Z</time>
      </trkpt>
      <trkpt lat="47.2782863686988" lon="4.98942079132676">
        <time>2019-05-17T03:23:32Z</time>
      </trkpt>
      <trkpt lat="47.2783307760511" lon="4.98945010690559">
        <time>2019-05-17T03:23:32Z</time>
      </trkpt>
      <trkpt lat="47.2783751840804" lon="4.98947941686098">
        <time>2019-05-17T03:23:32Z</time>
      </trkpt>
      <trkpt lat="47.2784195924833" lon="4.98950868612602">
        <time>2019-05-17T03:23:32Z</time>
      </trkpt>
      <trkpt lat="47.2784639999611" lon="4.98953799533697">
        <time>2019-05-17T03:23:32Z</time>
      </trkpt>
      <trkpt lat="47.2785084349709" lon="4.98956731329962">
        <time>2019-05-17T03:23:32Z</time>
      </trkpt>
      <trkpt lat="47.2785528330115" lon="4.98959662214043">
        <time>2019-05-17T03:23:32Z</time>
      </trkpt>
      <trkpt lat="47.278597250803" lon="4.98962589206746">
        <time>2019-05-17T03:23:32Z</time>
      </trkpt>
      <trkpt lat="47.2786416493817" lon="4.98965520103305">
        <time>2019-05-17T03:23:32Z</time>
      </trkpt>
      <trkpt lat="47.2786761955959" lon="4.98962379036325">
        <time>2019-05-17T03:23:32Z</time>
      </trkpt>
      <trkpt lat="47.2787107142838" lon="4.98959241823043">
        <time>2019-05-17T03:23:32Z</time>
      </trkpt>
      <trkpt lat="47.2787452610343" lon="4.98956100750704">
        <time>2019-05-17T03:23:32Z</time>
      </trkpt>
      <trkpt lat="47.2787797802358" lon="4.98952958804002">
        <time>2019-05-17T03:23:32Z</time>
      </trkpt>
      <trkpt lat="47.2788143269684" lon="4.9894981772355">
        <time>2019-05-17T03:23:32Z</time>
      </trkpt>
      <trkpt lat="47.2788488738606" lon="4.98946675906227">
        <time>2019-05-17T03:23:32Z</time>
      </trkpt>
      <trkpt lat="47.2788833928667" lon="4.98943534680172">
        <time>2019-05-17T03:23:32Z</time>
      </trkpt>
      <trkpt lat="47.278917939741" lon="4.98940392854735">
        <time>2019-05-17T03:23:32Z</time>
      </trkpt>
      <trkpt lat="47.2789524853525" lon="4.98937256480639">
        <time>2019-05-17T03:23:32Z</time>
      </trkpt>
      <trkpt lat="47.2789870045003" lon="4.98934114509606">
        <time>2019-05-17T03:23:32Z</time>
      </trkpt>
      <trkpt lat="47.2790215513291" lon="4.98930972753425">
        <time>2019-05-17T03:23:32Z</time>
      </trkpt>
      <trkpt lat="47.2790560708635" lon="4.98927831428422">
        <time>2019-05-17T03:23:32Z</time>
      </trkpt>
      <trkpt lat="47.2790906176743" lon="4.98924689664127">
        <time>2019-05-17T03:23:32Z</time>
      </trkpt>
      <trkpt lat="47.2791251637911" lon="4.98921548462992">
        <time>2019-05-17T03:23:32Z</time>
      </trkpt>
      <trkpt lat="47.2791596823443" lon="4.98918411278458">
        <time>2019-05-17T03:23:32Z</time>
      </trkpt>
      <trkpt lat="47.2792098915763" lon="4.98913991010232">
        <time>2019-05-17T03:23:32Z</time>
      </trkpt>
      <trkpt lat="47.2792516614596" lon="4.98910585570374">
        <time>2019-05-17T03:23:32Z</time>
      </trkpt>
      <trkpt lat="47.2792829871332" lon="4.98908029970329">
        <time>2019-05-17T03:23:32Z</time>
      </trkpt>
      <trkpt lat="47.2793046582118" lon="4.98906263324349">
        <time>2019-05-17T03:23:32Z</time>
      </trkpt>
      <trkpt lat="47.2793195305768" lon="4.98905052561238">
        <time>2019-05-17T03:23:32Z</time>
      </trkpt>
      <trkpt lat="47.2793352011828" lon="4.98903772310644">
        <time>2019-05-17T03:23:32Z</time>
      </trkpt>
      <trkpt lat="47.2793581425442" lon="4.98902194888271">
        <time>2019-05-17T03:23:32Z</time>
      </trkpt>
      <trkpt lat="47.2793650751258" lon="4.98904747760476">
        <time>2019-05-17T03:23:32Z</time>
      </trkpt>
      <trkpt lat="47.2793696999398" lon="4.98908419829435">
        <time>2019-05-17T03:23:32Z</time>
      </trkpt>
      <trkpt lat="47.2793760283212" lon="4.98913309579669">
        <time>2019-05-17T03:23:32Z</time>
      </trkpt>
      <trkpt lat="47.2793840648983" lon="4.98919283346625">
        <time>2019-05-17T03:23:32Z</time>
      </trkpt>
      <trkpt lat="47.2793937059979" lon="4.98926193478164">
        <time>2019-05-17T03:23:32Z</time>
      </trkpt>
      <trkpt lat="47.2794048826071" lon="4.98933903254442">
        <time>2019-05-17T03:23:32Z</time>
      </trkpt>
      <trkpt lat="47.2794175442978" lon="4.98942269934007">
        <time>2019-05-17T03:23:32Z</time>
      </trkpt>
      <trkpt lat="47.2794316235816" lon="4.98951155011119">
        <time>2019-05-17T03:23:32Z</time>
      </trkpt>
      <trkpt lat="47.2794470724814" lon="4.98960407523045">
        <time>2019-05-17T03:23:32Z</time>
      </trkpt>
      <trkpt lat="47.2794637824035" lon="4.98969898867951">
        <time>2019-05-17T03:23:32Z</time>
      </trkpt>
      <trkpt lat="47.2794817440849" lon="4.98979476236917">
        <time>2019-05-17T03:23:32Z</time>
      </trkpt>
      <trkpt lat="47.2795008785028" lon="4.9898900310418">
        <time>2019-05-17T03:23:32Z</time>
      </trkpt>
      <trkpt lat="47.2795210900208" lon="4.98998340415724">
        <time>2019-05-17T03:23:32Z</time>
      </trkpt>
      <trkpt lat="47.2795423472385" lon="4.99007342425514">
        <time>2019-05-17T03:23:32Z</time>
      </trkpt>
      <trkpt lat="47.2795645735199" lon="4.99015869521066">
        <time>2019-05-17T03:23:32Z</time>
      </trkpt>
      <trkpt lat="47.2796039748362" lon="4.99029080288759">
        <time>2019-05-17T03:23:32Z</time>
      </trkpt>
      <trkpt lat="47.2796736882723" lon="4.99051322586637">
        <time>2019-05-17T03:23:32Z</time>
      </trkpt>
      <trkpt lat="47.279769209627" lon="4.9908122516859">
        <time>2019-05-17T03:23:32Z</time>
      </trkpt>
      <trkpt lat="47.2798860305976" lon="4.99117436908441">
        <time>2019-05-17T03:23:32Z</time>
      </trkpt>
      <trkpt lat="47.2800195556739" lon="4.99158580806371">
        <time>2019-05-17T03:23:32Z</time>
      </trkpt>
      <trkpt lat="47.280165278213" lon="4.99203301644549">
        <time>2019-05-17T03:23:32Z</time>
      </trkpt>
      <trkpt lat="47.280318655723" lon="4.99250236747544">
        <time>2019-05-17T03:23:32Z</time>
      </trkpt>
      <trkpt lat="47.2804751650728" lon="4.99298017310986">
        <time>2019-05-17T03:23:32Z</time>
      </trkpt>
      <trkpt lat="47.2806302362721" lon="4.99345283802959">
        <time>2019-05-17T03:23:32Z</time>
      </trkpt>
      <trkpt lat="47.2807793460826" lon="4.99390672162912">
        <time>2019-05-17T03:23:32Z</time>
      </trkpt>
      <trkpt lat="47.2809179896124" lon="4.9943281904293">
        <time>2019-05-17T03:23:32Z</time>
      </trkpt>
      <trkpt lat="47.2810415714331" lon="4.99470359884999">
        <time>2019-05-17T03:23:32Z</time>
      </trkpt>
      <trkpt lat="47.2811456028863" lon="4.99501936837862">
        <time>2019-05-17T03:23:32Z</time>
      </trkpt>
      <trkpt lat="47.2812255289038" lon="4.99526174753567">
        <time>2019-05-17T03:23:32Z</time>
      </trkpt>
      <trkpt lat="47.2812767861134" lon="4.99541720046944">
        <time>2019-05-17T03:23:32Z</time>
      </trkpt>
      <trkpt lat="47.281297021921" lon="4.99547635870911">
        <time>2019-05-17T03:23:32Z</time>
      </trkpt>
      <trkpt lat="47.2813113766637" lon="4.99550541651246">
        <time>2019-05-17T03:23:32Z</time>
      </trkpt>
      <trkpt lat="47.2813307175522" lon="4.99554429528174">
        <time>2019-05-17T03:23:32Z</time>
      </trkpt>
      <trkpt lat="47.2813563666077" lon="4.99559552679061">
        <time>2019-05-17T03:23:32Z</time>
      </trkpt>
      <trkpt lat="47.2813873904073" lon="4.99565717010895">
        <time>2019-05-17T03:23:32Z</time>
      </trkpt>
      <trkpt lat="47.2814230356935" lon="4.99572738701512">
        <time>2019-05-17T03:23:32Z</time>
      </trkpt>
      <trkpt lat="47.2814623769755" lon="4.99580427772794">
        <time>2019-05-17T03:23:32Z</time>
      </trkpt>
      <trkpt lat="47.2815046530544" lon="4.99588596367413">
        <time>2019-05-17T03:23:32Z</time>
      </trkpt>
      <trkpt lat="47.2815489458595" lon="4.99597058455479">
        <time>2019-05-17T03:23:32Z</time>
      </trkpt>
      <trkpt lat="47.2815944319268" lon="4.99605621954928">
        <time>2019-05-17T03:23:32Z</time>
      </trkpt>
      <trkpt lat="47.2816403105506" lon="4.99614106797807">
        <time>2019-05-17T03:23:32Z</time>
      </trkpt>
      <trkpt lat="47.2816856666234" lon="4.99622318976412">
        <time>2019-05-17T03:23:32Z</time>
      </trkpt>
      <trkpt lat="47.2817297014777" lon="4.99630074436034">
        <time>2019-05-17T03:23:32Z</time>
      </trkpt>
      <trkpt lat="47.2817715539222" lon="4.99637183592492">
        <time>2019-05-17T03:23:32Z</time>
      </trkpt>
      <trkpt lat="47.2818103791502" lon="4.99643458001961">
        <time>2019-05-17T03:23:32Z</time>
      </trkpt>
      <trkpt lat="47.2818453170851" lon="4.99648708084148">
        <time>2019-05-17T03:23:32Z</time>
      </trkpt>
      <trkpt lat="47.2818833268346" lon="4.99654276472384">
        <time>2019-05-17T03:23:32Z</time>
      </trkpt>
      <trkpt lat="47.2819308005935" lon="4.9966143304084">
        <time>2019-05-17T03:23:32Z</time>
      </trkpt>
      <trkpt lat="47.281986089588" lon="4.99669912393013">
        <time>2019-05-17T03:23:32Z</time>
      </trkpt>
      <trkpt lat="47.2820475173108" lon="4.99679451520751">
        <time>2019-05-17T03:23:32Z</time>
      </trkpt>
      <trkpt lat="47.2821135014369" lon="4.99689771171044">
        <time>2019-05-17T03:23:32Z</time>
      </trkpt>
      <trkpt lat="47.2821823567371" lon="4.99700607717995">
        <time>2019-05-17T03:23:32Z</time>
      </trkpt>
      <trkpt lat="47.2822524723979" lon="4.99711687631751">
        <time>2019-05-17T03:23:32Z</time>
      </trkpt>
      <trkpt lat="47.2823221624209" lon="4.9972275070125">
        <time>2019-05-17T03:23:32Z</time>
      </trkpt>
      <trkpt lat="47.2823897890368" lon="4.99733520077575">
        <time>2019-05-17T03:23:32Z</time>
      </trkpt>
      <trkpt lat="47.2824537611593" lon="4.99743721016455">
        <time>2019-05-17T03:23:32Z</time>
      </trkpt>
      <trkpt lat="47.2825123738462" lon="4.99753093775294">
        <time>2019-05-17T03:23:32Z</time>
      </trkpt>
      <trkpt lat="47.2825640327692" lon="4.99761370518743">
        <time>2019-05-17T03:23:32Z</time>
      </trkpt>
      <trkpt lat="47.2826070839038" lon="4.99768272841146">
        <time>2019-05-17T03:23:32Z</time>
      </trkpt>
      <trkpt lat="47.2826398507156" lon="4.9977353575696">
        <time>2019-05-17T03:23:32Z</time>
      </trkpt>
      <trkpt lat="47.2826643712154" lon="4.99777480903175">
        <time>2019-05-17T03:23:32Z</time>
      </trkpt>
      <trkpt lat="47.2826916462218" lon="4.99777889043066">
        <time>2019-05-17T03:23:32Z</time>
      </trkpt>
      <trkpt lat="47.282711163017" lon="4.99777735676686">
        <time>2019-05-17T03:23:32Z</time>
      </trkpt>
      <trkpt lat="47.282750668637" lon="4.99777429418291">
        <time>2019-05-17T03:23:32Z</time>
      </trkpt>
      <trkpt lat="47.2827978828413" lon="4.99777062481807">
        <time>2019-05-17T03:23:32Z</time>
      </trkpt>
      <trkpt lat="47.2828332893895" lon="4.99776788236863">
        <time>2019-05-17T03:23:32Z</time>
      </trkpt>
      <trkpt lat="47.2828687135483" lon="4.99776512204194">
        <time>2019-05-17T03:23:32Z</time>
      </trkpt>
      <trkpt lat="47.2829041382984" lon="4.99776236011058">
        <time>2019-05-17T03:23:32Z</time>
      </trkpt>
      <trkpt lat="47.2829395531389" lon="4.99775961887831">
        <time>2019-05-17T03:23:32Z</time>
      </trkpt>
      <trkpt lat="47.2829749696408" lon="4.99775682962648">
        <time>2019-05-17T03:23:32Z</time>
      </trkpt>
      <trkpt lat="47.2830103749844" lon="4.99775409117514">
        <time>2019-05-17T03:23:32Z</time>
      </trkpt>
      <trkpt lat="47.2830499702647" lon="4.99775053246748">
        <time>2019-05-17T03:23:32Z</time>
      </trkpt>
      <trkpt lat="47.2830770815548" lon="4.9977481906653">
        <time>2019-05-17T03:23:32Z</time>
      </trkpt>
      <trkpt lat="47.2831082617464" lon="4.99774948435461">
        <time>2019-05-17T03:23:32Z</time>
      </trkpt>
      <trkpt lat="47.2831356618278" lon="4.99775326628805">
        <time>2019-05-17T03:23:32Z</time>
      </trkpt>
      <trkpt lat="47.283167980721" lon="4.99776027683786">
        <time>2019-05-17T03:23:32Z</time>
      </trkpt>
      <trkpt lat="47.2832051631513" lon="4.99777132523437">
        <time>2019-05-17T03:23:32Z</time>
      </trkpt>
      <trkpt lat="47.28324726492" lon="4.99778711944566">
        <time>2019-05-17T03:23:32Z</time>
      </trkpt>
      <trkpt lat="47.2832942325066" lon="4.99780841662343">
        <time>2019-05-17T03:23:32Z</time>
      </trkpt>
      <trkpt lat="47.283346066182" lon="4.99783602307116">
        <time>2019-05-17T03:23:32Z</time>
      </trkpt>
      <trkpt lat="47.2834027102627" lon="4.99787074149814">
        <time>2019-05-17T03:23:32Z</time>
      </trkpt>
      <trkpt lat="47.2834641655318" lon="4.99791333177835">
        <time>2019-05-17T03:23:32Z</time>
      </trkpt>
      <trkpt lat="47.2835304157397" lon="4.99796449832451">
        <time>2019-05-17T03:23:32Z</time>
      </trkpt>
      <trkpt lat="47.283601458115" lon="4.99802515493014">
        <time>2019-05-17T03:23:32Z</time>
      </trkpt>
      <trkpt lat="47.2836772416192" lon="4.99809595048771">
        <time>2019-05-17T03:23:32Z</time>
      </trkpt>
      <trkpt lat="47.2837591388557" lon="4.99817363535744">
        <time>2019-05-17T03:23:32Z</time>
      </trkpt>
      <trkpt lat="47.2838474351528" lon="4.99825377501298">
        <time>2019-05-17T03:23:32Z</time>
      </trkpt>
      <trkpt lat="47.2839405731341" lon="4.99833572128009">
        <time>2019-05-17T03:23:32Z</time>
      </trkpt>
      <trkpt lat="47.2840368679473" lon="4.99841877233988">
        <time>2019-05-17T03:23:32Z</time>
      </trkpt>
      <trkpt lat="47.2841348373606" lon="4.99850214921604">
        <time>2019-05-17T03:23:32Z</time>
      </trkpt>
      <trkpt lat="47.2842328329043" lon="4.99858518448133">
        <time>2019-05-17T03:23:32Z</time>
      </trkpt>
      <trkpt lat="47.284329243484" lon="4.99866715385628">
        <time>2019-05-17T03:23:32Z</time>
      </trkpt>
      <trkpt lat="47.2844225301905" lon="4.99874740267668">
        <time>2019-05-17T03:23:32Z</time>
      </trkpt>
      <trkpt lat="47.2845110474713" lon="4.99882508915206">
        <time>2019-05-17T03:23:32Z</time>
      </trkpt>
      <trkpt lat="47.2845932377959" lon="4.99889957233832">
        <time>2019-05-17T03:23:32Z</time>
      </trkpt>
      <trkpt lat="47.2846674889413" lon="4.99897015311923">
        <time>2019-05-17T03:23:32Z</time>
      </trkpt>
      <trkpt lat="47.2847322274217" lon="4.99903608864399">
        <time>2019-05-17T03:23:32Z</time>
      </trkpt>
      <trkpt lat="47.2847862010035" lon="4.99910096477804">
        <time>2019-05-17T03:23:32Z</time>
      </trkpt>
      <trkpt lat="47.2848533826333" lon="4.99919892018375">
        <time>2019-05-17T03:23:32Z</time>
      </trkpt>
      <trkpt lat="47.2848583249287" lon="4.99925048374765">
        <time>2019-05-17T03:23:32Z</time>
      </trkpt>
      <trkpt lat="47.2848796150316" lon="4.99929180421699">
        <time>2019-05-17T03:23:32Z</time>
      </trkpt>
      <trkpt lat="47.2849119388736" lon="4.99931564888191">
        <time>2019-05-17T03:23:32Z</time>
      </trkpt>
      <trkpt lat="47.2849442119957" lon="4.99933493373476">
        <time>2019-05-17T03:23:32Z</time>
      </trkpt>
      <trkpt lat="47.2849858762725" lon="4.99935700989085">
        <time>2019-05-17T03:23:32Z</time>
      </trkpt>
      <trkpt lat="47.2850380068077" lon="4.99938202630667">
        <time>2019-05-17T03:23:32Z</time>
      </trkpt>
      <trkpt lat="47.2851017535174" lon="4.99941008757056">
        <time>2019-05-17T03:23:32Z</time>
      </trkpt>
      <trkpt lat="47.2851782276005" lon="4.99944138928927">
        <time>2019-05-17T03:23:32Z</time>
      </trkpt>
      <trkpt lat="47.2852684853548" lon="4.99947612597343">
        <time>2019-05-17T03:23:32Z</time>
      </trkpt>
      <trkpt lat="47.285370851364" lon="4.99951554391111">
        <time>2019-05-17T03:23:32Z</time>
      </trkpt>
      <trkpt lat="47.2854818513416" lon="4.99956046471394">
        <time>2019-05-17T03:23:32Z</time>
      </trkpt>
      <trkpt lat="47.2855998359259" lon="4.99961018748181">
        <time>2019-05-17T03:23:32Z</time>
      </trkpt>
      <trkpt lat="47.2857232120742" lon="4.99966402308022">
        <time>2019-05-17T03:23:32Z</time>
      </trkpt>
      <trkpt lat="47.2858503311873" lon="4.99972130976222">
        <time>2019-05-17T03:23:32Z</time>
      </trkpt>
      <trkpt lat="47.2859796007415" lon="4.99978131192678">
        <time>2019-05-17T03:23:32Z</time>
      </trkpt>
      <trkpt lat="47.286109425594" lon="4.99984338350977">
        <time>2019-05-17T03:23:32Z</time>
      </trkpt>
      <trkpt lat="47.2862381210535" lon="4.99990686418872">
        <time>2019-05-17T03:23:32Z</time>
      </trkpt>
      <trkpt lat="47.2863641477262" lon="4.99997107233093">
        <time>2019-05-17T03:23:32Z</time>
      </trkpt>
      <trkpt lat="47.2864858210936" lon="5.00003529215437">
        <time>2019-05-17T03:23:32Z</time>
      </trkpt>
      <trkpt lat="47.2866015834962" lon="5.00009888837429">
        <time>2019-05-17T03:23:32Z</time>
      </trkpt>
      <trkpt lat="47.2867097511708" lon="5.0001611126069">
        <time>2019-05-17T03:23:32Z</time>
      </trkpt>
      <trkpt lat="47.2868087832926" lon="5.00022136951486">
        <time>2019-05-17T03:23:32Z</time>
      </trkpt>
      <trkpt lat="47.2868969774284" lon="5.00027895052551">
        <time>2019-05-17T03:23:32Z</time>
      </trkpt>
      <trkpt lat="47.286972813891" lon="5.00033311376812">
        <time>2019-05-17T03:23:32Z</time>
      </trkpt>
      <trkpt lat="47.287034570421" lon="5.00038321652065">
        <time>2019-05-17T03:23:32Z</time>
      </trkpt>
      <trkpt lat="47.2870884736428" lon="5.0004288964017">
        <time>2019-05-17T03:23:32Z</time>
      </trkpt>
      <trkpt lat="47.2871416732703" lon="5.00047018029506">
        <time>2019-05-17T03:23:32Z</time>
      </trkpt>
      <trkpt lat="47.2871941461251" lon="5.00050730346671">
        <time>2019-05-17T03:23:32Z</time>
      </trkpt>
      <trkpt lat="47.2872458844871" lon="5.00054060060524">
        <time>2019-05-17T03:23:32Z</time>
      </trkpt>
      <trkpt lat="47.287296832022" lon="5.00057010884016">
        <time>2019-05-17T03:23:32Z</time>
      </trkpt>
      <trkpt lat="47.2873469632377" lon="5.00059616360729">
        <time>2019-05-17T03:23:32Z</time>
      </trkpt>
      <trkpt lat="47.2873962564473" lon="5.00061891138408">
        <time>2019-05-17T03:23:32Z</time>
      </trkpt>
      <trkpt lat="47.2874447058362" lon="5.0006385801546">
        <time>2019-05-17T03:23:32Z</time>
      </trkpt>
      <trkpt lat="47.2874922703577" lon="5.0006554100083">
        <time>2019-05-17T03:23:32Z</time>
      </trkpt>
      <trkpt lat="47.2875388725218" lon="5.00066953730673">
        <time>2019-05-17T03:23:32Z</time>
      </trkpt>
      <trkpt lat="47.2875845262751" lon="5.00068119917487">
        <time>2019-05-17T03:23:32Z</time>
      </trkpt>
      <trkpt lat="47.2876292240261" lon="5.0006906765071">
        <time>2019-05-17T03:23:32Z</time>
      </trkpt>
      <trkpt lat="47.2876728903317" lon="5.00069811310746">
        <time>2019-05-17T03:23:32Z</time>
      </trkpt>
      <trkpt lat="47.2877155374754" lon="5.00070374602109">
        <time>2019-05-17T03:23:32Z</time>
      </trkpt>
      <trkpt lat="47.2877571073623" lon="5.00070771258046">
        <time>2019-05-17T03:23:32Z</time>
      </trkpt>
      <trkpt lat="47.2877975739617" lon="5.0007103473902">
        <time>2019-05-17T03:23:32Z</time>
      </trkpt>
      <trkpt lat="47.2878410734373" lon="5.00071469956348">
        <time>2019-05-17T03:23:32Z</time>
      </trkpt>
      <trkpt lat="47.2878908757555" lon="5.00072329565389">
        <time>2019-05-17T03:23:32Z</time>
      </trkpt>
      <trkpt lat="47.287945733189" lon="5.00073555740014">
        <time>2019-05-17T03:23:32Z</time>
      </trkpt>
      <trkpt lat="47.2880043981616" lon="5.0007508038184">
        <time>2019-05-17T03:23:32Z</time>
      </trkpt>
      <trkpt lat="47.2880656063215" lon="5.00076840771162">
        <time>2019-05-17T03:23:32Z</time>
      </trkpt>
      <trkpt lat="47.2881280708206" lon="5.00078782718085">
        <time>2019-05-17T03:23:32Z</time>
      </trkpt>
      <trkpt lat="47.288190583355" lon="5.00080833834667">
        <time>2019-05-17T03:23:32Z</time>
      </trkpt>
      <trkpt lat="47.2882518402651" lon="5.00082935851285">
        <time>2019-05-17T03:23:32Z</time>
      </trkpt>
      <trkpt lat="47.2883106123196" lon="5.0008503013502">
        <time>2019-05-17T03:23:32Z</time>
      </trkpt>
      <trkpt lat="47.2883656164223" lon="5.0008704384214">
        <time>2019-05-17T03:23:32Z</time>
      </trkpt>
      <trkpt lat="47.2884156237279" lon="5.00088919074523">
        <time>2019-05-17T03:23:32Z</time>
      </trkpt>
      <trkpt lat="47.2884593667313" lon="5.00090597170305">
        <time>2019-05-17T03:23:32Z</time>
      </trkpt>
      <trkpt lat="47.2884955627973" lon="5.0009201050502">
        <time>2019-05-17T03:23:32Z</time>
      </trkpt>
      <trkpt lat="47.2885229639674" lon="5.00093099861625">
        <time>2019-05-17T03:23:32Z</time>
      </trkpt>
      <trkpt lat="47.2885433946598" lon="5.00093919582802">
        <time>2019-05-17T03:23:32Z</time>
      </trkpt>
      <trkpt lat="47.288649057969" lon="5.00097719430603">
        <time>2019-05-17T03:23:32Z</time>
      </trkpt>
      <trkpt lat="47.2887517233627" lon="5.00101393140505">
        <time>2019-05-17T03:23:32Z</time>
      </trkpt>
      <trkpt lat="47.2888543534067" lon="5.00105061307254">
        <time>2019-05-17T03:23:32Z</time>
      </trkpt>
      <trkpt lat="47.2889570176798" lon="5.00108739768794">
        <time>2019-05-17T03:23:32Z</time>
      </trkpt>
      <trkpt lat="47.289059646453" lon="5.00112413338685">
        <time>2019-05-17T03:23:32Z</time>
      </trkpt>
      <trkpt lat="47.2891622757651" lon="5.00116086925436">
        <time>2019-05-17T03:23:32Z</time>
      </trkpt>
      <trkpt lat="47.2892649410642" lon="5.00119760787288">
        <time>2019-05-17T03:23:32Z</time>
      </trkpt>
      <trkpt lat="47.289367569961" lon="5.00123433666523">
        <time>2019-05-17T03:23:32Z</time>
      </trkpt>
      <trkpt lat="47.2894702169422" lon="5.00127107465414">
        <time>2019-05-17T03:23:32Z</time>
      </trkpt>
      <trkpt lat="47.289572863927" lon="5.00130781196967">
        <time>2019-05-17T03:23:32Z</time>
      </trkpt>
      <trkpt lat="47.2896755108967" lon="5.00134454942622">
        <time>2019-05-17T03:23:32Z</time>
      </trkpt>
      <trkpt lat="47.2898807866533" lon="5.00141801733546">
        <time>2019-05-17T03:23:32Z</time>
      </trkpt>
      <trkpt lat="47.2899834325059" lon="5.00145480163598">
        <time>2019-05-17T03:23:32Z</time>
      </trkpt>
      <trkpt lat="47.2900860793961" lon="5.00149154047107">
        <time>2019-05-17T03:23:32Z</time>
      </trkpt>
      <trkpt lat="47.2904322975759" lon="5.00159543942334">
        <time>2019-05-17T03:23:32Z</time>
      </trkpt>
      <trkpt lat="47.2906090049559" lon="5.00072578533856">
        <time>2019-05-17T03:23:32Z</time>
      </trkpt>
      <trkpt lat="47.2907523757998" lon="4.99989352582683">
        <time>2019-05-17T03:23:32Z</time>
      </trkpt>
      <trkpt lat="47.2907880633224" lon="4.99985275082383">
        <time>2019-05-17T03:23:32Z</time>
      </trkpt>
      <trkpt lat="47.2908288935149" lon="4.99980609892332">
        <time>2019-05-17T03:23:32Z</time>
      </trkpt>
      <trkpt lat="47.291124031011" lon="4.99993029268578">
        <time>2019-05-17T03:23:32Z</time>
      </trkpt>
      <trkpt lat="47.2920825965976" lon="5.00036127269146">
        <time>2019-05-17T03:23:32Z</time>
      </trkpt>
      <trkpt lat="47.2921662637367" lon="4.99996397663505">
        <time>2019-05-17T03:23:32Z</time>
      </trkpt>
      <trkpt lat="47.2924092675605" lon="5.00019506763568">
        <time>2019-05-17T03:23:32Z</time>
      </trkpt>
      <trkpt lat="47.2925799585923" lon="5.00033131349506">
        <time>2019-05-17T03:23:32Z</time>
      </trkpt>
      <trkpt lat="47.2926038299031" lon="5.00034717019393">
        <time>2019-05-17T03:23:32Z</time>
      </trkpt>
      <trkpt lat="47.2927878573082" lon="5.00046941544414">
        <time>2019-05-17T03:23:32Z</time>
      </trkpt>
      <trkpt lat="47.2929940733926" lon="5.00068042870948">
        <time>2019-05-17T03:23:32Z</time>
      </trkpt>
      <trkpt lat="47.2933436506242" lon="5.00113582447371">
        <time>2019-05-17T03:23:32Z</time>
      </trkpt>
    </trkseg>
  </trk>
  <trk>
    <name>Chemin des Grands Crus (1er tronçon : de Dijon à Villers-la-Faye)</name>
    <trkseg>
      <trkpt lat="47.231329655018" lon="4.96444591563139">
        <time>2019-05-17T03:23:32Z</time>
      </trkpt>
      <trkpt lat="47.2313571811642" lon="4.96443381699157">
        <time>2019-05-17T03:23:32Z</time>
      </trkpt>
      <trkpt lat="47.2314058238848" lon="4.96443157482276">
        <time>2019-05-17T03:23:32Z</time>
      </trkpt>
    </trkseg>
  </trk>
  <trk>
    <name>Chemin des Grands Crus (1er tronçon : de Dijon à Villers-la-Faye)</name>
    <trkseg>
      <trkpt lat="47.0896763561899" lon="4.86990988257981">
        <time>2019-05-17T03:23:32Z</time>
      </trkpt>
      <trkpt lat="47.0897110289317" lon="4.87008029113809">
        <time>2019-05-17T03:23:32Z</time>
      </trkpt>
      <trkpt lat="47.0896875022097" lon="4.87027608010382">
        <time>2019-05-17T03:23:32Z</time>
      </trkpt>
      <trkpt lat="47.0896819305226" lon="4.87052897424876">
        <time>2019-05-17T03:23:32Z</time>
      </trkpt>
      <trkpt lat="47.0897326995291" lon="4.87084078679265">
        <time>2019-05-17T03:23:32Z</time>
      </trkpt>
      <trkpt lat="47.089857763784" lon="4.87126862304672">
        <time>2019-05-17T03:23:32Z</time>
      </trkpt>
      <trkpt lat="47.0899271044329" lon="4.87160944326378">
        <time>2019-05-17T03:23:32Z</time>
      </trkpt>
      <trkpt lat="47.0900868348389" lon="4.87220769476792">
        <time>2019-05-17T03:23:32Z</time>
      </trkpt>
      <trkpt lat="47.0902478014284" lon="4.87274975114002">
        <time>2019-05-17T03:23:32Z</time>
      </trkpt>
      <trkpt lat="47.0904273386905" lon="4.87332081676602">
        <time>2019-05-17T03:23:32Z</time>
      </trkpt>
      <trkpt lat="47.0906130720434" lon="4.87361088853128">
        <time>2019-05-17T03:23:32Z</time>
      </trkpt>
      <trkpt lat="47.0908192380334" lon="4.87384567067">
        <time>2019-05-17T03:23:32Z</time>
      </trkpt>
      <trkpt lat="47.0910458364593" lon="4.87402516197562">
        <time>2019-05-17T03:23:32Z</time>
      </trkpt>
      <trkpt lat="47.0912742945741" lon="4.8741203543838">
        <time>2019-05-17T03:23:32Z</time>
      </trkpt>
      <trkpt lat="47.0915027525961" lon="4.87421554760219">
        <time>2019-05-17T03:23:32Z</time>
      </trkpt>
      <trkpt lat="47.0917702165058" lon="4.87428445704041">
        <time>2019-05-17T03:23:32Z</time>
      </trkpt>
      <trkpt lat="47.0920754473803" lon="4.87438328307827">
        <time>2019-05-17T03:23:32Z</time>
      </trkpt>
      <trkpt lat="47.0924011107023" lon="4.87442681633437">
        <time>2019-05-17T03:23:32Z</time>
      </trkpt>
      <trkpt lat="47.0926506215897" lon="4.8744386181501">
        <time>2019-05-17T03:23:32Z</time>
      </trkpt>
      <trkpt lat="47.0927141793798" lon="4.87443240402215">
        <time>2019-05-17T03:23:32Z</time>
      </trkpt>
      <trkpt lat="47.0927796904552" lon="4.87442184873134">
        <time>2019-05-17T03:23:32Z</time>
      </trkpt>
      <trkpt lat="47.0929205661071" lon="4.87439512567531">
        <time>2019-05-17T03:23:32Z</time>
      </trkpt>
      <trkpt lat="47.0931323110633" lon="4.87437701097077">
        <time>2019-05-17T03:23:32Z</time>
      </trkpt>
      <trkpt lat="47.093248710089" lon="4.87432625531193">
        <time>2019-05-17T03:23:32Z</time>
      </trkpt>
      <trkpt lat="47.093383061997" lon="4.8743326099668">
        <time>2019-05-17T03:23:32Z</time>
      </trkpt>
      <trkpt lat="47.0935929467931" lon="4.87439879890958">
        <time>2019-05-17T03:23:32Z</time>
      </trkpt>
      <trkpt lat="47.0937093458139" lon="4.87434804286246">
        <time>2019-05-17T03:23:32Z</time>
      </trkpt>
      <trkpt lat="47.0939210901633" lon="4.87432992767986">
        <time>2019-05-17T03:23:32Z</time>
      </trkpt>
      <trkpt lat="47.0942288004411" lon="4.87431635145423">
        <time>2019-05-17T03:23:32Z</time>
      </trkpt>
      <trkpt lat="47.0945173177443" lon="4.87430186645037">
        <time>2019-05-17T03:23:32Z</time>
      </trkpt>
      <trkpt lat="47.0947259623861" lon="4.87442426082698">
        <time>2019-05-17T03:23:32Z</time>
      </trkpt>
      <trkpt lat="47.0949346069039" lon="4.87454665534354">
        <time>2019-05-17T03:23:32Z</time>
      </trkpt>
      <trkpt lat="47.0950268516083" lon="4.87471980749212">
        <time>2019-05-17T03:23:32Z</time>
      </trkpt>
      <trkpt lat="47.0951034808203" lon="4.87485671506401">
        <time>2019-05-17T03:23:32Z</time>
      </trkpt>
      <trkpt lat="47.0951562421544" lon="4.87495098092176">
        <time>2019-05-17T03:23:32Z</time>
      </trkpt>
      <trkpt lat="47.0953760488638" lon="4.87456753752286">
        <time>2019-05-17T03:23:32Z</time>
      </trkpt>
      <trkpt lat="47.0954980283454" lon="4.87426385905124">
        <time>2019-05-17T03:23:32Z</time>
      </trkpt>
      <trkpt lat="47.0957970847892" lon="4.87377163138577">
        <time>2019-05-17T03:23:32Z</time>
      </trkpt>
      <trkpt lat="47.0959363956002" lon="4.87355316483151">
        <time>2019-05-17T03:23:32Z</time>
      </trkpt>
      <trkpt lat="47.0959778812277" lon="4.87341446668646">
        <time>2019-05-17T03:23:32Z</time>
      </trkpt>
      <trkpt lat="47.0960571328258" lon="4.87330568645998">
        <time>2019-05-17T03:23:32Z</time>
      </trkpt>
      <trkpt lat="47.0961165715989" lon="4.873224100883">
        <time>2019-05-17T03:23:32Z</time>
      </trkpt>
      <trkpt lat="47.0961945840912" lon="4.87317152503119">
        <time>2019-05-17T03:23:32Z</time>
      </trkpt>
      <trkpt lat="47.0962905494717" lon="4.8731760622407">
        <time>2019-05-17T03:23:32Z</time>
      </trkpt>
      <trkpt lat="47.096405088599" lon="4.87320961031073">
        <time>2019-05-17T03:23:32Z</time>
      </trkpt>
      <trkpt lat="47.0965382009276" lon="4.87327216781257">
        <time>2019-05-17T03:23:32Z</time>
      </trkpt>
      <trkpt lat="47.0967920504855" lon="4.87308724421134">
        <time>2019-05-17T03:23:32Z</time>
      </trkpt>
      <trkpt lat="47.0969666479789" lon="4.87301110166064">
        <time>2019-05-17T03:23:32Z</time>
      </trkpt>
      <trkpt lat="47.0972793153035" lon="4.87277269047399">
        <time>2019-05-17T03:23:32Z</time>
      </trkpt>
      <trkpt lat="47.0976860892101" lon="4.87262312326445">
        <time>2019-05-17T03:23:32Z</time>
      </trkpt>
      <trkpt lat="47.0976706138268" lon="4.87245359497516">
        <time>2019-05-17T03:23:32Z</time>
      </trkpt>
      <trkpt lat="47.0977337691819" lon="4.87220338476118">
        <time>2019-05-17T03:23:32Z</time>
      </trkpt>
      <trkpt lat="47.0978130195975" lon="4.87209459918832">
        <time>2019-05-17T03:23:32Z</time>
      </trkpt>
      <trkpt lat="47.0980099066201" lon="4.87187884029933">
        <time>2019-05-17T03:23:32Z</time>
      </trkpt>
      <trkpt lat="47.0982074126009" lon="4.87163497630172">
        <time>2019-05-17T03:23:32Z</time>
      </trkpt>
      <trkpt lat="47.0983436231324" lon="4.87155701323008">
        <time>2019-05-17T03:23:32Z</time>
      </trkpt>
      <trkpt lat="47.0984006330158" lon="4.87151858816059">
        <time>2019-05-17T03:23:32Z</time>
      </trkpt>
      <trkpt lat="47.0986166622227" lon="4.87137298210428">
        <time>2019-05-17T03:23:32Z</time>
      </trkpt>
      <trkpt lat="47.0989256109227" lon="4.87130317914419">
        <time>2019-05-17T03:23:32Z</time>
      </trkpt>
      <trkpt lat="47.0991974110625" lon="4.87117535283279">
        <time>2019-05-17T03:23:32Z</time>
      </trkpt>
      <trkpt lat="47.0995069782766" lon="4.87107744374112">
        <time>2019-05-17T03:23:32Z</time>
      </trkpt>
      <trkpt lat="47.0998938517143" lon="4.87098169079547">
        <time>2019-05-17T03:23:32Z</time>
      </trkpt>
      <trkpt lat="47.10003309652" lon="4.87094172364055">
        <time>2019-05-17T03:23:32Z</time>
      </trkpt>
      <trkpt lat="47.1001901876364" lon="4.87084824899824">
        <time>2019-05-17T03:23:32Z</time>
      </trkpt>
      <trkpt lat="47.1004693979748" lon="4.87068487083727">
        <time>2019-05-17T03:23:32Z</time>
      </trkpt>
      <trkpt lat="47.1007119723314" lon="4.87062065735524">
        <time>2019-05-17T03:23:32Z</time>
      </trkpt>
      <trkpt lat="47.1009367838714" lon="4.87058082756748">
        <time>2019-05-17T03:23:32Z</time>
      </trkpt>
      <trkpt lat="47.1011599301473" lon="4.87061659225157">
        <time>2019-05-17T03:23:32Z</time>
      </trkpt>
      <trkpt lat="47.1015024207055" lon="4.87070844430894">
        <time>2019-05-17T03:23:32Z</time>
      </trkpt>
      <trkpt lat="47.1018271483464" lon="4.87082468213698">
        <time>2019-05-17T03:23:32Z</time>
      </trkpt>
      <trkpt lat="47.1021185701541" lon="4.87088889937322">
        <time>2019-05-17T03:23:32Z</time>
      </trkpt>
      <trkpt lat="47.1024602228572" lon="4.87088003852356">
        <time>2019-05-17T03:23:32Z</time>
      </trkpt>
      <trkpt lat="47.1024222035421" lon="4.87118071756618">
        <time>2019-05-17T03:23:32Z</time>
      </trkpt>
      <trkpt lat="47.1023261698714" lon="4.87163022853426">
        <time>2019-05-17T03:23:32Z</time>
      </trkpt>
      <trkpt lat="47.1022107050987" lon="4.87217971848069">
        <time>2019-05-17T03:23:32Z</time>
      </trkpt>
      <trkpt lat="47.102132431286" lon="4.87260484097273">
        <time>2019-05-17T03:23:32Z</time>
      </trkpt>
      <trkpt lat="47.1020406695582" lon="4.87292315238748">
        <time>2019-05-17T03:23:32Z</time>
      </trkpt>
      <trkpt lat="47.1044560183473" lon="4.87347146873208">
        <time>2019-05-17T03:23:32Z</time>
      </trkpt>
      <trkpt lat="47.1045009917239" lon="4.87299430272604">
        <time>2019-05-17T03:23:32Z</time>
      </trkpt>
      <trkpt lat="47.104638653699" lon="4.87300081190822">
        <time>2019-05-17T03:23:32Z</time>
      </trkpt>
      <trkpt lat="47.1047252482393" lon="4.87297968052752">
        <time>2019-05-17T03:23:32Z</time>
      </trkpt>
      <trkpt lat="47.1048806734798" lon="4.87296180362546">
        <time>2019-05-17T03:23:32Z</time>
      </trkpt>
      <trkpt lat="47.1050355431181" lon="4.87296912641252">
        <time>2019-05-17T03:23:32Z</time>
      </trkpt>
      <trkpt lat="47.1052250474881" lon="4.8729681509853">
        <time>2019-05-17T03:23:32Z</time>
      </trkpt>
      <trkpt lat="47.1052198280336" lon="4.87320487628453">
        <time>2019-05-17T03:23:32Z</time>
      </trkpt>
      <trkpt lat="47.1052014885814" lon="4.87403647598263">
        <time>2019-05-17T03:23:32Z</time>
      </trkpt>
      <trkpt lat="47.1052053546808" lon="4.8746420898823">
        <time>2019-05-17T03:23:32Z</time>
      </trkpt>
      <trkpt lat="47.1052153343349" lon="4.8749705038605">
        <time>2019-05-17T03:23:32Z</time>
      </trkpt>
      <trkpt lat="47.1052997050623" lon="4.87505017501444">
        <time>2019-05-17T03:23:32Z</time>
      </trkpt>
      <trkpt lat="47.1054012833913" lon="4.87513066075962">
        <time>2019-05-17T03:23:32Z</time>
      </trkpt>
      <trkpt lat="47.1053957223914" lon="4.87538266177416">
        <time>2019-05-17T03:23:32Z</time>
      </trkpt>
      <trkpt lat="47.1053912732051" lon="4.8755842620612">
        <time>2019-05-17T03:23:32Z</time>
      </trkpt>
      <trkpt lat="47.1054206827581" lon="4.87581269136161">
        <time>2019-05-17T03:23:32Z</time>
      </trkpt>
      <trkpt lat="47.105454656544" lon="4.87586576859082">
        <time>2019-05-17T03:23:32Z</time>
      </trkpt>
      <trkpt lat="47.105487288989" lon="4.87591675034364">
        <time>2019-05-17T03:23:32Z</time>
      </trkpt>
      <trkpt lat="47.1055694334055" lon="4.87609722422106">
        <time>2019-05-17T03:23:32Z</time>
      </trkpt>
      <trkpt lat="47.1059890564086" lon="4.876596397203">
        <time>2019-05-17T03:23:32Z</time>
      </trkpt>
      <trkpt lat="47.105803624444" lon="4.87719305421201">
        <time>2019-05-17T03:23:32Z</time>
      </trkpt>
      <trkpt lat="47.1056898031207" lon="4.87766696764157">
        <time>2019-05-17T03:23:32Z</time>
      </trkpt>
      <trkpt lat="47.1055065920121" lon="4.87816281776375">
        <time>2019-05-17T03:23:32Z</time>
      </trkpt>
      <trkpt lat="47.1054365813276" lon="4.87821013601523">
        <time>2019-05-17T03:23:32Z</time>
      </trkpt>
      <trkpt lat="47.1053816839535" lon="4.87835871056777">
        <time>2019-05-17T03:23:32Z</time>
      </trkpt>
      <trkpt lat="47.1053261634674" lon="4.87853266436584">
        <time>2019-05-17T03:23:32Z</time>
      </trkpt>
      <trkpt lat="47.105217348665" lon="4.87877977159008">
        <time>2019-05-17T03:23:32Z</time>
      </trkpt>
      <trkpt lat="47.1050924395466" lon="4.87897566190254">
        <time>2019-05-17T03:23:32Z</time>
      </trkpt>
      <trkpt lat="47.1049575355022" lon="4.87891455111755">
        <time>2019-05-17T03:23:32Z</time>
      </trkpt>
      <trkpt lat="47.1047411681329" lon="4.87937861304377">
        <time>2019-05-17T03:23:32Z</time>
      </trkpt>
      <trkpt lat="47.1046038695265" lon="4.87981767448495">
        <time>2019-05-17T03:23:32Z</time>
      </trkpt>
      <trkpt lat="47.1044668872783" lon="4.88024237518157">
        <time>2019-05-17T03:23:32Z</time>
      </trkpt>
      <trkpt lat="47.1043605869072" lon="4.88061103633655">
        <time>2019-05-17T03:23:32Z</time>
      </trkpt>
      <trkpt lat="47.1041976810198" lon="4.88087639901386">
        <time>2019-05-17T03:23:32Z</time>
      </trkpt>
      <trkpt lat="47.1040265581475" lon="4.88106950544059">
        <time>2019-05-17T03:23:32Z</time>
      </trkpt>
      <trkpt lat="47.1036387816411" lon="4.88129545169142">
        <time>2019-05-17T03:23:32Z</time>
      </trkpt>
      <trkpt lat="47.1034309808456" lon="4.88137183154209">
        <time>2019-05-17T03:23:32Z</time>
      </trkpt>
      <trkpt lat="47.1033038391051" lon="4.88135142762054">
        <time>2019-05-17T03:23:32Z</time>
      </trkpt>
      <trkpt lat="47.1032634643636" lon="4.88123220418432">
        <time>2019-05-17T03:23:32Z</time>
      </trkpt>
      <trkpt lat="47.1032022854695" lon="4.88115955150932">
        <time>2019-05-17T03:23:32Z</time>
      </trkpt>
      <trkpt lat="47.1031025883052" lon="4.88116433386413">
        <time>2019-05-17T03:23:32Z</time>
      </trkpt>
      <trkpt lat="47.10302172506" lon="4.88119854392901">
        <time>2019-05-17T03:23:32Z</time>
      </trkpt>
      <trkpt lat="47.1029456078916" lon="4.88121395615671">
        <time>2019-05-17T03:23:32Z</time>
      </trkpt>
      <trkpt lat="47.1028060699749" lon="4.8812580643587">
        <time>2019-05-17T03:23:32Z</time>
      </trkpt>
      <trkpt lat="47.1028269175992" lon="4.88139221227699">
        <time>2019-05-17T03:23:32Z</time>
      </trkpt>
      <trkpt lat="47.1029469342871" lon="4.88193688498175">
        <time>2019-05-17T03:23:32Z</time>
      </trkpt>
      <trkpt lat="47.1028041043845" lon="4.88196991003003">
        <time>2019-05-17T03:23:32Z</time>
      </trkpt>
      <trkpt lat="47.1026470049215" lon="4.88206335588734">
        <time>2019-05-17T03:23:32Z</time>
      </trkpt>
      <trkpt lat="47.1024399204677" lon="4.88226964764742">
        <time>2019-05-17T03:23:32Z</time>
      </trkpt>
      <trkpt lat="47.1022104074566" lon="4.88240115852867">
        <time>2019-05-17T03:23:32Z</time>
      </trkpt>
      <trkpt lat="47.1019334430874" lon="4.88254224788083">
        <time>2019-05-17T03:23:32Z</time>
      </trkpt>
      <trkpt lat="47.1021266815421" lon="4.88302311970127">
        <time>2019-05-17T03:23:32Z</time>
      </trkpt>
      <trkpt lat="47.1023622390726" lon="4.88346022929592">
        <time>2019-05-17T03:23:32Z</time>
      </trkpt>
      <trkpt lat="47.1026099287569" lon="4.88386451328219">
        <time>2019-05-17T03:23:32Z</time>
      </trkpt>
      <trkpt lat="47.1028324566266" lon="4.88411727646424">
        <time>2019-05-17T03:23:32Z</time>
      </trkpt>
      <trkpt lat="47.1029943478749" lon="4.88427529389397">
        <time>2019-05-17T03:23:32Z</time>
      </trkpt>
      <trkpt lat="47.1032176139617" lon="4.88449468887355">
        <time>2019-05-17T03:23:32Z</time>
      </trkpt>
      <trkpt lat="47.103340733553" lon="4.88460075740387">
        <time>2019-05-17T03:23:32Z</time>
      </trkpt>
      <trkpt lat="47.1034019004517" lon="4.88464703135524">
        <time>2019-05-17T03:23:32Z</time>
      </trkpt>
      <trkpt lat="47.1034585257726" lon="4.88468986906863">
        <time>2019-05-17T03:23:32Z</time>
      </trkpt>
      <trkpt lat="47.1034998761743" lon="4.88477773697091">
        <time>2019-05-17T03:23:32Z</time>
      </trkpt>
      <trkpt lat="47.1034959687531" lon="4.88495413041157">
        <time>2019-05-17T03:23:32Z</time>
      </trkpt>
      <trkpt lat="47.1034754117204" lon="4.88510450737508">
        <time>2019-05-17T03:23:32Z</time>
      </trkpt>
      <trkpt lat="47.1034204392988" lon="4.88525324910976">
        <time>2019-05-17T03:23:32Z</time>
      </trkpt>
      <trkpt lat="47.1033493751769" lon="4.88535077435554">
        <time>2019-05-17T03:23:32Z</time>
      </trkpt>
      <trkpt lat="47.1031933896178" lon="4.88539381448189">
        <time>2019-05-17T03:23:32Z</time>
      </trkpt>
      <trkpt lat="47.1027948215898" lon="4.88550100284797">
        <time>2019-05-17T03:23:32Z</time>
      </trkpt>
      <trkpt lat="47.1026887836703" lon="4.88562209068839">
        <time>2019-05-17T03:23:32Z</time>
      </trkpt>
      <trkpt lat="47.1025139146789" lon="4.88573990722582">
        <time>2019-05-17T03:23:32Z</time>
      </trkpt>
      <trkpt lat="47.1021492030139" lon="4.88587392623483">
        <time>2019-05-17T03:23:32Z</time>
      </trkpt>
      <trkpt lat="47.1018905295083" lon="4.8858868583845">
        <time>2019-05-17T03:23:32Z</time>
      </trkpt>
      <trkpt lat="47.101632972826" lon="4.88584939428813">
        <time>2019-05-17T03:23:32Z</time>
      </trkpt>
      <trkpt lat="47.1015641418697" lon="4.88584612338527">
        <time>2019-05-17T03:23:32Z</time>
      </trkpt>
      <trkpt lat="47.1015280513984" lon="4.8859200819862">
        <time>2019-05-17T03:23:32Z</time>
      </trkpt>
      <trkpt lat="47.1015424667532" lon="4.88604689062924">
        <time>2019-05-17T03:23:32Z</time>
      </trkpt>
      <trkpt lat="47.1015718555735" lon="4.88627530928022">
        <time>2019-05-17T03:23:32Z</time>
      </trkpt>
      <trkpt lat="47.1016311909961" lon="4.88670695011931">
        <time>2019-05-17T03:23:32Z</time>
      </trkpt>
      <trkpt lat="47.1017021451115" lon="4.8873913916616">
        <time>2019-05-17T03:23:32Z</time>
      </trkpt>
      <trkpt lat="47.1017641531352" lon="4.88738227212553">
        <time>2019-05-17T03:23:32Z</time>
      </trkpt>
      <trkpt lat="47.1019613775654" lon="4.88735326779711">
        <time>2019-05-17T03:23:32Z</time>
      </trkpt>
      <trkpt lat="47.1022378175575" lon="4.88731596257528">
        <time>2019-05-17T03:23:32Z</time>
      </trkpt>
      <trkpt lat="47.1023932456819" lon="4.88729812804258">
        <time>2019-05-17T03:23:32Z</time>
      </trkpt>
      <trkpt lat="47.1027368397629" lon="4.88733969068891">
        <time>2019-05-17T03:23:32Z</time>
      </trkpt>
      <trkpt lat="47.1032336017236" lon="4.88734364690578">
        <time>2019-05-17T03:23:32Z</time>
      </trkpt>
      <trkpt lat="47.1033740824032" lon="4.88734476629054">
        <time>2019-05-17T03:23:32Z</time>
      </trkpt>
      <trkpt lat="47.1034874568322" lon="4.88728452862276">
        <time>2019-05-17T03:23:32Z</time>
      </trkpt>
      <trkpt lat="47.1041584834891" lon="4.88692799856372">
        <time>2019-05-17T03:23:32Z</time>
      </trkpt>
      <trkpt lat="47.1047491302769" lon="4.88670381861211">
        <time>2019-05-17T03:23:32Z</time>
      </trkpt>
      <trkpt lat="47.1052715047862" lon="4.88645116124101">
        <time>2019-05-17T03:23:32Z</time>
      </trkpt>
      <trkpt lat="47.1059487474031" lon="4.8862058608706">
        <time>2019-05-17T03:23:32Z</time>
      </trkpt>
      <trkpt lat="47.1059801012898" lon="4.8862013808814">
        <time>2019-05-17T03:23:32Z</time>
      </trkpt>
      <trkpt lat="47.1061892919295" lon="4.88617149083708">
        <time>2019-05-17T03:23:32Z</time>
      </trkpt>
      <trkpt lat="47.1063461988104" lon="4.88614907117162">
        <time>2019-05-17T03:23:32Z</time>
      </trkpt>
      <trkpt lat="47.1069140515421" lon="4.88617606189586">
        <time>2019-05-17T03:23:32Z</time>
      </trkpt>
      <trkpt lat="47.1070150635201" lon="4.88628177251454">
        <time>2019-05-17T03:23:32Z</time>
      </trkpt>
      <trkpt lat="47.1072526194351" lon="4.88644442877248">
        <time>2019-05-17T03:23:32Z</time>
      </trkpt>
      <trkpt lat="47.1076583411132" lon="4.88679167322248">
        <time>2019-05-17T03:23:32Z</time>
      </trkpt>
      <trkpt lat="47.1080646209293" lon="4.88711372269319">
        <time>2019-05-17T03:23:32Z</time>
      </trkpt>
      <trkpt lat="47.1084731342679" lon="4.88733497117666">
        <time>2019-05-17T03:23:32Z</time>
      </trkpt>
      <trkpt lat="47.1089338291375" lon="4.88753347671955">
        <time>2019-05-17T03:23:32Z</time>
      </trkpt>
      <trkpt lat="47.109326811046" lon="4.8876783085981">
        <time>2019-05-17T03:23:32Z</time>
      </trkpt>
      <trkpt lat="47.1101266272356" lon="4.88812001017008">
        <time>2019-05-17T03:23:32Z</time>
      </trkpt>
      <trkpt lat="47.1109775062797" lon="4.88858938276685">
        <time>2019-05-17T03:23:32Z</time>
      </trkpt>
      <trkpt lat="47.1112822116343" lon="4.88883094412713">
        <time>2019-05-17T03:23:32Z</time>
      </trkpt>
      <trkpt lat="47.1118588837207" lon="4.88923682946122">
        <time>2019-05-17T03:23:32Z</time>
      </trkpt>
      <trkpt lat="47.1121624697678" lon="4.88952880442677">
        <time>2019-05-17T03:23:32Z</time>
      </trkpt>
      <trkpt lat="47.1123300715931" lon="4.88973862026156">
        <time>2019-05-17T03:23:32Z</time>
      </trkpt>
      <trkpt lat="47.1124643771545" lon="4.88989639282506">
        <time>2019-05-17T03:23:32Z</time>
      </trkpt>
      <trkpt lat="47.1125837117347" lon="4.88995253346706">
        <time>2019-05-17T03:23:32Z</time>
      </trkpt>
      <trkpt lat="47.1128548361364" lon="4.89001533527647">
        <time>2019-05-17T03:23:32Z</time>
      </trkpt>
      <trkpt lat="47.1130565746176" lon="4.89037872800911">
        <time>2019-05-17T03:23:32Z</time>
      </trkpt>
      <trkpt lat="47.1133401521679" lon="4.89079591483342">
        <time>2019-05-17T03:23:32Z</time>
      </trkpt>
      <trkpt lat="47.1136925587596" lon="4.89121638458909">
        <time>2019-05-17T03:23:32Z</time>
      </trkpt>
      <trkpt lat="47.1140954674437" lon="4.89168972770934">
        <time>2019-05-17T03:23:32Z</time>
      </trkpt>
      <trkpt lat="47.1144650781921" lon="4.89211102917663">
        <time>2019-05-17T03:23:32Z</time>
      </trkpt>
      <trkpt lat="47.1148857504871" lon="4.89256000169625">
        <time>2019-05-17T03:23:32Z</time>
      </trkpt>
      <trkpt lat="47.1151887673289" lon="4.89287721707124">
        <time>2019-05-17T03:23:32Z</time>
      </trkpt>
      <trkpt lat="47.1154596089208" lon="4.8930919767612">
        <time>2019-05-17T03:23:32Z</time>
      </trkpt>
      <trkpt lat="47.115795359529" lon="4.8934864531783">
        <time>2019-05-17T03:23:32Z</time>
      </trkpt>
      <trkpt lat="47.1161161739676" lon="4.89396517956313">
        <time>2019-05-17T03:23:32Z</time>
      </trkpt>
      <trkpt lat="47.1161621625505" lon="4.89403380517955">
        <time>2019-05-17T03:23:32Z</time>
      </trkpt>
      <trkpt lat="47.1159839240924" lon="4.89430285297978">
        <time>2019-05-17T03:23:32Z</time>
      </trkpt>
      <trkpt lat="47.1157890384184" lon="4.89454587285646">
        <time>2019-05-17T03:23:32Z</time>
      </trkpt>
      <trkpt lat="47.1156102383657" lon="4.89484012161622">
        <time>2019-05-17T03:23:32Z</time>
      </trkpt>
      <trkpt lat="47.1154314381063" lon="4.89513436844151">
        <time>2019-05-17T03:23:32Z</time>
      </trkpt>
      <trkpt lat="47.1152715260809" lon="4.89535382039672">
        <time>2019-05-17T03:23:32Z</time>
      </trkpt>
      <trkpt lat="47.1147951506324" lon="4.89586094357281">
        <time>2019-05-17T03:23:32Z</time>
      </trkpt>
      <trkpt lat="47.1146535654027" lon="4.89603080379624">
        <time>2019-05-17T03:23:32Z</time>
      </trkpt>
      <trkpt lat="47.1145630427383" lon="4.89622833091088">
        <time>2019-05-17T03:23:32Z</time>
      </trkpt>
      <trkpt lat="47.1145069340888" lon="4.89642750076029">
        <time>2019-05-17T03:23:32Z</time>
      </trkpt>
      <trkpt lat="47.1144169715105" lon="4.89659982271412">
        <time>2019-05-17T03:23:32Z</time>
      </trkpt>
      <trkpt lat="47.1142897885442" lon="4.89689652065887">
        <time>2019-05-17T03:23:32Z</time>
      </trkpt>
      <trkpt lat="47.1142153500647" lon="4.89714527500809">
        <time>2019-05-17T03:23:32Z</time>
      </trkpt>
      <trkpt lat="47.11419028961" lon="4.89749730885724">
        <time>2019-05-17T03:23:32Z</time>
      </trkpt>
      <trkpt lat="47.1141858017016" lon="4.89769894034235">
        <time>2019-05-17T03:23:32Z</time>
      </trkpt>
      <trkpt lat="47.1139353582596" lon="4.89811590115439">
        <time>2019-05-17T03:23:32Z</time>
      </trkpt>
      <trkpt lat="47.113755987824" lon="4.89843533147692">
        <time>2019-05-17T03:23:32Z</time>
      </trkpt>
      <trkpt lat="47.1134544805697" lon="4.89882461663805">
        <time>2019-05-17T03:23:32Z</time>
      </trkpt>
      <trkpt lat="47.1131890708899" lon="4.89913993093229">
        <time>2019-05-17T03:23:32Z</time>
      </trkpt>
      <trkpt lat="47.1129919287298" lon="4.89948373438507">
        <time>2019-05-17T03:23:32Z</time>
      </trkpt>
      <trkpt lat="47.1127975928542" lon="4.89970151871105">
        <time>2019-05-17T03:23:32Z</time>
      </trkpt>
      <trkpt lat="47.112639356467" lon="4.89984533703768">
        <time>2019-05-17T03:23:32Z</time>
      </trkpt>
      <trkpt lat="47.1124994503689" lon="4.89993957009206">
        <time>2019-05-17T03:23:32Z</time>
      </trkpt>
      <trkpt lat="47.1123606671988" lon="4.89998339756597">
        <time>2019-05-17T03:23:32Z</time>
      </trkpt>
      <trkpt lat="47.1121885915969" lon="4.8999751733811">
        <time>2019-05-17T03:23:32Z</time>
      </trkpt>
      <trkpt lat="47.1119993090896" lon="4.89996612687045">
        <time>2019-05-17T03:23:32Z</time>
      </trkpt>
      <trkpt lat="47.1118461254245" lon="4.89988311625565">
        <time>2019-05-17T03:23:32Z</time>
      </trkpt>
      <trkpt lat="47.1116596502478" lon="4.89974805701305">
        <time>2019-05-17T03:23:32Z</time>
      </trkpt>
      <trkpt lat="47.1115070278475" lon="4.89963984499274">
        <time>2019-05-17T03:23:32Z</time>
      </trkpt>
      <trkpt lat="47.1113183067073" lon="4.89960559731464">
        <time>2019-05-17T03:23:32Z</time>
      </trkpt>
      <trkpt lat="47.1111634384862" lon="4.89959819677466">
        <time>2019-05-17T03:23:32Z</time>
      </trkpt>
      <trkpt lat="47.1110407399907" lon="4.89969325018403">
        <time>2019-05-17T03:23:32Z</time>
      </trkpt>
      <trkpt lat="47.1109180413945" lon="4.89978830397047">
        <time>2019-05-17T03:23:32Z</time>
      </trkpt>
      <trkpt lat="47.110793096723" lon="4.89998416618555">
        <time>2019-05-17T03:23:32Z</time>
      </trkpt>
      <trkpt lat="47.1107203361844" lon="4.90015729269774">
        <time>2019-05-17T03:23:32Z</time>
      </trkpt>
      <trkpt lat="47.1106047354937" lon="4.90070680717736">
        <time>2019-05-17T03:23:32Z</time>
      </trkpt>
      <trkpt lat="47.1105302881514" lon="4.90095553913324">
        <time>2019-05-17T03:23:32Z</time>
      </trkpt>
      <trkpt lat="47.1104391951665" lon="4.90117824480016">
        <time>2019-05-17T03:23:32Z</time>
      </trkpt>
      <trkpt lat="47.1103653086245" lon="4.901401773336">
        <time>2019-05-17T03:23:32Z</time>
      </trkpt>
      <trkpt lat="47.1102747760835" lon="4.90159927558012">
        <time>2019-05-17T03:23:32Z</time>
      </trkpt>
      <trkpt lat="47.1101498283088" lon="4.90179513123112">
        <time>2019-05-17T03:23:32Z</time>
      </trkpt>
      <trkpt lat="47.1099749436786" lon="4.90191291147256">
        <time>2019-05-17T03:23:32Z</time>
      </trkpt>
      <trkpt lat="47.1098011822872" lon="4.9019802866531">
        <time>2019-05-17T03:23:32Z</time>
      </trkpt>
      <trkpt lat="47.1095585910587" lon="4.90204436925831">
        <time>2019-05-17T03:23:32Z</time>
      </trkpt>
      <trkpt lat="47.1092471699668" lon="4.90210515989799">
        <time>2019-05-17T03:23:32Z</time>
      </trkpt>
      <trkpt lat="47.1090389935301" lon="4.90217088740877">
        <time>2019-05-17T03:23:32Z</time>
      </trkpt>
      <trkpt lat="47.1089507077182" lon="4.90226757817596">
        <time>2019-05-17T03:23:32Z</time>
      </trkpt>
      <trkpt lat="47.1087053060688" lon="4.90245766532753">
        <time>2019-05-17T03:23:32Z</time>
      </trkpt>
      <trkpt lat="47.1086522024316" lon="4.90258748381481">
        <time>2019-05-17T03:23:32Z</time>
      </trkpt>
      <trkpt lat="47.1086142095779" lon="4.90268036084502">
        <time>2019-05-17T03:23:32Z</time>
      </trkpt>
      <trkpt lat="47.1086113989919" lon="4.90280636746677">
        <time>2019-05-17T03:23:32Z</time>
      </trkpt>
      <trkpt lat="47.1089349692208" lon="4.90297321833452">
        <time>2019-05-17T03:23:32Z</time>
      </trkpt>
      <trkpt lat="47.1091352754526" lon="4.90326031536573">
        <time>2019-05-17T03:23:32Z</time>
      </trkpt>
      <trkpt lat="47.1092489809399" lon="4.90356849759977">
        <time>2019-05-17T03:23:32Z</time>
      </trkpt>
      <trkpt lat="47.1093277083456" lon="4.90390023620193">
        <time>2019-05-17T03:23:32Z</time>
      </trkpt>
      <trkpt lat="47.1094747020803" lon="4.90426047226389">
        <time>2019-05-17T03:23:32Z</time>
      </trkpt>
      <trkpt lat="47.1096061748008" lon="4.90454428161229">
        <time>2019-05-17T03:23:32Z</time>
      </trkpt>
      <trkpt lat="47.109876994489" lon="4.90475907781389">
        <time>2019-05-17T03:23:32Z</time>
      </trkpt>
      <trkpt lat="47.1100617766364" lon="4.90496975627971">
        <time>2019-05-17T03:23:32Z</time>
      </trkpt>
      <trkpt lat="47.1103159507201" lon="4.90515853046359">
        <time>2019-05-17T03:23:32Z</time>
      </trkpt>
      <trkpt lat="47.1104846500597" lon="4.90531798388706">
        <time>2019-05-17T03:23:32Z</time>
      </trkpt>
      <trkpt lat="47.1105850816532" lon="4.905448939626">
        <time>2019-05-17T03:23:32Z</time>
      </trkpt>
      <trkpt lat="47.1106849498036" lon="4.90560509793391">
        <time>2019-05-17T03:23:32Z</time>
      </trkpt>
      <trkpt lat="47.1107504034634" lon="4.905759608362">
        <time>2019-05-17T03:23:32Z</time>
      </trkpt>
      <trkpt lat="47.1108319387022" lon="4.9059653478028">
        <time>2019-05-17T03:23:32Z</time>
      </trkpt>
      <trkpt lat="47.1109806145989" lon="4.90624999209771">
        <time>2019-05-17T03:23:32Z</time>
      </trkpt>
      <trkpt lat="47.1110954378917" lon="4.90650778749928">
        <time>2019-05-17T03:23:32Z</time>
      </trkpt>
      <trkpt lat="47.1112624463846" lon="4.90674285457579">
        <time>2019-05-17T03:23:32Z</time>
      </trkpt>
      <trkpt lat="47.1114965948365" lon="4.90705682992417">
        <time>2019-05-17T03:23:32Z</time>
      </trkpt>
      <trkpt lat="47.1117473866867" lon="4.90739683537315">
        <time>2019-05-17T03:23:32Z</time>
      </trkpt>
      <trkpt lat="47.1120475473833" lon="4.90784012960876">
        <time>2019-05-17T03:23:32Z</time>
      </trkpt>
      <trkpt lat="47.1122811294912" lon="4.90817931716625">
        <time>2019-05-17T03:23:32Z</time>
      </trkpt>
      <trkpt lat="47.1125485619783" lon="4.9085453609373">
        <time>2019-05-17T03:23:32Z</time>
      </trkpt>
      <trkpt lat="47.1127548361847" lon="4.90897019979803">
        <time>2019-05-17T03:23:32Z</time>
      </trkpt>
      <trkpt lat="47.1112877256251" lon="4.91086520583676">
        <time>2019-05-17T03:23:32Z</time>
      </trkpt>
      <trkpt lat="47.1112377432769" lon="4.91092976369236">
        <time>2019-05-17T03:23:32Z</time>
      </trkpt>
      <trkpt lat="47.1111447112616" lon="4.91109575566748">
        <time>2019-05-17T03:23:32Z</time>
      </trkpt>
      <trkpt lat="47.1106456441648" lon="4.91198620107006">
        <time>2019-05-17T03:23:32Z</time>
      </trkpt>
      <trkpt lat="47.1112874034661" lon="4.91296409546288">
        <time>2019-05-17T03:23:32Z</time>
      </trkpt>
      <trkpt lat="47.1100858754422" lon="4.91460312192851">
        <time>2019-05-17T03:23:32Z</time>
      </trkpt>
      <trkpt lat="47.1085067519162" lon="4.91672732604971">
        <time>2019-05-17T03:23:32Z</time>
      </trkpt>
      <trkpt lat="47.1086899732273" lon="4.91716155248871">
        <time>2019-05-17T03:23:32Z</time>
      </trkpt>
      <trkpt lat="47.1087524279219" lon="4.91729416825037">
        <time>2019-05-17T03:23:32Z</time>
      </trkpt>
      <trkpt lat="47.1088167352496" lon="4.91749908957554">
        <time>2019-05-17T03:23:32Z</time>
      </trkpt>
      <trkpt lat="47.1088649650849" lon="4.91765278107463">
        <time>2019-05-17T03:23:32Z</time>
      </trkpt>
      <trkpt lat="47.1088787800393" lon="4.91780481669571">
        <time>2019-05-17T03:23:32Z</time>
      </trkpt>
      <trkpt lat="47.1088914644477" lon="4.91800725468777">
        <time>2019-05-17T03:23:32Z</time>
      </trkpt>
      <trkpt lat="47.108837014524" lon="4.91813077658481">
        <time>2019-05-17T03:23:32Z</time>
      </trkpt>
      <trkpt lat="47.1087653576864" lon="4.91825347003891">
        <time>2019-05-17T03:23:32Z</time>
      </trkpt>
      <trkpt lat="47.1086931346235" lon="4.91840136417416">
        <time>2019-05-17T03:23:32Z</time>
      </trkpt>
      <trkpt lat="47.10824824314" lon="4.91903588153281">
        <time>2019-05-17T03:23:32Z</time>
      </trkpt>
      <trkpt lat="47.1081399072186" lon="4.91925771928864">
        <time>2019-05-17T03:23:32Z</time>
      </trkpt>
      <trkpt lat="47.1080968495075" lon="4.91942802647575">
        <time>2019-05-17T03:23:32Z</time>
      </trkpt>
      <trkpt lat="47.1080831934274" lon="4.91948204116768">
        <time>2019-05-17T03:23:32Z</time>
      </trkpt>
      <trkpt lat="47.1080958743347" lon="4.91968447652838">
        <time>2019-05-17T03:23:32Z</time>
      </trkpt>
      <trkpt lat="47.108092479282" lon="4.91983568177775">
        <time>2019-05-17T03:23:32Z</time>
      </trkpt>
      <trkpt lat="47.1080879522421" lon="4.9200372884766">
        <time>2019-05-17T03:23:32Z</time>
      </trkpt>
      <trkpt lat="47.1080490102011" lon="4.92023723745301">
        <time>2019-05-17T03:23:32Z</time>
      </trkpt>
      <trkpt lat="47.108011199776" lon="4.92038678475222">
        <time>2019-05-17T03:23:32Z</time>
      </trkpt>
      <trkpt lat="47.1079361438267" lon="4.92066067803613">
        <time>2019-05-17T03:23:32Z</time>
      </trkpt>
      <trkpt lat="47.1079987468892" lon="4.92094120313921">
        <time>2019-05-17T03:23:32Z</time>
      </trkpt>
      <trkpt lat="47.108045839866" lon="4.92114529679458">
        <time>2019-05-17T03:23:32Z</time>
      </trkpt>
      <trkpt lat="47.1080716760957" lon="4.92124227451055">
        <time>2019-05-17T03:23:32Z</time>
      </trkpt>
      <trkpt lat="47.1080934986645" lon="4.9213241900856">
        <time>2019-05-17T03:23:32Z</time>
      </trkpt>
      <trkpt lat="47.1080350821106" lon="4.92162411247746">
        <time>2019-05-17T03:23:32Z</time>
      </trkpt>
      <trkpt lat="47.1079239096472" lon="4.92197194731562">
        <time>2019-05-17T03:23:32Z</time>
      </trkpt>
      <trkpt lat="47.1078673154866" lon="4.92214560436585">
        <time>2019-05-17T03:23:32Z</time>
      </trkpt>
      <trkpt lat="47.1077943960094" lon="4.92236935234893">
        <time>2019-05-17T03:23:32Z</time>
      </trkpt>
      <trkpt lat="47.107721601748" lon="4.92254243883166">
        <time>2019-05-17T03:23:32Z</time>
      </trkpt>
      <trkpt lat="47.107649939632" lon="4.92266512381845">
        <time>2019-05-17T03:23:32Z</time>
      </trkpt>
      <trkpt lat="47.1076702775901" lon="4.92269693711296">
        <time>2019-05-17T03:23:32Z</time>
      </trkpt>
      <trkpt lat="47.1077165034718" lon="4.92276924443958">
        <time>2019-05-17T03:23:32Z</time>
      </trkpt>
      <trkpt lat="47.1079184595131" lon="4.92298080612263">
        <time>2019-05-17T03:23:32Z</time>
      </trkpt>
      <trkpt lat="47.108051019333" lon="4.92321425172793">
        <time>2019-05-17T03:23:32Z</time>
      </trkpt>
      <trkpt lat="47.1082507084632" lon="4.92352662034041">
        <time>2019-05-17T03:23:32Z</time>
      </trkpt>
      <trkpt lat="47.1085152592089" lon="4.92401871758707">
        <time>2019-05-17T03:23:32Z</time>
      </trkpt>
      <trkpt lat="47.1087476601681" lon="4.92440835522379">
        <time>2019-05-17T03:23:32Z</time>
      </trkpt>
      <trkpt lat="47.1090804692649" lon="4.92492898475302">
        <time>2019-05-17T03:23:32Z</time>
      </trkpt>
      <trkpt lat="47.1093157023169" lon="4.92519262416249">
        <time>2019-05-17T03:23:32Z</time>
      </trkpt>
      <trkpt lat="47.1095509347681" lon="4.92545626507147">
        <time>2019-05-17T03:23:32Z</time>
      </trkpt>
      <trkpt lat="47.1098366541113" lon="4.92577280398093">
        <time>2019-05-17T03:23:32Z</time>
      </trkpt>
      <trkpt lat="47.1098952417579" lon="4.92584387648943">
        <time>2019-05-17T03:23:32Z</time>
      </trkpt>
      <trkpt lat="47.1103564688673" lon="4.92640339936656">
        <time>2019-05-17T03:23:32Z</time>
      </trkpt>
      <trkpt lat="47.1106743305772" lon="4.92682241750667">
        <time>2019-05-17T03:23:32Z</time>
      </trkpt>
      <trkpt lat="47.110807450511" lon="4.92703068186747">
        <time>2019-05-17T03:23:32Z</time>
      </trkpt>
      <trkpt lat="47.1109991830186" lon="4.92769591065355">
        <time>2019-05-17T03:23:32Z</time>
      </trkpt>
      <trkpt lat="47.1110961833907" lon="4.92797812271849">
        <time>2019-05-17T03:23:32Z</time>
      </trkpt>
      <trkpt lat="47.1112092737048" lon="4.9283386424818">
        <time>2019-05-17T03:23:32Z</time>
      </trkpt>
      <trkpt lat="47.1113051182285" lon="4.92864418927303">
        <time>2019-05-17T03:23:32Z</time>
      </trkpt>
      <trkpt lat="47.111452602301" lon="4.9289793041478">
        <time>2019-05-17T03:23:32Z</time>
      </trkpt>
      <trkpt lat="47.1115662393895" lon="4.92928755500502">
        <time>2019-05-17T03:23:32Z</time>
      </trkpt>
      <trkpt lat="47.1117148575628" lon="4.92957226860717">
        <time>2019-05-17T03:23:32Z</time>
      </trkpt>
      <trkpt lat="47.1117599266898" lon="4.92959953836246">
        <time>2019-05-17T03:23:32Z</time>
      </trkpt>
      <trkpt lat="47.1118508120398" lon="4.9296545309995">
        <time>2019-05-17T03:23:32Z</time>
      </trkpt>
      <trkpt lat="47.1119706952498" lon="4.92968555694913">
        <time>2019-05-17T03:23:32Z</time>
      </trkpt>
      <trkpt lat="47.112176047143" lon="4.9297459461621">
        <time>2019-05-17T03:23:32Z</time>
      </trkpt>
      <trkpt lat="47.1125196254749" lon="4.92978778818939">
        <time>2019-05-17T03:23:32Z</time>
      </trkpt>
      <trkpt lat="47.1127077695148" lon="4.92984734557537">
        <time>2019-05-17T03:23:32Z</time>
      </trkpt>
      <trkpt lat="47.1128792748938" lon="4.92988086850732">
        <time>2019-05-17T03:23:32Z</time>
      </trkpt>
      <trkpt lat="47.1130313001629" lon="4.93001437221822">
        <time>2019-05-17T03:23:32Z</time>
      </trkpt>
      <trkpt lat="47.1131317035859" lon="4.93014538038524">
        <time>2019-05-17T03:23:32Z</time>
      </trkpt>
      <trkpt lat="47.1133175754193" lon="4.93030575205998">
        <time>2019-05-17T03:23:32Z</time>
      </trkpt>
      <trkpt lat="47.1135206536715" lon="4.93046695783882">
        <time>2019-05-17T03:23:32Z</time>
      </trkpt>
      <trkpt lat="47.1137398030164" lon="4.93067940368024">
        <time>2019-05-17T03:23:32Z</time>
      </trkpt>
      <trkpt lat="47.114061627526" lon="4.93092204963836">
        <time>2019-05-17T03:23:32Z</time>
      </trkpt>
      <trkpt lat="47.1142314270813" lon="4.93103118733456">
        <time>2019-05-17T03:23:32Z</time>
      </trkpt>
      <trkpt lat="47.1144035003535" lon="4.93103951141889">
        <time>2019-05-17T03:23:32Z</time>
      </trkpt>
      <trkpt lat="47.1146426975033" lon="4.93112677710386">
        <time>2019-05-17T03:23:32Z</time>
      </trkpt>
      <trkpt lat="47.1149329478772" lon="4.93124174399506">
        <time>2019-05-17T03:23:32Z</time>
      </trkpt>
      <trkpt lat="47.1150683332035" lon="4.9313492202818">
        <time>2019-05-17T03:23:32Z</time>
      </trkpt>
      <trkpt lat="47.115186510661" lon="4.93145586453239">
        <time>2019-05-17T03:23:32Z</time>
      </trkpt>
      <trkpt lat="47.1153041196096" lon="4.93158771244181">
        <time>2019-05-17T03:23:32Z</time>
      </trkpt>
      <trkpt lat="47.1153873134184" lon="4.93171789643599">
        <time>2019-05-17T03:23:32Z</time>
      </trkpt>
      <trkpt lat="47.1154877148371" lon="4.9318489135425">
        <time>2019-05-17T03:23:32Z</time>
      </trkpt>
      <trkpt lat="47.1155886846327" lon="4.9319547261974">
        <time>2019-05-17T03:23:32Z</time>
      </trkpt>
      <trkpt lat="47.1157074300405" lon="4.93203616863064">
        <time>2019-05-17T03:23:32Z</time>
      </trkpt>
      <trkpt lat="47.1159105062892" lon="4.93219738816479">
        <time>2019-05-17T03:23:32Z</time>
      </trkpt>
      <trkpt lat="47.1161629294648" lon="4.93246192507063">
        <time>2019-05-17T03:23:32Z</time>
      </trkpt>
      <trkpt lat="47.116466405453" lon="4.93275416877456">
        <time>2019-05-17T03:23:32Z</time>
      </trkpt>
      <trkpt lat="47.1166700493868" lon="4.93289018786647">
        <time>2019-05-17T03:23:32Z</time>
      </trkpt>
      <trkpt lat="47.1167899315463" lon="4.93292122464346">
        <time>2019-05-17T03:23:32Z</time>
      </trkpt>
      <trkpt lat="47.1169103824349" lon="4.93292705600671">
        <time>2019-05-17T03:23:32Z</time>
      </trkpt>
      <trkpt lat="47.1170658164359" lon="4.93290934787894">
        <time>2019-05-17T03:23:32Z</time>
      </trkpt>
      <trkpt lat="47.1172390263081" lon="4.93286726860843">
        <time>2019-05-17T03:23:32Z</time>
      </trkpt>
      <trkpt lat="47.1173439760958" lon="4.93279665202463">
        <time>2019-05-17T03:23:32Z</time>
      </trkpt>
      <trkpt lat="47.1174477884735" lon="4.9327764451555">
        <time>2019-05-17T03:23:32Z</time>
      </trkpt>
      <trkpt lat="47.1176026537237" lon="4.93278394229376">
        <time>2019-05-17T03:23:32Z</time>
      </trkpt>
      <trkpt lat="47.1180621315001" lon="4.93303328235552">
        <time>2019-05-17T03:23:32Z</time>
      </trkpt>
      <trkpt lat="47.1183656058777" lon="4.93332553963496">
        <time>2019-05-17T03:23:32Z</time>
      </trkpt>
      <trkpt lat="47.1185509041473" lon="4.93351114428652">
        <time>2019-05-17T03:23:32Z</time>
      </trkpt>
      <trkpt lat="47.118669079506" lon="4.93361779940849">
        <time>2019-05-17T03:23:32Z</time>
      </trkpt>
      <trkpt lat="47.1187694786711" lon="4.9337488280833">
        <time>2019-05-17T03:23:32Z</time>
      </trkpt>
      <trkpt lat="47.118969707031" lon="4.93403609257385">
        <time>2019-05-17T03:23:32Z</time>
      </trkpt>
      <trkpt lat="47.1191194517662" lon="4.93427044629976">
        <time>2019-05-17T03:23:32Z</time>
      </trkpt>
      <trkpt lat="47.1193030407305" lon="4.93453167434109">
        <time>2019-05-17T03:23:32Z</time>
      </trkpt>
      <trkpt lat="47.1195015602346" lon="4.93489456245044">
        <time>2019-05-17T03:23:32Z</time>
      </trkpt>
      <trkpt lat="47.1196358030651" lon="4.93505246907654">
        <time>2019-05-17T03:23:32Z</time>
      </trkpt>
      <trkpt lat="47.119770045674" lon="4.93521037649279">
        <time>2019-05-17T03:23:32Z</time>
      </trkpt>
      <trkpt lat="47.1199914629054" lon="4.93532204180471">
        <time>2019-05-17T03:23:32Z</time>
      </trkpt>
      <trkpt lat="47.1201866027775" lon="4.9354682949443">
        <time>2019-05-17T03:23:32Z</time>
      </trkpt>
      <trkpt lat="47.1205942201942" lon="4.93568897095593">
        <time>2019-05-17T03:23:32Z</time>
      </trkpt>
      <trkpt lat="47.1213090509054" lon="4.93588199492303">
        <time>2019-05-17T03:23:32Z</time>
      </trkpt>
      <trkpt lat="47.1216664512201" lon="4.93601372537151">
        <time>2019-05-17T03:23:32Z</time>
      </trkpt>
      <trkpt lat="47.1219527195372" lon="4.93611923889707">
        <time>2019-05-17T03:23:32Z</time>
      </trkpt>
      <trkpt lat="47.1223788554884" lon="4.93622088046996">
        <time>2019-05-17T03:23:32Z</time>
      </trkpt>
      <trkpt lat="47.1225874158255" lon="4.93634498525031">
        <time>2019-05-17T03:23:32Z</time>
      </trkpt>
      <trkpt lat="47.1227896077754" lon="4.93641882250571">
        <time>2019-05-17T03:23:32Z</time>
      </trkpt>
      <trkpt lat="47.1229946093815" lon="4.93649368654007">
        <time>2019-05-17T03:23:32Z</time>
      </trkpt>
      <trkpt lat="47.1232974113501" lon="4.93654886006677">
        <time>2019-05-17T03:23:32Z</time>
      </trkpt>
      <trkpt lat="47.1235431645156" lon="4.93668225422855">
        <time>2019-05-17T03:23:32Z</time>
      </trkpt>
      <trkpt lat="47.1237737412177" lon="4.93687565276718">
        <time>2019-05-17T03:23:32Z</time>
      </trkpt>
      <trkpt lat="47.1240830355408" lon="4.93725508884748">
        <time>2019-05-17T03:23:32Z</time>
      </trkpt>
      <trkpt lat="47.1242956925857" lon="4.93762984254452">
        <time>2019-05-17T03:23:32Z</time>
      </trkpt>
      <trkpt lat="47.1245253533469" lon="4.93786369736034">
        <time>2019-05-17T03:23:32Z</time>
      </trkpt>
      <trkpt lat="47.1248383019627" lon="4.93808134719269">
        <time>2019-05-17T03:23:32Z</time>
      </trkpt>
      <trkpt lat="47.1251411029959" lon="4.93813653238813">
        <time>2019-05-17T03:23:32Z</time>
      </trkpt>
      <trkpt lat="47.1251953640462" lon="4.93809643460352">
        <time>2019-05-17T03:23:32Z</time>
      </trkpt>
      <trkpt lat="47.1252841985158" lon="4.93803078807515">
        <time>2019-05-17T03:23:32Z</time>
      </trkpt>
      <trkpt lat="47.125315112636" lon="4.93787214383452">
        <time>2019-05-17T03:23:32Z</time>
      </trkpt>
      <trkpt lat="47.1254306327103" lon="4.93759749536544">
        <time>2019-05-17T03:23:32Z</time>
      </trkpt>
      <trkpt lat="47.125488844407" lon="4.93744017453856">
        <time>2019-05-17T03:23:32Z</time>
      </trkpt>
      <trkpt lat="47.1255488633705" lon="4.93720286867961">
        <time>2019-05-17T03:23:32Z</time>
      </trkpt>
      <trkpt lat="47.1256370836432" lon="4.93692689454447">
        <time>2019-05-17T03:23:32Z</time>
      </trkpt>
      <trkpt lat="47.1257216890167" lon="4.93681088862904">
        <time>2019-05-17T03:23:32Z</time>
      </trkpt>
      <trkpt lat="47.1258344959965" lon="4.93665621350598">
        <time>2019-05-17T03:23:32Z</time>
      </trkpt>
      <trkpt lat="47.1259209080594" lon="4.93646022146646">
        <time>2019-05-17T03:23:32Z</time>
      </trkpt>
      <trkpt lat="47.1260892137839" lon="4.93626819930945">
        <time>2019-05-17T03:23:32Z</time>
      </trkpt>
      <trkpt lat="47.1261465202804" lon="4.93615086873157">
        <time>2019-05-17T03:23:32Z</time>
      </trkpt>
      <trkpt lat="47.1261510369164" lon="4.93595090466513">
        <time>2019-05-17T03:23:32Z</time>
      </trkpt>
      <trkpt lat="47.126131867795" lon="4.93558964608861">
        <time>2019-05-17T03:23:32Z</time>
      </trkpt>
      <trkpt lat="47.1261117944916" lon="4.93526838056982">
        <time>2019-05-17T03:23:32Z</time>
      </trkpt>
      <trkpt lat="47.1261463166705" lon="4.93494976179298">
        <time>2019-05-17T03:23:32Z</time>
      </trkpt>
      <trkpt lat="47.1262318229376" lon="4.93479375876283">
        <time>2019-05-17T03:23:32Z</time>
      </trkpt>
      <trkpt lat="47.1262918364347" lon="4.93455644665697">
        <time>2019-05-17T03:23:32Z</time>
      </trkpt>
      <trkpt lat="47.1263521179317" lon="4.93431972576245">
        <time>2019-05-17T03:23:32Z</time>
      </trkpt>
      <trkpt lat="47.1264820210227" lon="4.93460569832397">
        <time>2019-05-17T03:23:32Z</time>
      </trkpt>
      <trkpt lat="47.1265594013144" lon="4.93480963208639">
        <time>2019-05-17T03:23:32Z</time>
      </trkpt>
      <trkpt lat="47.1266913770762" lon="4.93501621219435">
        <time>2019-05-17T03:23:32Z</time>
      </trkpt>
      <trkpt lat="47.1267678536092" lon="4.93526013982151">
        <time>2019-05-17T03:23:32Z</time>
      </trkpt>
      <trkpt lat="47.1268980228332" lon="4.93554670863056">
        <time>2019-05-17T03:23:32Z</time>
      </trkpt>
      <trkpt lat="47.1270281913393" lon="4.93583327883022">
        <time>2019-05-17T03:23:32Z</time>
      </trkpt>
      <trkpt lat="47.1271292542216" lon="4.93619851404078">
        <time>2019-05-17T03:23:32Z</time>
      </trkpt>
      <trkpt lat="47.1271274560538" lon="4.9364590833148">
        <time>2019-05-17T03:23:32Z</time>
      </trkpt>
      <trkpt lat="47.1271696393586" lon="4.93672601136552">
        <time>2019-05-17T03:23:32Z</time>
      </trkpt>
      <trkpt lat="47.1272575903212" lon="4.9371011137498">
        <time>2019-05-17T03:23:32Z</time>
      </trkpt>
      <trkpt lat="47.1274968796772" lon="4.93771312461052">
        <time>2019-05-17T03:23:32Z</time>
      </trkpt>
      <trkpt lat="47.1279500957324" lon="4.93845913573746">
        <time>2019-05-17T03:23:32Z</time>
      </trkpt>
      <trkpt lat="47.1282188347871" lon="4.93877374422479">
        <time>2019-05-17T03:23:32Z</time>
      </trkpt>
      <trkpt lat="47.1284811324626" lon="4.93896170721778">
        <time>2019-05-17T03:23:32Z</time>
      </trkpt>
      <trkpt lat="47.1287023027045" lon="4.93895154889304">
        <time>2019-05-17T03:23:32Z</time>
      </trkpt>
      <trkpt lat="47.1287338815871" lon="4.93895889523633">
        <time>2019-05-17T03:23:32Z</time>
      </trkpt>
      <trkpt lat="47.1285218270655" lon="4.93866833397159">
        <time>2019-05-17T03:23:32Z</time>
      </trkpt>
      <trkpt lat="47.1281568309525" lon="4.93788989669617">
        <time>2019-05-17T03:23:32Z</time>
      </trkpt>
      <trkpt lat="47.1278974078367" lon="4.93727674239309">
        <time>2019-05-17T03:23:32Z</time>
      </trkpt>
      <trkpt lat="47.127822742926" lon="4.93695281785417">
        <time>2019-05-17T03:23:32Z</time>
      </trkpt>
      <trkpt lat="47.1278943438012" lon="4.93702788082854">
        <time>2019-05-17T03:23:32Z</time>
      </trkpt>
      <trkpt lat="47.1281430906963" lon="4.93728865908143">
        <time>2019-05-17T03:23:32Z</time>
      </trkpt>
      <trkpt lat="47.1285180343299" lon="4.93762715206585">
        <time>2019-05-17T03:23:32Z</time>
      </trkpt>
      <trkpt lat="47.1288674861681" lon="4.93788433650343">
        <time>2019-05-17T03:23:32Z</time>
      </trkpt>
      <trkpt lat="47.1294599083982" lon="4.93827343099932">
        <time>2019-05-17T03:23:32Z</time>
      </trkpt>
      <trkpt lat="47.1301432657964" lon="4.93826655114617">
        <time>2019-05-17T03:23:32Z</time>
      </trkpt>
      <trkpt lat="47.1307420157967" lon="4.93837568576063">
        <time>2019-05-17T03:23:32Z</time>
      </trkpt>
      <trkpt lat="47.1315111175194" lon="4.93830259450888">
        <time>2019-05-17T03:23:32Z</time>
      </trkpt>
      <trkpt lat="47.1319079886184" lon="4.93828865156577">
        <time>2019-05-17T03:23:32Z</time>
      </trkpt>
      <trkpt lat="47.1321803644023" lon="4.93826866707347">
        <time>2019-05-17T03:23:32Z</time>
      </trkpt>
      <trkpt lat="47.1325421578642" lon="4.93830282452372">
        <time>2019-05-17T03:23:32Z</time>
      </trkpt>
      <trkpt lat="47.1329160184479" lon="4.93830436633693">
        <time>2019-05-17T03:23:32Z</time>
      </trkpt>
      <trkpt lat="47.1330086862018" lon="4.93830240051057">
        <time>2019-05-17T03:23:32Z</time>
      </trkpt>
      <trkpt lat="47.1331540657268" lon="4.93829931659039">
        <time>2019-05-17T03:23:32Z</time>
      </trkpt>
      <trkpt lat="47.1333570359589" lon="4.93834236916109">
        <time>2019-05-17T03:23:32Z</time>
      </trkpt>
      <trkpt lat="47.1335483126953" lon="4.93840145643247">
        <time>2019-05-17T03:23:32Z</time>
      </trkpt>
      <trkpt lat="47.1337271478733" lon="4.93850974362488">
        <time>2019-05-17T03:23:32Z</time>
      </trkpt>
      <trkpt lat="47.1338490188972" lon="4.93863186957738">
        <time>2019-05-17T03:23:32Z</time>
      </trkpt>
      <trkpt lat="47.1339803327408" lon="4.93883746114584">
        <time>2019-05-17T03:23:32Z</time>
      </trkpt>
      <trkpt lat="47.1340342973742" lon="4.93895629136796">
        <time>2019-05-17T03:23:32Z</time>
      </trkpt>
      <trkpt lat="47.134064875866" lon="4.93910719064085">
        <time>2019-05-17T03:23:32Z</time>
      </trkpt>
      <trkpt lat="47.1341735538757" lon="4.93931168531982">
        <time>2019-05-17T03:23:32Z</time>
      </trkpt>
      <trkpt lat="47.1342203243163" lon="4.93924754926027">
        <time>2019-05-17T03:23:32Z</time>
      </trkpt>
      <trkpt lat="47.1342689700806" lon="4.93910049613186">
        <time>2019-05-17T03:23:32Z</time>
      </trkpt>
      <trkpt lat="47.1343383764897" lon="4.93903745859502">
        <time>2019-05-17T03:23:32Z</time>
      </trkpt>
      <trkpt lat="47.1343712046475" lon="4.9390888577122">
        <time>2019-05-17T03:23:32Z</time>
      </trkpt>
      <trkpt lat="47.1344142259534" lon="4.93919055567697">
        <time>2019-05-17T03:23:32Z</time>
      </trkpt>
      <trkpt lat="47.1344433984179" lon="4.93922114472495">
        <time>2019-05-17T03:23:32Z</time>
      </trkpt>
      <trkpt lat="47.1345021432148" lon="4.93931103638302">
        <time>2019-05-17T03:23:32Z</time>
      </trkpt>
      <trkpt lat="47.1345908103709" lon="4.93939834952042">
        <time>2019-05-17T03:23:32Z</time>
      </trkpt>
      <trkpt lat="47.1346473989134" lon="4.93940109688975">
        <time>2019-05-17T03:23:32Z</time>
      </trkpt>
      <trkpt lat="47.1347156805044" lon="4.93938780973616">
        <time>2019-05-17T03:23:32Z</time>
      </trkpt>
      <trkpt lat="47.1347617015513" lon="4.93935684038039">
        <time>2019-05-17T03:23:32Z</time>
      </trkpt>
      <trkpt lat="47.1348073470353" lon="4.93934245499404">
        <time>2019-05-17T03:23:32Z</time>
      </trkpt>
      <trkpt lat="47.1348439254798" lon="4.93922801823144">
        <time>2019-05-17T03:23:32Z</time>
      </trkpt>
      <trkpt lat="47.1348895715192" lon="4.93921363192826">
        <time>2019-05-17T03:23:32Z</time>
      </trkpt>
      <trkpt lat="47.1349461600613" lon="4.93921637911802">
        <time>2019-05-17T03:23:32Z</time>
      </trkpt>
      <trkpt lat="47.1349906811633" lon="4.93925174428652">
        <time>2019-05-17T03:23:32Z</time>
      </trkpt>
      <trkpt lat="47.135024259187" lon="4.93926997673857">
        <time>2019-05-17T03:23:32Z</time>
      </trkpt>
      <trkpt lat="47.135068405293" lon="4.93932192532129">
        <time>2019-05-17T03:23:32Z</time>
      </trkpt>
      <trkpt lat="47.1351004833383" lon="4.9394064919675">
        <time>2019-05-17T03:23:32Z</time>
      </trkpt>
      <trkpt lat="47.1351661398598" lon="4.93950929139185">
        <time>2019-05-17T03:23:32Z</time>
      </trkpt>
      <trkpt lat="47.135242363706" lon="4.93964580813401">
        <time>2019-05-17T03:23:32Z</time>
      </trkpt>
      <trkpt lat="47.1353412229083" lon="4.93978342439352">
        <time>2019-05-17T03:23:32Z</time>
      </trkpt>
      <trkpt lat="47.1354193223339" lon="4.93983702244927">
        <time>2019-05-17T03:23:32Z</time>
      </trkpt>
      <trkpt lat="47.1355540096948" lon="4.93989336856929">
        <time>2019-05-17T03:23:32Z</time>
      </trkpt>
      <trkpt lat="47.1356105982101" lon="4.93989611651019">
        <time>2019-05-17T03:23:32Z</time>
      </trkpt>
      <trkpt lat="47.1357174182975" lon="4.93996759437186">
        <time>2019-05-17T03:23:32Z</time>
      </trkpt>
      <trkpt lat="47.1357859934724" lon="4.94010210034879">
        <time>2019-05-17T03:23:32Z</time>
      </trkpt>
      <trkpt lat="47.1359170545849" lon="4.9403487290366">
        <time>2019-05-17T03:23:32Z</time>
      </trkpt>
      <trkpt lat="47.1361054264817" lon="4.94047801040583">
        <time>2019-05-17T03:23:32Z</time>
      </trkpt>
      <trkpt lat="47.1363344875802" lon="4.94065701968064">
        <time>2019-05-17T03:23:32Z</time>
      </trkpt>
      <trkpt lat="47.1363628230366" lon="4.9406783377438">
        <time>2019-05-17T03:23:32Z</time>
      </trkpt>
      <trkpt lat="47.1363920597159" lon="4.94069994106352">
        <time>2019-05-17T03:23:32Z</time>
      </trkpt>
      <trkpt lat="47.1364169155822" lon="4.9407174723676">
        <time>2019-05-17T03:23:32Z</time>
      </trkpt>
      <trkpt lat="47.1364389125897" lon="4.94072778859735">
        <time>2019-05-17T03:23:32Z</time>
      </trkpt>
      <trkpt lat="47.1364646547314" lon="4.94073920299548">
        <time>2019-05-17T03:23:32Z</time>
      </trkpt>
      <trkpt lat="47.1364991629995" lon="4.94075449110685">
        <time>2019-05-17T03:23:32Z</time>
      </trkpt>
      <trkpt lat="47.1365416089901" lon="4.94077323873123">
        <time>2019-05-17T03:23:32Z</time>
      </trkpt>
      <trkpt lat="47.1365910347677" lon="4.94079506765224">
        <time>2019-05-17T03:23:32Z</time>
      </trkpt>
      <trkpt lat="47.1366466076843" lon="4.94081960411347">
        <time>2019-05-17T03:23:32Z</time>
      </trkpt>
      <trkpt lat="47.1367074029225" lon="4.9408464284175">
        <time>2019-05-17T03:23:32Z</time>
      </trkpt>
      <trkpt lat="47.1367726066779" lon="4.94087516772014">
        <time>2019-05-17T03:23:32Z</time>
      </trkpt>
      <trkpt lat="47.1368413252242" lon="4.94090540139058">
        <time>2019-05-17T03:23:32Z</time>
      </trkpt>
      <trkpt lat="47.1369126160837" lon="4.94093670561314">
        <time>2019-05-17T03:23:32Z</time>
      </trkpt>
      <trkpt lat="47.136985679893" lon="4.94096880498152">
        <time>2019-05-17T03:23:32Z</time>
      </trkpt>
      <trkpt lat="47.1370595674209" lon="4.94100118185006">
        <time>2019-05-17T03:23:32Z</time>
      </trkpt>
      <trkpt lat="47.1371334637812" lon="4.9410335112707">
        <time>2019-05-17T03:23:32Z</time>
      </trkpt>
      <trkpt lat="47.1372064447259" lon="4.94106532395611">
        <time>2019-05-17T03:23:32Z</time>
      </trkpt>
      <trkpt lat="47.1372776449795" lon="4.9410963396557">
        <time>2019-05-17T03:23:32Z</time>
      </trkpt>
      <trkpt lat="47.1373531616347" lon="4.94113049682177">
        <time>2019-05-17T03:23:32Z</time>
      </trkpt>
      <trkpt lat="47.1374384375892" lon="4.94117136883125">
        <time>2019-05-17T03:23:32Z</time>
      </trkpt>
      <trkpt lat="47.1375314146562" lon="4.94121762322875">
        <time>2019-05-17T03:23:32Z</time>
      </trkpt>
      <trkpt lat="47.1376300767386" lon="4.94126812715272">
        <time>2019-05-17T03:23:32Z</time>
      </trkpt>
      <trkpt lat="47.1377324305374" lon="4.94132159843089">
        <time>2019-05-17T03:23:32Z</time>
      </trkpt>
      <trkpt lat="47.1378364356846" lon="4.94137689811584">
        <time>2019-05-17T03:23:32Z</time>
      </trkpt>
      <trkpt lat="47.1379401070278" lon="4.94143270293466">
        <time>2019-05-17T03:23:32Z</time>
      </trkpt>
      <trkpt lat="47.1380413908971" lon="4.94148782447808">
        <time>2019-05-17T03:23:32Z</time>
      </trkpt>
      <trkpt lat="47.1381382984062" lon="4.94154103112581">
        <time>2019-05-17T03:23:32Z</time>
      </trkpt>
      <trkpt lat="47.1382288406771" lon="4.94159114002248">
        <time>2019-05-17T03:23:32Z</time>
      </trkpt>
      <trkpt lat="47.1383109650759" lon="4.94163691723297">
        <time>2019-05-17T03:23:32Z</time>
      </trkpt>
      <trkpt lat="47.1383827004147" lon="4.94167708480107">
        <time>2019-05-17T03:23:32Z</time>
      </trkpt>
      <trkpt lat="47.1384419769245" lon="4.94171045509555">
        <time>2019-05-17T03:23:32Z</time>
      </trkpt>
      <trkpt lat="47.1384868046791" lon="4.94173584273735">
        <time>2019-05-17T03:23:32Z</time>
      </trkpt>
      <trkpt lat="47.1385233712179" lon="4.94175926876812">
        <time>2019-05-17T03:23:32Z</time>
      </trkpt>
      <trkpt lat="47.1385431684041" lon="4.94179885078636">
        <time>2019-05-17T03:23:32Z</time>
      </trkpt>
      <trkpt lat="47.1385639465668" lon="4.94184642124721">
        <time>2019-05-17T03:23:32Z</time>
      </trkpt>
      <trkpt lat="47.1385908526803" lon="4.94190828241005">
        <time>2019-05-17T03:23:32Z</time>
      </trkpt>
      <trkpt lat="47.1386226720528" lon="4.94198181915366">
        <time>2019-05-17T03:23:32Z</time>
      </trkpt>
      <trkpt lat="47.1386582229787" lon="4.94206433177469">
        <time>2019-05-17T03:23:32Z</time>
      </trkpt>
      <trkpt lat="47.1386961980947" lon="4.94215305916679">
        <time>2019-05-17T03:23:32Z</time>
      </trkpt>
      <trkpt lat="47.1387353841728" lon="4.94224529763111">
        <time>2019-05-17T03:23:32Z</time>
      </trkpt>
      <trkpt lat="47.1387745504114" lon="4.94233838487586">
        <time>2019-05-17T03:23:32Z</time>
      </trkpt>
      <trkpt lat="47.1388124919916" lon="4.94242966310775">
        <time>2019-05-17T03:23:32Z</time>
      </trkpt>
      <trkpt lat="47.1388479236586" lon="4.94251637629692">
        <time>2019-05-17T03:23:32Z</time>
      </trkpt>
      <trkpt lat="47.1388796100075" lon="4.94259577244785">
        <time>2019-05-17T03:23:32Z</time>
      </trkpt>
      <trkpt lat="47.1389086319668" lon="4.94267157081143">
        <time>2019-05-17T03:23:32Z</time>
      </trkpt>
      <trkpt lat="47.138926901998" lon="4.94272210706523">
        <time>2019-05-17T03:23:32Z</time>
      </trkpt>
      <trkpt lat="47.1389400191786" lon="4.94276358698562">
        <time>2019-05-17T03:23:32Z</time>
      </trkpt>
      <trkpt lat="47.1389450394139" lon="4.94279403649131">
        <time>2019-05-17T03:23:32Z</time>
      </trkpt>
      <trkpt lat="47.1389527700996" lon="4.94282374296618">
        <time>2019-05-17T03:23:32Z</time>
      </trkpt>
      <trkpt lat="47.1389699000604" lon="4.94285452188641">
        <time>2019-05-17T03:23:32Z</time>
      </trkpt>
      <trkpt lat="47.1389941822317" lon="4.94288316558475">
        <time>2019-05-17T03:23:32Z</time>
      </trkpt>
      <trkpt lat="47.1390156439536" lon="4.94290160450023">
        <time>2019-05-17T03:23:32Z</time>
      </trkpt>
      <trkpt lat="47.1390391343768" lon="4.94291517854971">
        <time>2019-05-17T03:23:32Z</time>
      </trkpt>
      <trkpt lat="47.1390715425677" lon="4.94292455357449">
        <time>2019-05-17T03:23:32Z</time>
      </trkpt>
      <trkpt lat="47.1391032784642" lon="4.94292054279016">
        <time>2019-05-17T03:23:32Z</time>
      </trkpt>
      <trkpt lat="47.1391321382563" lon="4.94290001294202">
        <time>2019-05-17T03:23:32Z</time>
      </trkpt>
      <trkpt lat="47.1391665018978" lon="4.9428710992478">
        <time>2019-05-17T03:23:32Z</time>
      </trkpt>
      <trkpt lat="47.1392070818407" lon="4.94285688239026">
        <time>2019-05-17T03:23:32Z</time>
      </trkpt>
      <trkpt lat="47.1392419305645" lon="4.94285214726643">
        <time>2019-05-17T03:23:32Z</time>
      </trkpt>
      <trkpt lat="47.1392819976194" lon="4.94285092852697">
        <time>2019-05-17T03:23:32Z</time>
      </trkpt>
      <trkpt lat="47.1393267370883" lon="4.9428531516689">
        <time>2019-05-17T03:23:32Z</time>
      </trkpt>
      <trkpt lat="47.1393756834084" lon="4.94285869731577">
        <time>2019-05-17T03:23:32Z</time>
      </trkpt>
      <trkpt lat="47.1394283366345" lon="4.94286759239206">
        <time>2019-05-17T03:23:32Z</time>
      </trkpt>
      <trkpt lat="47.1394841896983" lon="4.94287976184824">
        <time>2019-05-17T03:23:32Z</time>
      </trkpt>
      <trkpt lat="47.139542713229" lon="4.94289508646023">
        <time>2019-05-17T03:23:32Z</time>
      </trkpt>
      <trkpt lat="47.1396034228486" lon="4.9429135426902">
        <time>2019-05-17T03:23:32Z</time>
      </trkpt>
      <trkpt lat="47.1396658224801" lon="4.94293506008864">
        <time>2019-05-17T03:23:32Z</time>
      </trkpt>
      <trkpt lat="47.139729401222" lon="4.94295965935776">
        <time>2019-05-17T03:23:32Z</time>
      </trkpt>
      <trkpt lat="47.139793657865" lon="4.9429871291423">
        <time>2019-05-17T03:23:32Z</time>
      </trkpt>
      <trkpt lat="47.1398580821219" lon="4.94301753651559">
        <time>2019-05-17T03:23:32Z</time>
      </trkpt>
      <trkpt lat="47.1399221994873" lon="4.94305076491738">
        <time>2019-05-17T03:23:32Z</time>
      </trkpt>
      <trkpt lat="47.139981244807" lon="4.94308648834555">
        <time>2019-05-17T03:23:32Z</time>
      </trkpt>
      <trkpt lat="47.1400313459137" lon="4.94312400061002">
        <time>2019-05-17T03:23:32Z</time>
      </trkpt>
      <trkpt lat="47.140073227829" lon="4.94316271904068">
        <time>2019-05-17T03:23:32Z</time>
      </trkpt>
      <trkpt lat="47.1401075616883" lon="4.94320206403733">
        <time>2019-05-17T03:23:32Z</time>
      </trkpt>
      <trkpt lat="47.1401350703262" lon="4.94324154957412">
        <time>2019-05-17T03:23:32Z</time>
      </trkpt>
      <trkpt lat="47.140156463073" lon="4.94328050196975">
        <time>2019-05-17T03:23:32Z</time>
      </trkpt>
      <trkpt lat="47.1401724733547" lon="4.94331848205885">
        <time>2019-05-17T03:23:32Z</time>
      </trkpt>
      <trkpt lat="47.140187432355" lon="4.94337191739037">
        <time>2019-05-17T03:23:32Z</time>
      </trkpt>
      <trkpt lat="47.1401958690036" lon="4.94343453597016">
        <time>2019-05-17T03:23:32Z</time>
      </trkpt>
      <trkpt lat="47.140195451776" lon="4.94348287462931">
        <time>2019-05-17T03:23:32Z</time>
      </trkpt>
      <trkpt lat="47.1401913288291" lon="4.94351502264137">
        <time>2019-05-17T03:23:32Z</time>
      </trkpt>
      <trkpt lat="47.1401903530717" lon="4.9435623723055">
        <time>2019-05-17T03:23:32Z</time>
      </trkpt>
      <trkpt lat="47.1401904099671" lon="4.94360439879342">
        <time>2019-05-17T03:23:32Z</time>
      </trkpt>
      <trkpt lat="47.1401904901054" lon="4.94364642722562">
        <time>2019-05-17T03:23:32Z</time>
      </trkpt>
      <trkpt lat="47.1401905613843" lon="4.94368850319732">
        <time>2019-05-17T03:23:32Z</time>
      </trkpt>
      <trkpt lat="47.1401906414919" lon="4.94373053162976">
        <time>2019-05-17T03:23:32Z</time>
      </trkpt>
      <trkpt lat="47.1401906972591" lon="4.94377260522266">
        <time>2019-05-17T03:23:32Z</time>
      </trkpt>
      <trkpt lat="47.1401907773544" lon="4.94381463284319">
        <time>2019-05-17T03:23:32Z</time>
      </trkpt>
      <trkpt lat="47.1401908486087" lon="4.94385670719104">
        <time>2019-05-17T03:23:32Z</time>
      </trkpt>
      <trkpt lat="47.1401909286549" lon="4.94389873562396">
        <time>2019-05-17T03:23:32Z</time>
      </trkpt>
      <trkpt lat="47.1401909838064" lon="4.9439408091903">
        <time>2019-05-17T03:23:32Z</time>
      </trkpt>
      <trkpt lat="47.1401910560631" lon="4.94398283724606">
        <time>2019-05-17T03:23:32Z</time>
      </trkpt>
      <trkpt lat="47.1401911366359" lon="4.94402486489414">
        <time>2019-05-17T03:23:32Z</time>
      </trkpt>
      <trkpt lat="47.1401912155355" lon="4.94406694124425">
        <time>2019-05-17T03:23:32Z</time>
      </trkpt>
      <trkpt lat="47.1401912960592" lon="4.94410896970473">
        <time>2019-05-17T03:23:32Z</time>
      </trkpt>
      <trkpt lat="47.1401913428209" lon="4.9441510428672">
        <time>2019-05-17T03:23:32Z</time>
      </trkpt>
      <trkpt lat="47.1401949274427" lon="4.94419238971585">
        <time>2019-05-17T03:23:32Z</time>
      </trkpt>
      <trkpt lat="47.1402174167776" lon="4.94418835583669">
        <time>2019-05-17T03:23:32Z</time>
      </trkpt>
      <trkpt lat="47.1402540705244" lon="4.94418295316037">
        <time>2019-05-17T03:23:32Z</time>
      </trkpt>
      <trkpt lat="47.1402911982321" lon="4.94417840121109">
        <time>2019-05-17T03:23:32Z</time>
      </trkpt>
      <trkpt lat="47.1403209432205" lon="4.94417535769186">
        <time>2019-05-17T03:23:32Z</time>
      </trkpt>
      <trkpt lat="47.1403543310245" lon="4.94417249055835">
        <time>2019-05-17T03:23:32Z</time>
      </trkpt>
      <trkpt lat="47.1403912830159" lon="4.94416993989456">
        <time>2019-05-17T03:23:32Z</time>
      </trkpt>
      <trkpt lat="47.1404317583443" lon="4.94416784355747">
        <time>2019-05-17T03:23:32Z</time>
      </trkpt>
      <trkpt lat="47.1404756047501" lon="4.94416638358106">
        <time>2019-05-17T03:23:32Z</time>
      </trkpt>
      <trkpt lat="47.1405228483407" lon="4.94416560758032">
        <time>2019-05-17T03:23:32Z</time>
      </trkpt>
      <trkpt lat="47.1405733461816" lon="4.94416565332655">
        <time>2019-05-17T03:23:32Z</time>
      </trkpt>
      <trkpt lat="47.1406270142585" lon="4.9441667517065">
        <time>2019-05-17T03:23:32Z</time>
      </trkpt>
      <trkpt lat="47.1406838343654" lon="4.9441689961517">
        <time>2019-05-17T03:23:32Z</time>
      </trkpt>
      <trkpt lat="47.1407086256285" lon="4.94416799955765">
        <time>2019-05-17T03:23:32Z</time>
      </trkpt>
      <trkpt lat="47.140846818051" lon="4.94415292231503">
        <time>2019-05-17T03:23:32Z</time>
      </trkpt>
      <trkpt lat="47.140985834563" lon="4.94423145059644">
        <time>2019-05-17T03:23:32Z</time>
      </trkpt>
      <trkpt lat="47.1413164651739" lon="4.94449871795443">
        <time>2019-05-17T03:23:32Z</time>
      </trkpt>
      <trkpt lat="47.1415932794803" lon="4.94470954610066">
        <time>2019-05-17T03:23:32Z</time>
      </trkpt>
      <trkpt lat="47.1418774256258" lon="4.94486690564081">
        <time>2019-05-17T03:23:32Z</time>
      </trkpt>
      <trkpt lat="47.1421725845141" lon="4.94507863144009">
        <time>2019-05-17T03:23:32Z</time>
      </trkpt>
      <trkpt lat="47.1422455563787" lon="4.94510012375684">
        <time>2019-05-17T03:23:32Z</time>
      </trkpt>
      <trkpt lat="47.1422885635361" lon="4.94509324435094">
        <time>2019-05-17T03:23:32Z</time>
      </trkpt>
      <trkpt lat="47.1424102259579" lon="4.94485694855061">
        <time>2019-05-17T03:23:32Z</time>
      </trkpt>
      <trkpt lat="47.1425314835792" lon="4.94463857176441">
        <time>2019-05-17T03:23:32Z</time>
      </trkpt>
      <trkpt lat="47.1426653747565" lon="4.94440286721952">
        <time>2019-05-17T03:23:32Z</time>
      </trkpt>
      <trkpt lat="47.1428063965558" lon="4.94412265228098">
        <time>2019-05-17T03:23:32Z</time>
      </trkpt>
      <trkpt lat="47.1428703858555" lon="4.94400017056633">
        <time>2019-05-17T03:23:32Z</time>
      </trkpt>
      <trkpt lat="47.1429453864183" lon="4.94393204953029">
        <time>2019-05-17T03:23:32Z</time>
      </trkpt>
      <trkpt lat="47.1430373675484" lon="4.9439266455228">
        <time>2019-05-17T03:23:32Z</time>
      </trkpt>
      <trkpt lat="47.1431344528301" lon="4.94391110665138">
        <time>2019-05-17T03:23:32Z</time>
      </trkpt>
      <trkpt lat="47.1432437240861" lon="4.94388767995548">
        <time>2019-05-17T03:23:32Z</time>
      </trkpt>
      <trkpt lat="47.1433623406043" lon="4.94385893966582">
        <time>2019-05-17T03:23:32Z</time>
      </trkpt>
      <trkpt lat="47.1434879761701" lon="4.94382585968829">
        <time>2019-05-17T03:23:32Z</time>
      </trkpt>
      <trkpt lat="47.143618316647" lon="4.94378937061988">
        <time>2019-05-17T03:23:32Z</time>
      </trkpt>
      <trkpt lat="47.143750969511" lon="4.94375053260563">
        <time>2019-05-17T03:23:32Z</time>
      </trkpt>
      <trkpt lat="47.143883699312" lon="4.94371032969765">
        <time>2019-05-17T03:23:32Z</time>
      </trkpt>
      <trkpt lat="47.1440141033872" lon="4.94366963294136">
        <time>2019-05-17T03:23:32Z</time>
      </trkpt>
      <trkpt lat="47.1441398981753" lon="4.94362951758769">
        <time>2019-05-17T03:23:32Z</time>
      </trkpt>
      <trkpt lat="47.1442587624715" lon="4.94359090827536">
        <time>2019-05-17T03:23:32Z</time>
      </trkpt>
      <trkpt lat="47.1443682958493" lon="4.9435548225635">
        <time>2019-05-17T03:23:32Z</time>
      </trkpt>
      <trkpt lat="47.1444662518693" lon="4.94352219119272">
        <time>2019-05-17T03:23:32Z</time>
      </trkpt>
      <trkpt lat="47.1445502832375" lon="4.94349403757984">
        <time>2019-05-17T03:23:32Z</time>
      </trkpt>
      <trkpt lat="47.1446180549399" lon="4.94347133289203">
        <time>2019-05-17T03:23:32Z</time>
      </trkpt>
      <trkpt lat="47.1446753871967" lon="4.9434509077695">
        <time>2019-05-17T03:23:32Z</time>
      </trkpt>
      <trkpt lat="47.1447296997493" lon="4.94342925023849">
        <time>2019-05-17T03:23:32Z</time>
      </trkpt>
      <trkpt lat="47.1447809905123" lon="4.94340711395225">
        <time>2019-05-17T03:23:32Z</time>
      </trkpt>
      <trkpt lat="47.1448292942966" lon="4.94338511775862">
        <time>2019-05-17T03:23:32Z</time>
      </trkpt>
      <trkpt lat="47.1448745940909" lon="4.94336401296414">
        <time>2019-05-17T03:23:32Z</time>
      </trkpt>
      <trkpt lat="47.1449168930392" lon="4.94334437134658">
        <time>2019-05-17T03:23:32Z</time>
      </trkpt>
      <trkpt lat="47.1449562145327" lon="4.94332694862052">
        <time>2019-05-17T03:23:32Z</time>
      </trkpt>
      <trkpt lat="47.1449925851815" lon="4.94331235836347">
        <time>2019-05-17T03:23:32Z</time>
      </trkpt>
      <trkpt lat="47.1450259804851" lon="4.9433012661468">
        <time>2019-05-17T03:23:32Z</time>
      </trkpt>
      <trkpt lat="47.1450564105293" lon="4.94329437825405">
        <time>2019-05-17T03:23:32Z</time>
      </trkpt>
      <trkpt lat="47.1450962067602" lon="4.94329409138666">
        <time>2019-05-17T03:23:32Z</time>
      </trkpt>
      <trkpt lat="47.1451724996478" lon="4.9433649733491">
        <time>2019-05-17T03:23:32Z</time>
      </trkpt>
      <trkpt lat="47.1452009489456" lon="4.94342578938306">
        <time>2019-05-17T03:23:32Z</time>
      </trkpt>
      <trkpt lat="47.145242813207" lon="4.94348804665835">
        <time>2019-05-17T03:23:32Z</time>
      </trkpt>
      <trkpt lat="47.1453094342276" lon="4.94357596596814">
        <time>2019-05-17T03:23:32Z</time>
      </trkpt>
      <trkpt lat="47.1453881664004" lon="4.94367250333781">
        <time>2019-05-17T03:23:32Z</time>
      </trkpt>
      <trkpt lat="47.1454789431625" lon="4.94377917617338">
        <time>2019-05-17T03:23:32Z</time>
      </trkpt>
      <trkpt lat="47.1455786075433" lon="4.94389294850698">
        <time>2019-05-17T03:23:32Z</time>
      </trkpt>
      <trkpt lat="47.1456839726045" lon="4.94401063813596">
        <time>2019-05-17T03:23:32Z</time>
      </trkpt>
      <trkpt lat="47.1457918026967" lon="4.94412915638738">
        <time>2019-05-17T03:23:32Z</time>
      </trkpt>
      <trkpt lat="47.1458988870075" lon="4.94424537183461">
        <time>2019-05-17T03:23:32Z</time>
      </trkpt>
      <trkpt lat="47.1460020775697" lon="4.94435619589872">
        <time>2019-05-17T03:23:32Z</time>
      </trkpt>
      <trkpt lat="47.1460981697102" lon="4.94445849653645">
        <time>2019-05-17T03:23:32Z</time>
      </trkpt>
      <trkpt lat="47.1461839538562" lon="4.94454918695953">
        <time>2019-05-17T03:23:32Z</time>
      </trkpt>
      <trkpt lat="47.1462562237627" lon="4.94462513172288">
        <time>2019-05-17T03:23:32Z</time>
      </trkpt>
      <trkpt lat="47.1463118258972" lon="4.94468324427922">
        <time>2019-05-17T03:23:32Z</time>
      </trkpt>
      <trkpt lat="47.1463538193128" lon="4.94472693892634">
        <time>2019-05-17T03:23:32Z</time>
      </trkpt>
      <trkpt lat="47.1464175517163" lon="4.94477679635947">
        <time>2019-05-17T03:23:32Z</time>
      </trkpt>
      <trkpt lat="47.1464749649431" lon="4.94482015517435">
        <time>2019-05-17T03:23:32Z</time>
      </trkpt>
      <trkpt lat="47.1465324169838" lon="4.94486351434542">
        <time>2019-05-17T03:23:32Z</time>
      </trkpt>
      <trkpt lat="47.1465898379306" lon="4.94490682493498">
        <time>2019-05-17T03:23:32Z</time>
      </trkpt>
      <trkpt lat="47.1466472511014" lon="4.9449501352397">
        <time>2019-05-17T03:23:32Z</time>
      </trkpt>
      <trkpt lat="47.1467046698975" lon="4.94499353942304">
        <time>2019-05-17T03:23:32Z</time>
      </trkpt>
      <trkpt lat="47.1467620841421" lon="4.94503684996728">
        <time>2019-05-17T03:23:32Z</time>
      </trkpt>
      <trkpt lat="47.1468195360965" lon="4.94508020960263">
        <time>2019-05-17T03:23:32Z</time>
      </trkpt>
      <trkpt lat="47.1468769558897" lon="4.94512356776651">
        <time>2019-05-17T03:23:32Z</time>
      </trkpt>
      <trkpt lat="47.14693436787" lon="4.94516692727012">
        <time>2019-05-17T03:23:32Z</time>
      </trkpt>
      <trkpt lat="47.1469917809741" lon="4.94521023650705">
        <time>2019-05-17T03:23:32Z</time>
      </trkpt>
      <trkpt lat="47.147049233931" lon="4.94525359819232">
        <time>2019-05-17T03:23:32Z</time>
      </trkpt>
      <trkpt lat="47.1471066537104" lon="4.9452969542908">
        <time>2019-05-17T03:23:32Z</time>
      </trkpt>
      <trkpt lat="47.1471640666891" lon="4.94534026705508">
        <time>2019-05-17T03:23:32Z</time>
      </trkpt>
      <trkpt lat="47.1472215102464" lon="4.94538362531137">
        <time>2019-05-17T03:23:32Z</time>
      </trkpt>
      <trkpt lat="47.1472869991835" lon="4.94543273717787">
        <time>2019-05-17T03:23:32Z</time>
      </trkpt>
      <trkpt lat="47.1473209258772" lon="4.94545706406517">
        <time>2019-05-17T03:23:32Z</time>
      </trkpt>
      <trkpt lat="47.1473512695325" lon="4.94547891942533">
        <time>2019-05-17T03:23:32Z</time>
      </trkpt>
      <trkpt lat="47.1473883212604" lon="4.94550577858077">
        <time>2019-05-17T03:23:32Z</time>
      </trkpt>
      <trkpt lat="47.1474311848983" lon="4.94553703522852">
        <time>2019-05-17T03:23:32Z</time>
      </trkpt>
      <trkpt lat="47.1474790109109" lon="4.94557208208178">
        <time>2019-05-17T03:23:32Z</time>
      </trkpt>
      <trkpt lat="47.1475309395394" lon="4.94561044471136">
        <time>2019-05-17T03:23:32Z</time>
      </trkpt>
      <trkpt lat="47.1475860651049" lon="4.94565147162179">
        <time>2019-05-17T03:23:32Z</time>
      </trkpt>
      <trkpt lat="47.1476435061397" lon="4.94569464259681">
        <time>2019-05-17T03:23:32Z</time>
      </trkpt>
      <trkpt lat="47.1477024031533" lon="4.94573934903834">
        <time>2019-05-17T03:23:32Z</time>
      </trkpt>
      <trkpt lat="47.147761876631" lon="4.94578498462088">
        <time>2019-05-17T03:23:32Z</time>
      </trkpt>
      <trkpt lat="47.1478210883397" lon="4.94583108000739">
        <time>2019-05-17T03:23:32Z</time>
      </trkpt>
      <trkpt lat="47.1478790796441" lon="4.94587701931765">
        <time>2019-05-17T03:23:32Z</time>
      </trkpt>
      <trkpt lat="47.1479350552308" lon="4.94592215314542">
        <time>2019-05-17T03:23:32Z</time>
      </trkpt>
      <trkpt lat="47.1479881076936" lon="4.94596610228364">
        <time>2019-05-17T03:23:32Z</time>
      </trkpt>
      <trkpt lat="47.1480392097445" lon="4.94600783338608">
        <time>2019-05-17T03:23:32Z</time>
      </trkpt>
      <trkpt lat="47.1480900540701" lon="4.94604737355747">
        <time>2019-05-17T03:23:32Z</time>
      </trkpt>
      <trkpt lat="47.1481406770583" lon="4.94608534500647">
        <time>2019-05-17T03:23:32Z</time>
      </trkpt>
      <trkpt lat="47.1481910222146" lon="4.94612240445394">
        <time>2019-05-17T03:23:32Z</time>
      </trkpt>
      <trkpt lat="47.1482411875894" lon="4.94615917061042">
        <time>2019-05-17T03:23:32Z</time>
      </trkpt>
      <trkpt lat="47.1482912412311" lon="4.94619626398102">
        <time>2019-05-17T03:23:32Z</time>
      </trkpt>
      <trkpt lat="47.148341166623" lon="4.94623438877788">
        <time>2019-05-17T03:23:32Z</time>
      </trkpt>
      <trkpt lat="47.1483909768278" lon="4.94627407013282">
        <time>2019-05-17T03:23:32Z</time>
      </trkpt>
      <trkpt lat="47.1484407672392" lon="4.94631601933822">
        <time>2019-05-17T03:23:32Z</time>
      </trkpt>
      <trkpt lat="47.1484905089534" lon="4.94636085056211">
        <time>2019-05-17T03:23:32Z</time>
      </trkpt>
      <trkpt lat="47.1485403150374" lon="4.94640922961219">
        <time>2019-05-17T03:23:32Z</time>
      </trkpt>
      <trkpt lat="47.148590123791" lon="4.94646172434009">
        <time>2019-05-17T03:23:32Z</time>
      </trkpt>
      <trkpt lat="47.148640033392" lon="4.94651904537126">
        <time>2019-05-17T03:23:32Z</time>
      </trkpt>
      <trkpt lat="47.1486900631429" lon="4.94658176044088">
        <time>2019-05-17T03:23:32Z</time>
      </trkpt>
      <trkpt lat="47.1487402761369" lon="4.94665058579019">
        <time>2019-05-17T03:23:32Z</time>
      </trkpt>
      <trkpt lat="47.1487906207672" lon="4.94672603528974">
        <time>2019-05-17T03:23:32Z</time>
      </trkpt>
      <trkpt lat="47.148844683184" lon="4.94680544888262">
        <time>2019-05-17T03:23:32Z</time>
      </trkpt>
      <trkpt lat="47.148905086097" lon="4.94688507792298">
        <time>2019-05-17T03:23:32Z</time>
      </trkpt>
      <trkpt lat="47.1489704063329" lon="4.94696414240871">
        <time>2019-05-17T03:23:32Z</time>
      </trkpt>
      <trkpt lat="47.1490393670707" lon="4.94704191661779">
        <time>2019-05-17T03:23:32Z</time>
      </trkpt>
      <trkpt lat="47.1491105838688" lon="4.94711772324436">
        <time>2019-05-17T03:23:32Z</time>
      </trkpt>
      <trkpt lat="47.149182676289" lon="4.94719078189172">
        <time>2019-05-17T03:23:32Z</time>
      </trkpt>
      <trkpt lat="47.1492543480451" lon="4.94726036910683">
        <time>2019-05-17T03:23:32Z</time>
      </trkpt>
      <trkpt lat="47.1493242186139" lon="4.94732575732268">
        <time>2019-05-17T03:23:32Z</time>
      </trkpt>
      <trkpt lat="47.149390912054" lon="4.94738621268002">
        <time>2019-05-17T03:23:32Z</time>
      </trkpt>
      <trkpt lat="47.1494530964824" lon="4.94744096686409">
        <time>2019-05-17T03:23:32Z</time>
      </trkpt>
      <trkpt lat="47.1495094431069" lon="4.94748933546225">
        <time>2019-05-17T03:23:32Z</time>
      </trkpt>
      <trkpt lat="47.1495585629809" lon="4.94753054655611">
        <time>2019-05-17T03:23:32Z</time>
      </trkpt>
      <trkpt lat="47.1495991378023" lon="4.94756386907357">
        <time>2019-05-17T03:23:32Z</time>
      </trkpt>
      <trkpt lat="47.149629787586" lon="4.94758857625769">
        <time>2019-05-17T03:23:32Z</time>
      </trkpt>
      <trkpt lat="47.1496525394029" lon="4.94760661114095">
        <time>2019-05-17T03:23:32Z</time>
      </trkpt>
      <trkpt lat="47.1496717992634" lon="4.94761894299314">
        <time>2019-05-17T03:23:32Z</time>
      </trkpt>
      <trkpt lat="47.1497169371803" lon="4.94764662486648">
        <time>2019-05-17T03:23:32Z</time>
      </trkpt>
      <trkpt lat="47.1497876790534" lon="4.94768997526785">
        <time>2019-05-17T03:23:32Z</time>
      </trkpt>
      <trkpt lat="47.1498802779066" lon="4.94774673162843">
        <time>2019-05-17T03:23:32Z</time>
      </trkpt>
      <trkpt lat="47.149991098749" lon="4.94781463521447">
        <time>2019-05-17T03:23:32Z</time>
      </trkpt>
      <trkpt lat="47.1501163796631" lon="4.94789147070174">
        <time>2019-05-17T03:23:32Z</time>
      </trkpt>
      <trkpt lat="47.1502525177677" lon="4.94797493371935">
        <time>2019-05-17T03:23:32Z</time>
      </trkpt>
      <trkpt lat="47.1503957001311" lon="4.9480628080226">
        <time>2019-05-17T03:23:32Z</time>
      </trkpt>
      <trkpt lat="47.1505423334008" lon="4.94815283435117">
        <time>2019-05-17T03:23:32Z</time>
      </trkpt>
      <trkpt lat="47.1506886638427" lon="4.94824270654814">
        <time>2019-05-17T03:23:32Z</time>
      </trkpt>
      <trkpt lat="47.1508310144771" lon="4.9483302571386">
        <time>2019-05-17T03:23:32Z</time>
      </trkpt>
      <trkpt lat="47.1509656820699" lon="4.94841313109702">
        <time>2019-05-17T03:23:32Z</time>
      </trkpt>
      <trkpt lat="47.1510890045423" lon="4.94848911604489">
        <time>2019-05-17T03:23:32Z</time>
      </trkpt>
      <trkpt lat="47.1511972288734" lon="4.94855594878431">
        <time>2019-05-17T03:23:32Z</time>
      </trkpt>
      <trkpt lat="47.151286711153" lon="4.94861142345681">
        <time>2019-05-17T03:23:32Z</time>
      </trkpt>
      <trkpt lat="47.1513537323135" lon="4.94865317439508">
        <time>2019-05-17T03:23:32Z</time>
      </trkpt>
      <trkpt lat="47.1514121023991" lon="4.94868618623916">
        <time>2019-05-17T03:23:32Z</time>
      </trkpt>
      <trkpt lat="47.1514771573646" lon="4.94871678099763">
        <time>2019-05-17T03:23:32Z</time>
      </trkpt>
      <trkpt lat="47.1515474669709" lon="4.94874507762944">
        <time>2019-05-17T03:23:32Z</time>
      </trkpt>
      <trkpt lat="47.1516215869469" lon="4.94877100655253">
        <time>2019-05-17T03:23:32Z</time>
      </trkpt>
      <trkpt lat="47.1516980166693" lon="4.94879468328736">
        <time>2019-05-17T03:23:32Z</time>
      </trkpt>
      <trkpt lat="47.1517754166326" lon="4.94881609133098">
        <time>2019-05-17T03:23:32Z</time>
      </trkpt>
      <trkpt lat="47.1518522379583" lon="4.94883529667981">
        <time>2019-05-17T03:23:32Z</time>
      </trkpt>
      <trkpt lat="47.1519271389843" lon="4.94885237786833">
        <time>2019-05-17T03:23:32Z</time>
      </trkpt>
      <trkpt lat="47.1519986085469" lon="4.94886725472182">
        <time>2019-05-17T03:23:32Z</time>
      </trkpt>
      <trkpt lat="47.1520652190669" lon="4.94888005119152">
        <time>2019-05-17T03:23:32Z</time>
      </trkpt>
      <trkpt lat="47.1521255390249" lon="4.94889079588953">
        <time>2019-05-17T03:23:32Z</time>
      </trkpt>
      <trkpt lat="47.1521781488164" lon="4.9488995058107">
        <time>2019-05-17T03:23:32Z</time>
      </trkpt>
      <trkpt lat="47.1522215437699" lon="4.94890625479614">
        <time>2019-05-17T03:23:32Z</time>
      </trkpt>
      <trkpt lat="47.1522543384147" lon="4.94891097367817">
        <time>2019-05-17T03:23:32Z</time>
      </trkpt>
      <trkpt lat="47.1522853502049" lon="4.94891455334636">
        <time>2019-05-17T03:23:32Z</time>
      </trkpt>
      <trkpt lat="47.1523288623416" lon="4.94891696868363">
        <time>2019-05-17T03:23:32Z</time>
      </trkpt>
      <trkpt lat="47.152372506681" lon="4.94892160245156">
        <time>2019-05-17T03:23:32Z</time>
      </trkpt>
      <trkpt lat="47.1524091120653" lon="4.94892726341098">
        <time>2019-05-17T03:23:32Z</time>
      </trkpt>
      <trkpt lat="47.1524507035992" lon="4.94893529564767">
        <time>2019-05-17T03:23:32Z</time>
      </trkpt>
      <trkpt lat="47.1524967778715" lon="4.94894619672506">
        <time>2019-05-17T03:23:32Z</time>
      </trkpt>
      <trkpt lat="47.152546793394" lon="4.94896040624023">
        <time>2019-05-17T03:23:32Z</time>
      </trkpt>
      <trkpt lat="47.1526002748296" lon="4.94897833367482">
        <time>2019-05-17T03:23:32Z</time>
      </trkpt>
      <trkpt lat="47.1526566911453" lon="4.94900042239351">
        <time>2019-05-17T03:23:32Z</time>
      </trkpt>
      <trkpt lat="47.1527154890444" lon="4.94902706995026">
        <time>2019-05-17T03:23:32Z</time>
      </trkpt>
      <trkpt lat="47.152776236568" lon="4.94905877903049">
        <time>2019-05-17T03:23:32Z</time>
      </trkpt>
      <trkpt lat="47.1528383438401" lon="4.94909594540919">
        <time>2019-05-17T03:23:32Z</time>
      </trkpt>
      <trkpt lat="47.1529013423723" lon="4.94913896996676">
        <time>2019-05-17T03:23:32Z</time>
      </trkpt>
      <trkpt lat="47.1529646982261" lon="4.94918830162805">
        <time>2019-05-17T03:23:32Z</time>
      </trkpt>
      <trkpt lat="47.1530322712383" lon="4.94923949068414">
        <time>2019-05-17T03:23:32Z</time>
      </trkpt>
      <trkpt lat="47.153107475653" lon="4.9492876509429">
        <time>2019-05-17T03:23:32Z</time>
      </trkpt>
      <trkpt lat="47.153188919962" lon="4.94933271050637">
        <time>2019-05-17T03:23:32Z</time>
      </trkpt>
      <trkpt lat="47.1532753040685" lon="4.94937470114137">
        <time>2019-05-17T03:23:32Z</time>
      </trkpt>
      <trkpt lat="47.1533653027767" lon="4.94941341591807">
        <time>2019-05-17T03:23:32Z</time>
      </trkpt>
      <trkpt lat="47.1534576503504" lon="4.94944888826659">
        <time>2019-05-17T03:23:32Z</time>
      </trkpt>
      <trkpt lat="47.1535509667719" lon="4.94948105333093">
        <time>2019-05-17T03:23:32Z</time>
      </trkpt>
      <trkpt lat="47.1536439425706" lon="4.94950979357627">
        <time>2019-05-17T03:23:32Z</time>
      </trkpt>
      <trkpt lat="47.153735270258" lon="4.949535099723">
        <time>2019-05-17T03:23:32Z</time>
      </trkpt>
      <trkpt lat="47.1538236220747" lon="4.94955685333869">
        <time>2019-05-17T03:23:32Z</time>
      </trkpt>
      <trkpt lat="47.153907717743" lon="4.94957504402691">
        <time>2019-05-17T03:23:32Z</time>
      </trkpt>
      <trkpt lat="47.1539861612074" lon="4.94958955571566">
        <time>2019-05-17T03:23:32Z</time>
      </trkpt>
      <trkpt lat="47.1540576884275" lon="4.94960037148073">
        <time>2019-05-17T03:23:32Z</time>
      </trkpt>
      <trkpt lat="47.1541209791833" lon="4.94960743181075">
        <time>2019-05-17T03:23:32Z</time>
      </trkpt>
      <trkpt lat="47.15417470407" lon="4.94961061738111">
        <time>2019-05-17T03:23:32Z</time>
      </trkpt>
      <trkpt lat="47.1542175356808" lon="4.94960986752223">
        <time>2019-05-17T03:23:32Z</time>
      </trkpt>
      <trkpt lat="47.1542563428397" lon="4.94960703142465">
        <time>2019-05-17T03:23:32Z</time>
      </trkpt>
      <trkpt lat="47.1542985242436" lon="4.94960398168109">
        <time>2019-05-17T03:23:32Z</time>
      </trkpt>
      <trkpt lat="47.1543436588365" lon="4.94960088724979">
        <time>2019-05-17T03:23:32Z</time>
      </trkpt>
      <trkpt lat="47.154391228159" lon="4.94959805303427">
        <time>2019-05-17T03:23:32Z</time>
      </trkpt>
      <trkpt lat="47.1544408332656" lon="4.94959560271671">
        <time>2019-05-17T03:23:32Z</time>
      </trkpt>
      <trkpt lat="47.1544919806106" lon="4.94959369684366">
        <time>2019-05-17T03:23:32Z</time>
      </trkpt>
      <trkpt lat="47.1545442312377" lon="4.94959251082308">
        <time>2019-05-17T03:23:32Z</time>
      </trkpt>
      <trkpt lat="47.1545970812445" lon="4.94959234376603">
        <time>2019-05-17T03:23:32Z</time>
      </trkpt>
      <trkpt lat="47.1546501000014" lon="4.94959327308354">
        <time>2019-05-17T03:23:32Z</time>
      </trkpt>
      <trkpt lat="47.1547028403891" lon="4.94959551607764">
        <time>2019-05-17T03:23:32Z</time>
      </trkpt>
      <trkpt lat="47.1547548167521" lon="4.94959927678645">
        <time>2019-05-17T03:23:32Z</time>
      </trkpt>
      <trkpt lat="47.1548055634956" lon="4.94960473094919">
        <time>2019-05-17T03:23:32Z</time>
      </trkpt>
      <trkpt lat="47.1548546552613" lon="4.94961209042449">
        <time>2019-05-17T03:23:32Z</time>
      </trkpt>
      <trkpt lat="47.1549016083683" lon="4.94962152112424">
        <time>2019-05-17T03:23:32Z</time>
      </trkpt>
      <trkpt lat="47.154945979151" lon="4.94963323482777">
        <time>2019-05-17T03:23:32Z</time>
      </trkpt>
      <trkpt lat="47.1549872467414" lon="4.94964739807299">
        <time>2019-05-17T03:23:32Z</time>
      </trkpt>
      <trkpt lat="47.1550395414941" lon="4.94967098969122">
        <time>2019-05-17T03:23:32Z</time>
      </trkpt>
      <trkpt lat="47.1551146849903" lon="4.94970940722794">
        <time>2019-05-17T03:23:32Z</time>
      </trkpt>
      <trkpt lat="47.1552090898939" lon="4.94976039633144">
        <time>2019-05-17T03:23:32Z</time>
      </trkpt>
      <trkpt lat="47.1553191344318" lon="4.94982165542861">
        <time>2019-05-17T03:23:32Z</time>
      </trkpt>
      <trkpt lat="47.1554412376074" lon="4.94989096868768">
        <time>2019-05-17T03:23:32Z</time>
      </trkpt>
      <trkpt lat="47.1555716739293" lon="4.94996613109686">
        <time>2019-05-17T03:23:32Z</time>
      </trkpt>
      <trkpt lat="47.1557069115982" lon="4.95004478846543">
        <time>2019-05-17T03:23:32Z</time>
      </trkpt>
      <trkpt lat="47.1558433294719" lon="4.95012473428745">
        <time>2019-05-17T03:23:32Z</time>
      </trkpt>
      <trkpt lat="47.1559772294521" lon="4.95020370620993">
        <time>2019-05-17T03:23:32Z</time>
      </trkpt>
      <trkpt lat="47.1561050226457" lon="4.95027949514553">
        <time>2019-05-17T03:23:32Z</time>
      </trkpt>
      <trkpt lat="47.1562231344973" lon="4.95034979832471">
        <time>2019-05-17T03:23:32Z</time>
      </trkpt>
      <trkpt lat="47.156312942865" lon="4.95042384420429">
        <time>2019-05-17T03:23:32Z</time>
      </trkpt>
      <trkpt lat="47.156373835473" lon="4.95046014454301">
        <time>2019-05-17T03:23:32Z</time>
      </trkpt>
      <trkpt lat="47.1564074181182" lon="4.95048320872765">
        <time>2019-05-17T03:23:32Z</time>
      </trkpt>
      <trkpt lat="47.1564634971257" lon="4.9505168938985">
        <time>2019-05-17T03:23:32Z</time>
      </trkpt>
      <trkpt lat="47.1565035154696" lon="4.95054265339797">
        <time>2019-05-17T03:23:32Z</time>
      </trkpt>
      <trkpt lat="47.1565483192792" lon="4.95057221753333">
        <time>2019-05-17T03:23:32Z</time>
      </trkpt>
      <trkpt lat="47.1574835386131" lon="4.9509870866533">
        <time>2019-05-17T03:23:32Z</time>
      </trkpt>
      <trkpt lat="47.1581774131868" lon="4.95102093936">
        <time>2019-05-17T03:23:32Z</time>
      </trkpt>
      <trkpt lat="47.1585730548153" lon="4.95130821863671">
        <time>2019-05-17T03:23:32Z</time>
      </trkpt>
      <trkpt lat="47.1588494074863" lon="4.95201844146884">
        <time>2019-05-17T03:23:32Z</time>
      </trkpt>
      <trkpt lat="47.1591355074756" lon="4.95230038798051">
        <time>2019-05-17T03:23:32Z</time>
      </trkpt>
      <trkpt lat="47.160236974334" lon="4.95245233640937">
        <time>2019-05-17T03:23:32Z</time>
      </trkpt>
      <trkpt lat="47.1603382133193" lon="4.95246630275156">
        <time>2019-05-17T03:23:32Z</time>
      </trkpt>
      <trkpt lat="47.1604940520473" lon="4.95204513988791">
        <time>2019-05-17T03:23:32Z</time>
      </trkpt>
      <trkpt lat="47.1609103606765" lon="4.95142227085412">
        <time>2019-05-17T03:23:32Z</time>
      </trkpt>
      <trkpt lat="47.1608884133818" lon="4.9507780615757">
        <time>2019-05-17T03:23:32Z</time>
      </trkpt>
      <trkpt lat="47.1609154553603" lon="4.95078826518278">
        <time>2019-05-17T03:23:32Z</time>
      </trkpt>
      <trkpt lat="47.1615409277131" lon="4.95102426326296">
        <time>2019-05-17T03:23:32Z</time>
      </trkpt>
      <trkpt lat="47.161946292667" lon="4.9508832531254">
        <time>2019-05-17T03:23:32Z</time>
      </trkpt>
      <trkpt lat="47.1623492331062" lon="4.95084933187575">
        <time>2019-05-17T03:23:32Z</time>
      </trkpt>
      <trkpt lat="47.1631904040618" lon="4.95083674393023">
        <time>2019-05-17T03:23:32Z</time>
      </trkpt>
      <trkpt lat="47.1636700226797" lon="4.95064572156616">
        <time>2019-05-17T03:23:32Z</time>
      </trkpt>
      <trkpt lat="47.1640449391437" lon="4.95023521398776">
        <time>2019-05-17T03:23:32Z</time>
      </trkpt>
      <trkpt lat="47.1642970086049" lon="4.95024750982355">
        <time>2019-05-17T03:23:32Z</time>
      </trkpt>
      <trkpt lat="47.1644101498426" lon="4.95025302884054">
        <time>2019-05-17T03:23:32Z</time>
      </trkpt>
      <trkpt lat="47.1641204752048" lon="4.9517397246962">
        <time>2019-05-17T03:23:32Z</time>
      </trkpt>
      <trkpt lat="47.1641957862507" lon="4.95175487683515">
        <time>2019-05-17T03:23:32Z</time>
      </trkpt>
      <trkpt lat="47.1651759195949" lon="4.95195208417091">
        <time>2019-05-17T03:23:32Z</time>
      </trkpt>
      <trkpt lat="47.166057267425" lon="4.95178067371922">
        <time>2019-05-17T03:23:32Z</time>
      </trkpt>
      <trkpt lat="47.1666864587687" lon="4.9518113849391">
        <time>2019-05-17T03:23:32Z</time>
      </trkpt>
      <trkpt lat="47.1670067892574" lon="4.9518270207483">
        <time>2019-05-17T03:23:32Z</time>
      </trkpt>
      <trkpt lat="47.1678467399211" lon="4.95186802088865">
        <time>2019-05-17T03:23:32Z</time>
      </trkpt>
      <trkpt lat="47.17067706976" lon="4.95281030355621">
        <time>2019-05-17T03:23:32Z</time>
      </trkpt>
      <trkpt lat="47.1714464367541" lon="4.95274064825145">
        <time>2019-05-17T03:23:32Z</time>
      </trkpt>
      <trkpt lat="47.172025869902" lon="4.95298339985309">
        <time>2019-05-17T03:23:32Z</time>
      </trkpt>
      <trkpt lat="47.173116604045" lon="4.95325108493868">
        <time>2019-05-17T03:23:32Z</time>
      </trkpt>
      <trkpt lat="47.173155035705" lon="4.95327197954197">
        <time>2019-05-17T03:23:32Z</time>
      </trkpt>
      <trkpt lat="47.1735967254945" lon="4.95351213177529">
        <time>2019-05-17T03:23:32Z</time>
      </trkpt>
      <trkpt lat="47.173983347337" lon="4.95372234592601">
        <time>2019-05-17T03:23:32Z</time>
      </trkpt>
      <trkpt lat="47.1747572623557" lon="4.95372782132223">
        <time>2019-05-17T03:23:32Z</time>
      </trkpt>
      <trkpt lat="47.1749927721192" lon="4.95384038188897">
        <time>2019-05-17T03:23:32Z</time>
      </trkpt>
      <trkpt lat="47.1752307864406" lon="4.95411843032659">
        <time>2019-05-17T03:23:32Z</time>
      </trkpt>
      <trkpt lat="47.1756214957337" lon="4.95456930724153">
        <time>2019-05-17T03:23:32Z</time>
      </trkpt>
      <trkpt lat="47.1758359362952" lon="4.95478190089998">
        <time>2019-05-17T03:23:32Z</time>
      </trkpt>
      <trkpt lat="47.1762934870615" lon="4.95510298391453">
        <time>2019-05-17T03:23:32Z</time>
      </trkpt>
      <trkpt lat="47.1764059966487" lon="4.95500732759362">
        <time>2019-05-17T03:23:32Z</time>
      </trkpt>
      <trkpt lat="47.1767153826065" lon="4.95500507111441">
        <time>2019-05-17T03:23:32Z</time>
      </trkpt>
      <trkpt lat="47.1768432354674" lon="4.95504600608716">
        <time>2019-05-17T03:23:32Z</time>
      </trkpt>
      <trkpt lat="47.1769670953826" lon="4.95510746531813">
        <time>2019-05-17T03:23:32Z</time>
      </trkpt>
      <trkpt lat="47.1769757654996" lon="4.95507180334017">
        <time>2019-05-17T03:23:32Z</time>
      </trkpt>
      <trkpt lat="47.1769826393209" lon="4.95503486324329">
        <time>2019-05-17T03:23:32Z</time>
      </trkpt>
      <trkpt lat="47.1770603881717" lon="4.95491911329471">
        <time>2019-05-17T03:23:32Z</time>
      </trkpt>
      <trkpt lat="47.1771272214521" lon="4.95479892255997">
        <time>2019-05-17T03:23:32Z</time>
      </trkpt>
      <trkpt lat="47.1771847679438" lon="4.95466587501416">
        <time>2019-05-17T03:23:32Z</time>
      </trkpt>
      <trkpt lat="47.1772336486518" lon="4.95452313505489">
        <time>2019-05-17T03:23:32Z</time>
      </trkpt>
      <trkpt lat="47.1772746384201" lon="4.95437381196485">
        <time>2019-05-17T03:23:32Z</time>
      </trkpt>
      <trkpt lat="47.1773084056456" lon="4.95422101227312">
        <time>2019-05-17T03:23:32Z</time>
      </trkpt>
      <trkpt lat="47.1773356618028" lon="4.95406790075599">
        <time>2019-05-17T03:23:32Z</time>
      </trkpt>
      <trkpt lat="47.17735707013" lon="4.9539175682338">
        <time>2019-05-17T03:23:32Z</time>
      </trkpt>
      <trkpt lat="47.1773733497643" lon="4.95377323436315">
        <time>2019-05-17T03:23:32Z</time>
      </trkpt>
      <trkpt lat="47.1773851918325" lon="4.95363796039793">
        <time>2019-05-17T03:23:32Z</time>
      </trkpt>
      <trkpt lat="47.1773933066871" lon="4.95351488988324">
        <time>2019-05-17T03:23:32Z</time>
      </trkpt>
      <trkpt lat="47.1773983758914" lon="4.95340718854248">
        <time>2019-05-17T03:23:32Z</time>
      </trkpt>
      <trkpt lat="47.1774010781659" lon="4.95331287179799">
        <time>2019-05-17T03:23:32Z</time>
      </trkpt>
      <trkpt lat="47.1774034601442" lon="4.95324383942449">
        <time>2019-05-17T03:23:32Z</time>
      </trkpt>
      <trkpt lat="47.1774205059342" lon="4.95321248971416">
        <time>2019-05-17T03:23:32Z</time>
      </trkpt>
      <trkpt lat="47.1774387336477" lon="4.95320123450833">
        <time>2019-05-17T03:23:32Z</time>
      </trkpt>
      <trkpt lat="47.1774835171882" lon="4.95321075432244">
        <time>2019-05-17T03:23:32Z</time>
      </trkpt>
      <trkpt lat="47.1775429543726" lon="4.95322330630149">
        <time>2019-05-17T03:23:32Z</time>
      </trkpt>
      <trkpt lat="47.1776151888888" lon="4.95323847108903">
        <time>2019-05-17T03:23:32Z</time>
      </trkpt>
      <trkpt lat="47.17769840767" lon="4.95325578181041">
        <time>2019-05-17T03:23:32Z</time>
      </trkpt>
      <trkpt lat="47.177790709034" lon="4.95327481363606">
        <time>2019-05-17T03:23:32Z</time>
      </trkpt>
      <trkpt lat="47.1778902095873" lon="4.95329514262622">
        <time>2019-05-17T03:23:32Z</time>
      </trkpt>
      <trkpt lat="47.1779950917929" lon="4.95331625448724">
        <time>2019-05-17T03:23:32Z</time>
      </trkpt>
      <trkpt lat="47.1781034722405" lon="4.95333777489858">
        <time>2019-05-17T03:23:32Z</time>
      </trkpt>
      <trkpt lat="47.1782135006964" lon="4.95335918795701">
        <time>2019-05-17T03:23:32Z</time>
      </trkpt>
      <trkpt lat="47.1783232645459" lon="4.95338015939741">
        <time>2019-05-17T03:23:32Z</time>
      </trkpt>
      <trkpt lat="47.1784309439257" lon="4.95340013085113">
        <time>2019-05-17T03:23:32Z</time>
      </trkpt>
      <trkpt lat="47.178534689788" lon="4.95341872965102">
        <time>2019-05-17T03:23:32Z</time>
      </trkpt>
      <trkpt lat="47.1786326165257" lon="4.95343548288984">
        <time>2019-05-17T03:23:32Z</time>
      </trkpt>
      <trkpt lat="47.1787228480469" lon="4.95345001168781">
        <time>2019-05-17T03:23:32Z</time>
      </trkpt>
      <trkpt lat="47.1788055031479" lon="4.95346053021431">
        <time>2019-05-17T03:23:32Z</time>
      </trkpt>
      <trkpt lat="47.1788822269129" lon="4.95346588778789">
        <time>2019-05-17T03:23:32Z</time>
      </trkpt>
      <trkpt lat="47.1789535652654" lon="4.95346615824557">
        <time>2019-05-17T03:23:32Z</time>
      </trkpt>
      <trkpt lat="47.1790200000271" lon="4.95346150179624">
        <time>2019-05-17T03:23:32Z</time>
      </trkpt>
      <trkpt lat="47.179081991241" lon="4.95345218254729">
        <time>2019-05-17T03:23:32Z</time>
      </trkpt>
      <trkpt lat="47.179140123068" lon="4.95343827621392">
        <time>2019-05-17T03:23:32Z</time>
      </trkpt>
      <trkpt lat="47.1791948195634" lon="4.95341999470536">
        <time>2019-05-17T03:23:32Z</time>
      </trkpt>
      <trkpt lat="47.1792466268513" lon="4.95339745175062">
        <time>2019-05-17T03:23:32Z</time>
      </trkpt>
      <trkpt lat="47.1792960070963" lon="4.95337086681939">
        <time>2019-05-17T03:23:32Z</time>
      </trkpt>
      <trkpt lat="47.1793435047602" lon="4.95334040237982">
        <time>2019-05-17T03:23:32Z</time>
      </trkpt>
      <trkpt lat="47.1793896019566" lon="4.95330618124075">
        <time>2019-05-17T03:23:32Z</time>
      </trkpt>
      <trkpt lat="47.1794347643592" lon="4.95326841490831">
        <time>2019-05-17T03:23:32Z</time>
      </trkpt>
      <trkpt lat="47.1794795385343" lon="4.95322722201667">
        <time>2019-05-17T03:23:32Z</time>
      </trkpt>
      <trkpt lat="47.179524417274" lon="4.95318281702289">
        <time>2019-05-17T03:23:32Z</time>
      </trkpt>
      <trkpt lat="47.1795698922051" lon="4.95313531912995">
        <time>2019-05-17T03:23:32Z</time>
      </trkpt>
      <trkpt lat="47.1796164610707" lon="4.95308494466174">
        <time>2019-05-17T03:23:32Z</time>
      </trkpt>
      <trkpt lat="47.1796611160978" lon="4.95303631627361">
        <time>2019-05-17T03:23:32Z</time>
      </trkpt>
      <trkpt lat="47.1797011603475" lon="4.95299380658102">
        <time>2019-05-17T03:23:32Z</time>
      </trkpt>
      <trkpt lat="47.1797374931906" lon="4.95295707305616">
        <time>2019-05-17T03:23:32Z</time>
      </trkpt>
      <trkpt lat="47.1797709620654" lon="4.95292564125896">
        <time>2019-05-17T03:23:32Z</time>
      </trkpt>
      <trkpt lat="47.1798024839642" lon="4.952899223212">
        <time>2019-05-17T03:23:32Z</time>
      </trkpt>
      <trkpt lat="47.1798330006486" lon="4.95287739301035">
        <time>2019-05-17T03:23:32Z</time>
      </trkpt>
      <trkpt lat="47.1798633437799" lon="4.95285980886947">
        <time>2019-05-17T03:23:32Z</time>
      </trkpt>
      <trkpt lat="47.1798944406719" lon="4.95284604580075">
        <time>2019-05-17T03:23:32Z</time>
      </trkpt>
      <trkpt lat="47.1799271970062" lon="4.95283572738982">
        <time>2019-05-17T03:23:32Z</time>
      </trkpt>
      <trkpt lat="47.179962512147" lon="4.95282851108597">
        <time>2019-05-17T03:23:32Z</time>
      </trkpt>
      <trkpt lat="47.1800012491573" lon="4.95282401595063">
        <time>2019-05-17T03:23:32Z</time>
      </trkpt>
      <trkpt lat="47.1800443514574" lon="4.95282181615071">
        <time>2019-05-17T03:23:32Z</time>
      </trkpt>
      <trkpt lat="47.1800926755528" lon="4.95282157517739">
        <time>2019-05-17T03:23:32Z</time>
      </trkpt>
      <trkpt lat="47.1801471471658" lon="4.95282286470529">
        <time>2019-05-17T03:23:32Z</time>
      </trkpt>
      <trkpt lat="47.1802086500136" lon="4.95282539593235">
        <time>2019-05-17T03:23:32Z</time>
      </trkpt>
      <trkpt lat="47.1802780771382" lon="4.95282868930321">
        <time>2019-05-17T03:23:32Z</time>
      </trkpt>
      <trkpt lat="47.1803456772269" lon="4.95282849074092">
        <time>2019-05-17T03:23:32Z</time>
      </trkpt>
      <trkpt lat="47.1804017895757" lon="4.95282134470133">
        <time>2019-05-17T03:23:32Z</time>
      </trkpt>
      <trkpt lat="47.1804816544108" lon="4.95279077577034">
        <time>2019-05-17T03:23:32Z</time>
      </trkpt>
      <trkpt lat="47.1805108460297" lon="4.95276758354333">
        <time>2019-05-17T03:23:32Z</time>
      </trkpt>
      <trkpt lat="47.1805374344214" lon="4.95272836609023">
        <time>2019-05-17T03:23:32Z</time>
      </trkpt>
      <trkpt lat="47.1805534003721" lon="4.95267128830531">
        <time>2019-05-17T03:23:32Z</time>
      </trkpt>
      <trkpt lat="47.1805529234711" lon="4.95261527884782">
        <time>2019-05-17T03:23:32Z</time>
      </trkpt>
      <trkpt lat="47.1805438794344" lon="4.95256797860226">
        <time>2019-05-17T03:23:32Z</time>
      </trkpt>
      <trkpt lat="47.1805330586626" lon="4.95253424802945">
        <time>2019-05-17T03:23:32Z</time>
      </trkpt>
      <trkpt lat="47.1805475470725" lon="4.95241178329801">
        <time>2019-05-17T03:23:32Z</time>
      </trkpt>
      <trkpt lat="47.1805796024418" lon="4.95226258276745">
        <time>2019-05-17T03:23:32Z</time>
      </trkpt>
      <trkpt lat="47.1806248911346" lon="4.95208573733453">
        <time>2019-05-17T03:23:32Z</time>
      </trkpt>
      <trkpt lat="47.1806814328673" lon="4.95188625827041">
        <time>2019-05-17T03:23:32Z</time>
      </trkpt>
      <trkpt lat="47.180747091403" lon="4.95166906218773">
        <time>2019-05-17T03:23:32Z</time>
      </trkpt>
      <trkpt lat="47.1808198255769" lon="4.95143905817121">
        <time>2019-05-17T03:23:32Z</time>
      </trkpt>
      <trkpt lat="47.180897592486" lon="4.95120120896971">
        <time>2019-05-17T03:23:32Z</time>
      </trkpt>
      <trkpt lat="47.1809783199102" lon="4.95096042632452">
        <time>2019-05-17T03:23:32Z</time>
      </trkpt>
      <trkpt lat="47.1810600020282" lon="4.9507216806094">
        <time>2019-05-17T03:23:32Z</time>
      </trkpt>
      <trkpt lat="47.1811404970385" lon="4.95048987297391">
        <time>2019-05-17T03:23:32Z</time>
      </trkpt>
      <trkpt lat="47.1812178151773" lon="4.95026992995111">
        <time>2019-05-17T03:23:32Z</time>
      </trkpt>
      <trkpt lat="47.1812898800797" lon="4.95006685527172">
        <time>2019-05-17T03:23:32Z</time>
      </trkpt>
      <trkpt lat="47.1813546119121" lon="4.94988551340874">
        <time>2019-05-17T03:23:32Z</time>
      </trkpt>
      <trkpt lat="47.1814099912918" lon="4.94973086864652">
        <time>2019-05-17T03:23:32Z</time>
      </trkpt>
      <trkpt lat="47.1814539272969" lon="4.94960783541899">
        <time>2019-05-17T03:23:32Z</time>
      </trkpt>
      <trkpt lat="47.1814702395661" lon="4.94956154325683">
        <time>2019-05-17T03:23:32Z</time>
      </trkpt>
      <trkpt lat="47.1814843767242" lon="4.9495214256865">
        <time>2019-05-17T03:23:32Z</time>
      </trkpt>
      <trkpt lat="47.181507578263" lon="4.94945741336329">
        <time>2019-05-17T03:23:32Z</time>
      </trkpt>
      <trkpt lat="47.1815310634854" lon="4.94939843110938">
        <time>2019-05-17T03:23:32Z</time>
      </trkpt>
      <trkpt lat="47.1815550173025" lon="4.94934420316467">
        <time>2019-05-17T03:23:32Z</time>
      </trkpt>
      <trkpt lat="47.1815794458491" lon="4.94929463056503">
        <time>2019-05-17T03:23:32Z</time>
      </trkpt>
      <trkpt lat="47.1816044341965" lon="4.94924963202911">
        <time>2019-05-17T03:23:32Z</time>
      </trkpt>
      <trkpt lat="47.1816300904823" lon="4.94920901430001">
        <time>2019-05-17T03:23:32Z</time>
      </trkpt>
      <trkpt lat="47.181656437759" lon="4.94917264180956">
        <time>2019-05-17T03:23:32Z</time>
      </trkpt>
      <trkpt lat="47.1816836183991" lon="4.94914042630683">
        <time>2019-05-17T03:23:32Z</time>
      </trkpt>
      <trkpt lat="47.181711646122" lon="4.94911217887954">
        <time>2019-05-17T03:23:32Z</time>
      </trkpt>
      <trkpt lat="47.1817406244869" lon="4.94908781019723">
        <time>2019-05-17T03:23:32Z</time>
      </trkpt>
      <trkpt lat="47.1817706203967" lon="4.94906713475525">
        <time>2019-05-17T03:23:32Z</time>
      </trkpt>
      <trkpt lat="47.1818017064456" lon="4.94905000963764">
        <time>2019-05-17T03:23:32Z</time>
      </trkpt>
      <trkpt lat="47.181833962195" lon="4.94903635166659">
        <time>2019-05-17T03:23:32Z</time>
      </trkpt>
      <trkpt lat="47.1818674691031" lon="4.94902596953803">
        <time>2019-05-17T03:23:32Z</time>
      </trkpt>
      <trkpt lat="47.1819022991193" lon="4.94901877319367">
        <time>2019-05-17T03:23:32Z</time>
      </trkpt>
      <trkpt lat="47.1819385452127" lon="4.94901462640732">
        <time>2019-05-17T03:23:32Z</time>
      </trkpt>
      <trkpt lat="47.1819764916143" lon="4.94901496535709">
        <time>2019-05-17T03:23:32Z</time>
      </trkpt>
      <trkpt lat="47.1820161395383" lon="4.94902110664399">
        <time>2019-05-17T03:23:32Z</time>
      </trkpt>
      <trkpt lat="47.1820570018561" lon="4.94903256109795">
        <time>2019-05-17T03:23:32Z</time>
      </trkpt>
      <trkpt lat="47.1820986502863" lon="4.94904869107356">
        <time>2019-05-17T03:23:32Z</time>
      </trkpt>
      <trkpt lat="47.1821405475881" lon="4.94906913758363">
        <time>2019-05-17T03:23:32Z</time>
      </trkpt>
      <trkpt lat="47.1821822753631" lon="4.94909326752936">
        <time>2019-05-17T03:23:32Z</time>
      </trkpt>
      <trkpt lat="47.1822233805668" lon="4.94912063001145">
        <time>2019-05-17T03:23:32Z</time>
      </trkpt>
      <trkpt lat="47.1822633413" lon="4.94915067882355">
        <time>2019-05-17T03:23:32Z</time>
      </trkpt>
      <trkpt lat="47.1823017264421" lon="4.94918287706615">
        <time>2019-05-17T03:23:32Z</time>
      </trkpt>
      <trkpt lat="47.1823380519325" lon="4.94921677150497">
        <time>2019-05-17T03:23:32Z</time>
      </trkpt>
      <trkpt lat="47.1823718867254" lon="4.94925182198356">
        <time>2019-05-17T03:23:32Z</time>
      </trkpt>
      <trkpt lat="47.182402671829" lon="4.94928747884685">
        <time>2019-05-17T03:23:32Z</time>
      </trkpt>
      <trkpt lat="47.1824300404489" lon="4.94932320669408">
        <time>2019-05-17T03:23:32Z</time>
      </trkpt>
      <trkpt lat="47.1824534613672" lon="4.94935860124196">
        <time>2019-05-17T03:23:32Z</time>
      </trkpt>
      <trkpt lat="47.1824724681246" lon="4.94939306933428">
        <time>2019-05-17T03:23:32Z</time>
      </trkpt>
      <trkpt lat="47.1824866245981" lon="4.94942607462358">
        <time>2019-05-17T03:23:32Z</time>
      </trkpt>
      <trkpt lat="47.1825014775829" lon="4.94945882504929">
        <time>2019-05-17T03:23:32Z</time>
      </trkpt>
      <trkpt lat="47.1825222737241" lon="4.94949262621273">
        <time>2019-05-17T03:23:32Z</time>
      </trkpt>
      <trkpt lat="47.1825480252917" lon="4.94952704506781">
        <time>2019-05-17T03:23:32Z</time>
      </trkpt>
      <trkpt lat="47.1825778385279" lon="4.94956161490654">
        <time>2019-05-17T03:23:32Z</time>
      </trkpt>
      <trkpt lat="47.1826107028342" lon="4.94959590807053">
        <time>2019-05-17T03:23:32Z</time>
      </trkpt>
      <trkpt lat="47.1826457184707" lon="4.94962950149226">
        <time>2019-05-17T03:23:32Z</time>
      </trkpt>
      <trkpt lat="47.1826818980609" lon="4.94966197108">
        <time>2019-05-17T03:23:32Z</time>
      </trkpt>
      <trkpt lat="47.1827183008531" lon="4.94969284293683">
        <time>2019-05-17T03:23:32Z</time>
      </trkpt>
      <trkpt lat="47.1827540093927" lon="4.94972169230662">
        <time>2019-05-17T03:23:32Z</time>
      </trkpt>
      <trkpt lat="47.1827880208079" lon="4.94974814233908">
        <time>2019-05-17T03:23:32Z</time>
      </trkpt>
      <trkpt lat="47.1828194059655" lon="4.94977167168709">
        <time>2019-05-17T03:23:32Z</time>
      </trkpt>
      <trkpt lat="47.1828472301972" lon="4.94979190519587">
        <time>2019-05-17T03:23:32Z</time>
      </trkpt>
      <trkpt lat="47.1828705078278" lon="4.94980841721318">
        <time>2019-05-17T03:23:32Z</time>
      </trkpt>
      <trkpt lat="47.1828972442826" lon="4.94982678234115">
        <time>2019-05-17T03:23:32Z</time>
      </trkpt>
      <trkpt lat="47.1829632931745" lon="4.94988958263233">
        <time>2019-05-17T03:23:32Z</time>
      </trkpt>
      <trkpt lat="47.1830272581761" lon="4.94994237874245">
        <time>2019-05-17T03:23:32Z</time>
      </trkpt>
      <trkpt lat="47.1830944681625" lon="4.94998979774034">
        <time>2019-05-17T03:23:32Z</time>
      </trkpt>
      <trkpt lat="47.1831637667427" lon="4.95003201834834">
        <time>2019-05-17T03:23:32Z</time>
      </trkpt>
      <trkpt lat="47.1832340617829" lon="4.95006941933485">
        <time>2019-05-17T03:23:32Z</time>
      </trkpt>
      <trkpt lat="47.1833042258171" lon="4.95010212712326">
        <time>2019-05-17T03:23:32Z</time>
      </trkpt>
      <trkpt lat="47.1833730460258" lon="4.95013055771556">
        <time>2019-05-17T03:23:32Z</time>
      </trkpt>
      <trkpt lat="47.1834394606124" lon="4.95015480412053">
        <time>2019-05-17T03:23:32Z</time>
      </trkpt>
      <trkpt lat="47.1835022839857" lon="4.95017528041389">
        <time>2019-05-17T03:23:32Z</time>
      </trkpt>
      <trkpt lat="47.1835604351375" lon="4.95019211935286">
        <time>2019-05-17T03:23:32Z</time>
      </trkpt>
      <trkpt lat="47.1836127626125" lon="4.95020569762391">
        <time>2019-05-17T03:23:32Z</time>
      </trkpt>
      <trkpt lat="47.1836581140228" lon="4.95021618844438">
        <time>2019-05-17T03:23:32Z</time>
      </trkpt>
      <trkpt lat="47.1836953573074" lon="4.95022392062939">
        <time>2019-05-17T03:23:32Z</time>
      </trkpt>
      <trkpt lat="47.1837233721864" lon="4.95022911941742">
        <time>2019-05-17T03:23:32Z</time>
      </trkpt>
      <trkpt lat="47.1837489178279" lon="4.950233109794">
        <time>2019-05-17T03:23:32Z</time>
      </trkpt>
      <trkpt lat="47.1837914775403" lon="4.95023826404005">
        <time>2019-05-17T03:23:32Z</time>
      </trkpt>
      <trkpt lat="47.1838433965123" lon="4.95024443890438">
        <time>2019-05-17T03:23:32Z</time>
      </trkpt>
      <trkpt lat="47.1839119074403" lon="4.95025265376115">
        <time>2019-05-17T03:23:32Z</time>
      </trkpt>
      <trkpt lat="47.1839947151193" lon="4.95026251508043">
        <time>2019-05-17T03:23:32Z</time>
      </trkpt>
      <trkpt lat="47.1840894426062" lon="4.95027375960474">
        <time>2019-05-17T03:23:32Z</time>
      </trkpt>
      <trkpt lat="47.1841936927467" lon="4.95028608565775">
        <time>2019-05-17T03:23:32Z</time>
      </trkpt>
      <trkpt lat="47.184305102379" lon="4.95029923390452">
        <time>2019-05-17T03:23:32Z</time>
      </trkpt>
      <trkpt lat="47.1844212861003" lon="4.9503129471759">
        <time>2019-05-17T03:23:32Z</time>
      </trkpt>
      <trkpt lat="47.1845399210711" lon="4.95032682732357">
        <time>2019-05-17T03:23:32Z</time>
      </trkpt>
      <trkpt lat="47.1846585986703" lon="4.95034066241754">
        <time>2019-05-17T03:23:32Z</time>
      </trkpt>
      <trkpt lat="47.1847749578586" lon="4.95035409963057">
        <time>2019-05-17T03:23:32Z</time>
      </trkpt>
      <trkpt lat="47.1848866033168" lon="4.95036692767233">
        <time>2019-05-17T03:23:32Z</time>
      </trkpt>
      <trkpt lat="47.1849912154975" lon="4.95037879898584">
        <time>2019-05-17T03:23:32Z</time>
      </trkpt>
      <trkpt lat="47.1850969714956" lon="4.9503906057347">
        <time>2019-05-17T03:23:32Z</time>
      </trkpt>
      <trkpt lat="47.1851697193922" lon="4.95039853137092">
        <time>2019-05-17T03:23:32Z</time>
      </trkpt>
      <trkpt lat="47.1852462173607" lon="4.95040354217668">
        <time>2019-05-17T03:23:32Z</time>
      </trkpt>
      <trkpt lat="47.1853220290615" lon="4.95040251092729">
        <time>2019-05-17T03:23:32Z</time>
      </trkpt>
      <trkpt lat="47.1853967627281" lon="4.95039622325768">
        <time>2019-05-17T03:23:32Z</time>
      </trkpt>
      <trkpt lat="47.1854699982902" lon="4.95038541623022">
        <time>2019-05-17T03:23:32Z</time>
      </trkpt>
      <trkpt lat="47.1855413024893" lon="4.95037087021035">
        <time>2019-05-17T03:23:32Z</time>
      </trkpt>
      <trkpt lat="47.1856102524267" lon="4.95035327575003">
        <time>2019-05-17T03:23:32Z</time>
      </trkpt>
      <trkpt lat="47.1856763914938" lon="4.95033341534057">
        <time>2019-05-17T03:23:32Z</time>
      </trkpt>
      <trkpt lat="47.185739376769" lon="4.95031212259575">
        <time>2019-05-17T03:23:32Z</time>
      </trkpt>
      <trkpt lat="47.1857986977728" lon="4.95029008462222">
        <time>2019-05-17T03:23:32Z</time>
      </trkpt>
      <trkpt lat="47.1858539543876" lon="4.95026803948585">
        <time>2019-05-17T03:23:32Z</time>
      </trkpt>
      <trkpt lat="47.1859047267499" lon="4.95024676416586">
        <time>2019-05-17T03:23:32Z</time>
      </trkpt>
      <trkpt lat="47.1859505907284" lon="4.9502270037007">
        <time>2019-05-17T03:23:32Z</time>
      </trkpt>
      <trkpt lat="47.1859911308389" lon="4.95020953773034">
        <time>2019-05-17T03:23:32Z</time>
      </trkpt>
      <trkpt lat="47.1860258960348" lon="4.95019509940532">
        <time>2019-05-17T03:23:32Z</time>
      </trkpt>
      <trkpt lat="47.1860544584169" lon="4.95018442870257">
        <time>2019-05-17T03:23:32Z</time>
      </trkpt>
      <trkpt lat="47.186086520201" lon="4.95017778425896">
        <time>2019-05-17T03:23:32Z</time>
      </trkpt>
      <trkpt lat="47.1861198033624" lon="4.95018123039996">
        <time>2019-05-17T03:23:32Z</time>
      </trkpt>
      <trkpt lat="47.186145801464" lon="4.95018987889992">
        <time>2019-05-17T03:23:32Z</time>
      </trkpt>
      <trkpt lat="47.1861742440734" lon="4.95020300266066">
        <time>2019-05-17T03:23:32Z</time>
      </trkpt>
      <trkpt lat="47.1862049338639" lon="4.95022029992807">
        <time>2019-05-17T03:23:32Z</time>
      </trkpt>
      <trkpt lat="47.1862375640017" lon="4.95024152707625">
        <time>2019-05-17T03:23:32Z</time>
      </trkpt>
      <trkpt lat="47.1862705342305" lon="4.95026549363377">
        <time>2019-05-17T03:23:32Z</time>
      </trkpt>
      <trkpt lat="47.1863074355319" lon="4.95029475667939">
        <time>2019-05-17T03:23:32Z</time>
      </trkpt>
      <trkpt lat="47.1863441401225" lon="4.95032625854313">
        <time>2019-05-17T03:23:32Z</time>
      </trkpt>
      <trkpt lat="47.1863816476488" lon="4.95036064042111">
        <time>2019-05-17T03:23:32Z</time>
      </trkpt>
      <trkpt lat="47.1864196626007" lon="4.95039764865792">
        <time>2019-05-17T03:23:32Z</time>
      </trkpt>
      <trkpt lat="47.186457898795" lon="4.95043698529588">
        <time>2019-05-17T03:23:32Z</time>
      </trkpt>
      <trkpt lat="47.1864961177343" lon="4.95047850036377">
        <time>2019-05-17T03:23:32Z</time>
      </trkpt>
      <trkpt lat="47.1865339845201" lon="4.95052184225731">
        <time>2019-05-17T03:23:32Z</time>
      </trkpt>
      <trkpt lat="47.1865712573633" lon="4.95056676156422">
        <time>2019-05-17T03:23:32Z</time>
      </trkpt>
      <trkpt lat="47.186607626734" lon="4.95061301126062">
        <time>2019-05-17T03:23:32Z</time>
      </trkpt>
      <trkpt lat="47.1866399370364" lon="4.950661048454">
        <time>2019-05-17T03:23:32Z</time>
      </trkpt>
      <trkpt lat="47.1866658306074" lon="4.95071137407002">
        <time>2019-05-17T03:23:32Z</time>
      </trkpt>
      <trkpt lat="47.1866862161358" lon="4.95076384528472">
        <time>2019-05-17T03:23:32Z</time>
      </trkpt>
      <trkpt lat="47.1867020810602" lon="4.95081827185363">
        <time>2019-05-17T03:23:32Z</time>
      </trkpt>
      <trkpt lat="47.1867143950111" lon="4.95087446592072">
        <time>2019-05-17T03:23:32Z</time>
      </trkpt>
      <trkpt lat="47.186724023064" lon="4.95093232404195">
        <time>2019-05-17T03:23:32Z</time>
      </trkpt>
      <trkpt lat="47.186731917005" lon="4.950991662379">
        <time>2019-05-17T03:23:32Z</time>
      </trkpt>
      <trkpt lat="47.1867390604475" lon="4.95105223924712">
        <time>2019-05-17T03:23:32Z</time>
      </trkpt>
      <trkpt lat="47.1867463782308" lon="4.95111400702433">
        <time>2019-05-17T03:23:32Z</time>
      </trkpt>
      <trkpt lat="47.1867547850824" lon="4.95117672799517">
        <time>2019-05-17T03:23:32Z</time>
      </trkpt>
      <trkpt lat="47.186765226344" lon="4.95124025789684">
        <time>2019-05-17T03:23:32Z</time>
      </trkpt>
      <trkpt lat="47.1867786761002" lon="4.9513044083042">
        <time>2019-05-17T03:23:32Z</time>
      </trkpt>
      <trkpt lat="47.1867960547557" lon="4.95136908257129">
        <time>2019-05-17T03:23:32Z</time>
      </trkpt>
      <trkpt lat="47.1868182832098" lon="4.95143404004662">
        <time>2019-05-17T03:23:32Z</time>
      </trkpt>
      <trkpt lat="47.1868463511411" lon="4.95149913865012">
        <time>2019-05-17T03:23:32Z</time>
      </trkpt>
      <trkpt lat="47.1868811549373" lon="4.95156419106367">
        <time>2019-05-17T03:23:32Z</time>
      </trkpt>
      <trkpt lat="47.1869162878913" lon="4.95162622840128">
        <time>2019-05-17T03:23:32Z</time>
      </trkpt>
      <trkpt lat="47.1869457749752" lon="4.95168259820978">
        <time>2019-05-17T03:23:32Z</time>
      </trkpt>
      <trkpt lat="47.1869710145698" lon="4.95173350952207">
        <time>2019-05-17T03:23:32Z</time>
      </trkpt>
      <trkpt lat="47.1869936041444" lon="4.95177932188073">
        <time>2019-05-17T03:23:32Z</time>
      </trkpt>
      <trkpt lat="47.1870148993502" lon="4.95182029351523">
        <time>2019-05-17T03:23:32Z</time>
      </trkpt>
      <trkpt lat="47.1870364736906" lon="4.95185664203192">
        <time>2019-05-17T03:23:32Z</time>
      </trkpt>
      <trkpt lat="47.1870597438725" lon="4.95188877105932">
        <time>2019-05-17T03:23:32Z</time>
      </trkpt>
      <trkpt lat="47.1870862696519" lon="4.95191684383286">
        <time>2019-05-17T03:23:32Z</time>
      </trkpt>
      <trkpt lat="47.1871174787814" lon="4.951941266154">
        <time>2019-05-17T03:23:32Z</time>
      </trkpt>
      <trkpt lat="47.1871548426766" lon="4.95196220671341">
        <time>2019-05-17T03:23:32Z</time>
      </trkpt>
      <trkpt lat="47.1871998962122" lon="4.95197997157139">
        <time>2019-05-17T03:23:32Z</time>
      </trkpt>
      <trkpt lat="47.1872540881979" lon="4.95199496756079">
        <time>2019-05-17T03:23:32Z</time>
      </trkpt>
      <trkpt lat="47.1873189023498" lon="4.95200731026588">
        <time>2019-05-17T03:23:32Z</time>
      </trkpt>
      <trkpt lat="47.1873958029744" lon="4.95201735926415">
        <time>2019-05-17T03:23:32Z</time>
      </trkpt>
      <trkpt lat="47.1874863094081" lon="4.95202542067092">
        <time>2019-05-17T03:23:32Z</time>
      </trkpt>
      <trkpt lat="47.1875918985884" lon="4.95203171308562">
        <time>2019-05-17T03:23:32Z</time>
      </trkpt>
      <trkpt lat="47.187696457281" lon="4.95203544798835">
        <time>2019-05-17T03:23:32Z</time>
      </trkpt>
      <trkpt lat="47.1877848973638" lon="4.95203564928885">
        <time>2019-05-17T03:23:32Z</time>
      </trkpt>
      <trkpt lat="47.1878602519234" lon="4.95203261319581">
        <time>2019-05-17T03:23:32Z</time>
      </trkpt>
      <trkpt lat="47.1879255510529" lon="4.95202662113018">
        <time>2019-05-17T03:23:32Z</time>
      </trkpt>
      <trkpt lat="47.1879838127416" lon="4.95201782779124">
        <time>2019-05-17T03:23:32Z</time>
      </trkpt>
      <trkpt lat="47.188038023783" lon="4.95200661339831">
        <time>2019-05-17T03:23:32Z</time>
      </trkpt>
      <trkpt lat="47.1880912345674" lon="4.95199312284173">
        <time>2019-05-17T03:23:32Z</time>
      </trkpt>
      <trkpt lat="47.1881464703837" lon="4.95197765358717">
        <time>2019-05-17T03:23:32Z</time>
      </trkpt>
      <trkpt lat="47.1882067374561" lon="4.95196048751888">
        <time>2019-05-17T03:23:32Z</time>
      </trkpt>
      <trkpt lat="47.1882750444631" lon="4.95194182281882">
        <time>2019-05-17T03:23:32Z</time>
      </trkpt>
      <trkpt lat="47.1883544313224" lon="4.95192189906506">
        <time>2019-05-17T03:23:32Z</time>
      </trkpt>
      <trkpt lat="47.1884479212174" lon="4.9519010575499">
        <time>2019-05-17T03:23:32Z</time>
      </trkpt>
      <trkpt lat="47.1885585274257" lon="4.95187948934273">
        <time>2019-05-17T03:23:32Z</time>
      </trkpt>
      <trkpt lat="47.1886892520875" lon="4.95185748505951">
        <time>2019-05-17T03:23:32Z</time>
      </trkpt>
      <trkpt lat="47.1888431538679" lon="4.95183524041924">
        <time>2019-05-17T03:23:32Z</time>
      </trkpt>
      <trkpt lat="47.1890265557281" lon="4.95181264261211">
        <time>2019-05-17T03:23:32Z</time>
      </trkpt>
      <trkpt lat="47.1891990247682" lon="4.95179196272914">
        <time>2019-05-17T03:23:32Z</time>
      </trkpt>
      <trkpt lat="47.189340779034" lon="4.95177271983918">
        <time>2019-05-17T03:23:32Z</time>
      </trkpt>
      <trkpt lat="47.1894526228382" lon="4.95175504359306">
        <time>2019-05-17T03:23:32Z</time>
      </trkpt>
      <trkpt lat="47.1895385310342" lon="4.95173865693937">
        <time>2019-05-17T03:23:32Z</time>
      </trkpt>
      <trkpt lat="47.1896026199252" lon="4.95172333285412">
        <time>2019-05-17T03:23:32Z</time>
      </trkpt>
      <trkpt lat="47.1896489518689" lon="4.95170875215286">
        <time>2019-05-17T03:23:32Z</time>
      </trkpt>
      <trkpt lat="47.1896930535234" lon="4.95168786220715">
        <time>2019-05-17T03:23:32Z</time>
      </trkpt>
      <trkpt lat="47.189729928061" lon="4.95166028066507">
        <time>2019-05-17T03:23:32Z</time>
      </trkpt>
      <trkpt lat="47.1897563449335" lon="4.95163876311338">
        <time>2019-05-17T03:23:32Z</time>
      </trkpt>
      <trkpt lat="47.1897814309223" lon="4.95162352329331">
        <time>2019-05-17T03:23:32Z</time>
      </trkpt>
      <trkpt lat="47.1898172039302" lon="4.95160719641466">
        <time>2019-05-17T03:23:32Z</time>
      </trkpt>
      <trkpt lat="47.1898677365513" lon="4.95158964766671">
        <time>2019-05-17T03:23:32Z</time>
      </trkpt>
      <trkpt lat="47.1899370827147" lon="4.95157051345578">
        <time>2019-05-17T03:23:32Z</time>
      </trkpt>
      <trkpt lat="47.1900292812595" lon="4.95154955720766">
        <time>2019-05-17T03:23:32Z</time>
      </trkpt>
      <trkpt lat="47.1901343354306" lon="4.95152118822469">
        <time>2019-05-17T03:23:32Z</time>
      </trkpt>
      <trkpt lat="47.1902387811471" lon="4.95148114957658">
        <time>2019-05-17T03:23:32Z</time>
      </trkpt>
      <trkpt lat="47.1903418623124" lon="4.95143134276583">
        <time>2019-05-17T03:23:32Z</time>
      </trkpt>
      <trkpt lat="47.1904426535961" lon="4.95137362117422">
        <time>2019-05-17T03:23:32Z</time>
      </trkpt>
      <trkpt lat="47.1905403241582" lon="4.95130978178094">
        <time>2019-05-17T03:23:32Z</time>
      </trkpt>
      <trkpt lat="47.1906339787136" lon="4.95124177224797">
        <time>2019-05-17T03:23:32Z</time>
      </trkpt>
      <trkpt lat="47.1907228095932" lon="4.95117134677851">
        <time>2019-05-17T03:23:32Z</time>
      </trkpt>
      <trkpt lat="47.1908059391823" lon="4.95110050601877">
        <time>2019-05-17T03:23:32Z</time>
      </trkpt>
      <trkpt lat="47.1908825139144" lon="4.95103099789638">
        <time>2019-05-17T03:23:32Z</time>
      </trkpt>
      <trkpt lat="47.1909516356941" lon="4.95096472361751">
        <time>2019-05-17T03:23:32Z</time>
      </trkpt>
      <trkpt lat="47.1910124852162" lon="4.95090353534851">
        <time>2019-05-17T03:23:32Z</time>
      </trkpt>
      <trkpt lat="47.191064210095" lon="4.95084932515344">
        <time>2019-05-17T03:23:32Z</time>
      </trkpt>
      <trkpt lat="47.1911059608264" lon="4.95080390711492">
        <time>2019-05-17T03:23:32Z</time>
      </trkpt>
      <trkpt lat="47.191136820261" lon="4.95076916688427">
        <time>2019-05-17T03:23:32Z</time>
      </trkpt>
      <trkpt lat="47.1911592422354" lon="4.95074305464274">
        <time>2019-05-17T03:23:32Z</time>
      </trkpt>
      <trkpt lat="47.1911791795461" lon="4.95075292533848">
        <time>2019-05-17T03:23:32Z</time>
      </trkpt>
      <trkpt lat="47.1912264429179" lon="4.95079199511513">
        <time>2019-05-17T03:23:32Z</time>
      </trkpt>
      <trkpt lat="47.1913001331256" lon="4.95085284781569">
        <time>2019-05-17T03:23:32Z</time>
      </trkpt>
      <trkpt lat="47.1913961346657" lon="4.95093205509492">
        <time>2019-05-17T03:23:32Z</time>
      </trkpt>
      <trkpt lat="47.191510354789" lon="4.95102606602039">
        <time>2019-05-17T03:23:32Z</time>
      </trkpt>
      <trkpt lat="47.1916386606116" lon="4.95113141150048">
        <time>2019-05-17T03:23:32Z</time>
      </trkpt>
      <trkpt lat="47.1917769092666" lon="4.95124467155543">
        <time>2019-05-17T03:23:32Z</time>
      </trkpt>
      <trkpt lat="47.1919210010876" lon="4.95136238105362">
        <time>2019-05-17T03:23:32Z</time>
      </trkpt>
      <trkpt lat="47.1920668008396" lon="4.9514809802807">
        <time>2019-05-17T03:23:32Z</time>
      </trkpt>
      <trkpt lat="47.1922101623698" lon="4.9515970000636">
        <time>2019-05-17T03:23:32Z</time>
      </trkpt>
      <trkpt lat="47.1923470071346" lon="4.95170702410166">
        <time>2019-05-17T03:23:32Z</time>
      </trkpt>
      <trkpt lat="47.1924731773691" lon="4.95180753368508">
        <time>2019-05-17T03:23:32Z</time>
      </trkpt>
      <trkpt lat="47.1925845794057" lon="4.95189511979161">
        <time>2019-05-17T03:23:32Z</time>
      </trkpt>
      <trkpt lat="47.1926770716037" lon="4.95196616511672">
        <time>2019-05-17T03:23:32Z</time>
      </trkpt>
      <trkpt lat="47.1927464917525" lon="4.95201729874283">
        <time>2019-05-17T03:23:32Z</time>
      </trkpt>
      <trkpt lat="47.1927887762639" lon="4.95204505773449">
        <time>2019-05-17T03:23:32Z</time>
      </trkpt>
      <trkpt lat="47.1928188479427" lon="4.95206256566255">
        <time>2019-05-17T03:23:32Z</time>
      </trkpt>
      <trkpt lat="47.1928539759543" lon="4.95208533791464">
        <time>2019-05-17T03:23:32Z</time>
      </trkpt>
      <trkpt lat="47.1928936963759" lon="4.95211325662934">
        <time>2019-05-17T03:23:32Z</time>
      </trkpt>
      <trkpt lat="47.192937366335" lon="4.95214624159573">
        <time>2019-05-17T03:23:32Z</time>
      </trkpt>
      <trkpt lat="47.1929844848145" lon="4.95218422034581">
        <time>2019-05-17T03:23:32Z</time>
      </trkpt>
      <trkpt lat="47.1930344991051" lon="4.95222697790549">
        <time>2019-05-17T03:23:32Z</time>
      </trkpt>
      <trkpt lat="47.193086868326" lon="4.95227453589342">
        <time>2019-05-17T03:23:32Z</time>
      </trkpt>
      <trkpt lat="47.1931410183601" lon="4.95232681582869">
        <time>2019-05-17T03:23:32Z</time>
      </trkpt>
      <trkpt lat="47.1931964152844" lon="4.95238360609318">
        <time>2019-05-17T03:23:32Z</time>
      </trkpt>
      <trkpt lat="47.1932524971192" lon="4.95244488006765">
        <time>2019-05-17T03:23:32Z</time>
      </trkpt>
      <trkpt lat="47.1933087169195" lon="4.95251051094749">
        <time>2019-05-17T03:23:32Z</time>
      </trkpt>
      <trkpt lat="47.1933645281116" lon="4.95258047774397">
        <time>2019-05-17T03:23:32Z</time>
      </trkpt>
      <trkpt lat="47.1934193936875" lon="4.95265460692826">
        <time>2019-05-17T03:23:32Z</time>
      </trkpt>
      <trkpt lat="47.1934727459564" lon="4.95273278125213">
        <time>2019-05-17T03:23:32Z</time>
      </trkpt>
      <trkpt lat="47.1935240190755" lon="4.95281492424603">
        <time>2019-05-17T03:23:32Z</time>
      </trkpt>
      <trkpt lat="47.1935727015508" lon="4.95290100929472">
        <time>2019-05-17T03:23:32Z</time>
      </trkpt>
      <trkpt lat="47.193623493838" lon="4.9529902251302">
        <time>2019-05-17T03:23:32Z</time>
      </trkpt>
      <trkpt lat="47.1936807746787" lon="4.95308141518165">
        <time>2019-05-17T03:23:32Z</time>
      </trkpt>
      <trkpt lat="47.1937433367075" lon="4.95317399718393">
        <time>2019-05-17T03:23:32Z</time>
      </trkpt>
      <trkpt lat="47.1938100510713" lon="4.95326735200523">
        <time>2019-05-17T03:23:32Z</time>
      </trkpt>
      <trkpt lat="47.1938797252972" lon="4.95336085251124">
        <time>2019-05-17T03:23:32Z</time>
      </trkpt>
      <trkpt lat="47.1939512112503" lon="4.95345387372275">
        <time>2019-05-17T03:23:32Z</time>
      </trkpt>
      <trkpt lat="47.1940233485869" lon="4.95354579086635">
        <time>2019-05-17T03:23:32Z</time>
      </trkpt>
      <trkpt lat="47.1940949708883" lon="4.95363602687818">
        <time>2019-05-17T03:23:32Z</time>
      </trkpt>
      <trkpt lat="47.1941649322418" lon="4.95372390802179">
        <time>2019-05-17T03:23:32Z</time>
      </trkpt>
      <trkpt lat="47.1942320532823" lon="4.95380881669943">
        <time>2019-05-17T03:23:32Z</time>
      </trkpt>
      <trkpt lat="47.1942951578428" lon="4.95389016557285">
        <time>2019-05-17T03:23:32Z</time>
      </trkpt>
      <trkpt lat="47.1943531053913" lon="4.95396728846405">
        <time>2019-05-17T03:23:32Z</time>
      </trkpt>
      <trkpt lat="47.1944047334525" lon="4.9540396060129">
        <time>2019-05-17T03:23:32Z</time>
      </trkpt>
      <trkpt lat="47.1944488489041" lon="4.95410649584847">
        <time>2019-05-17T03:23:32Z</time>
      </trkpt>
      <trkpt lat="47.1944848274773" lon="4.95416837829779">
        <time>2019-05-17T03:23:32Z</time>
      </trkpt>
      <trkpt lat="47.1945100005934" lon="4.95422148975959">
        <time>2019-05-17T03:23:32Z</time>
      </trkpt>
      <trkpt lat="47.1945395123992" lon="4.95427408413249">
        <time>2019-05-17T03:23:32Z</time>
      </trkpt>
      <trkpt lat="47.1945855681384" lon="4.95433004611042">
        <time>2019-05-17T03:23:32Z</time>
      </trkpt>
      <trkpt lat="47.1946456541388" lon="4.95438848864648">
        <time>2019-05-17T03:23:32Z</time>
      </trkpt>
      <trkpt lat="47.1947172276337" lon="4.9544484378044">
        <time>2019-05-17T03:23:32Z</time>
      </trkpt>
      <trkpt lat="47.1947976854516" lon="4.95450896551326">
        <time>2019-05-17T03:23:32Z</time>
      </trkpt>
      <trkpt lat="47.1948845309389" lon="4.95456909517743">
        <time>2019-05-17T03:23:32Z</time>
      </trkpt>
      <trkpt lat="47.1949752031585" lon="4.95462799353878">
        <time>2019-05-17T03:23:32Z</time>
      </trkpt>
      <trkpt lat="47.1950671482681" lon="4.95468463722091">
        <time>2019-05-17T03:23:32Z</time>
      </trkpt>
      <trkpt lat="47.1951578392139" lon="4.95473809366572">
        <time>2019-05-17T03:23:32Z</time>
      </trkpt>
      <trkpt lat="47.1952446856181" lon="4.95478748254664">
        <time>2019-05-17T03:23:32Z</time>
      </trkpt>
      <trkpt lat="47.1953251730473" lon="4.95483182875648">
        <time>2019-05-17T03:23:32Z</time>
      </trkpt>
      <trkpt lat="47.1953967339035" lon="4.95487020178261">
        <time>2019-05-17T03:23:32Z</time>
      </trkpt>
      <trkpt lat="47.1954568232744" lon="4.95490172267528">
        <time>2019-05-17T03:23:32Z</time>
      </trkpt>
      <trkpt lat="47.1955028946032" lon="4.954925365089">
        <time>2019-05-17T03:23:32Z</time>
      </trkpt>
      <trkpt lat="47.1955435143085" lon="4.95496317199508">
        <time>2019-05-17T03:23:32Z</time>
      </trkpt>
      <trkpt lat="47.1970135047744" lon="4.95588763180983">
        <time>2019-05-17T03:23:32Z</time>
      </trkpt>
      <trkpt lat="47.1970857825761" lon="4.95593308774962">
        <time>2019-05-17T03:23:32Z</time>
      </trkpt>
      <trkpt lat="47.1970883509144" lon="4.9572743193937">
        <time>2019-05-17T03:23:32Z</time>
      </trkpt>
      <trkpt lat="47.1971209709223" lon="4.95746705066294">
        <time>2019-05-17T03:23:32Z</time>
      </trkpt>
      <trkpt lat="47.1971586233978" lon="4.95745518403888">
        <time>2019-05-17T03:23:32Z</time>
      </trkpt>
      <trkpt lat="47.1971801380083" lon="4.95744593131569">
        <time>2019-05-17T03:23:32Z</time>
      </trkpt>
      <trkpt lat="47.1972292684948" lon="4.95743223110464">
        <time>2019-05-17T03:23:32Z</time>
      </trkpt>
      <trkpt lat="47.1972792157655" lon="4.95742052667954">
        <time>2019-05-17T03:23:32Z</time>
      </trkpt>
      <trkpt lat="47.1973358583932" lon="4.95740938759434">
        <time>2019-05-17T03:23:32Z</time>
      </trkpt>
      <trkpt lat="47.197398614281" lon="4.95739920859242">
        <time>2019-05-17T03:23:32Z</time>
      </trkpt>
      <trkpt lat="47.197466932918" lon="4.95739053247093">
        <time>2019-05-17T03:23:32Z</time>
      </trkpt>
      <trkpt lat="47.1975401822561" lon="4.95738375479075">
        <time>2019-05-17T03:23:32Z</time>
      </trkpt>
      <trkpt lat="47.1976178130235" lon="4.95737936388478">
        <time>2019-05-17T03:23:32Z</time>
      </trkpt>
      <trkpt lat="47.1976992090753" lon="4.95737786109541">
        <time>2019-05-17T03:23:32Z</time>
      </trkpt>
      <trkpt lat="47.1977838118477" lon="4.95737972861176">
        <time>2019-05-17T03:23:32Z</time>
      </trkpt>
      <trkpt lat="47.1978709908077" lon="4.95738531976062">
        <time>2019-05-17T03:23:32Z</time>
      </trkpt>
      <trkpt lat="47.1979602154681" lon="4.95739522392294">
        <time>2019-05-17T03:23:32Z</time>
      </trkpt>
      <trkpt lat="47.1980611932821" lon="4.95741203001542">
        <time>2019-05-17T03:23:32Z</time>
      </trkpt>
      <trkpt lat="47.1981423214802" lon="4.95742959910393">
        <time>2019-05-17T03:23:32Z</time>
      </trkpt>
      <trkpt lat="47.1982266869856" lon="4.95744872990981">
        <time>2019-05-17T03:23:32Z</time>
      </trkpt>
      <trkpt lat="47.1982973943681" lon="4.95746165510495">
        <time>2019-05-17T03:23:32Z</time>
      </trkpt>
      <trkpt lat="47.1983559442101" lon="4.95746896820376">
        <time>2019-05-17T03:23:32Z</time>
      </trkpt>
      <trkpt lat="47.1984039578872" lon="4.95747131829454">
        <time>2019-05-17T03:23:32Z</time>
      </trkpt>
      <trkpt lat="47.1984429294198" lon="4.95746939219337">
        <time>2019-05-17T03:23:32Z</time>
      </trkpt>
      <trkpt lat="47.1984744165936" lon="4.95746402472393">
        <time>2019-05-17T03:23:32Z</time>
      </trkpt>
      <trkpt lat="47.198510533584" lon="4.9574503904778">
        <time>2019-05-17T03:23:32Z</time>
      </trkpt>
      <trkpt lat="47.1985479152691" lon="4.95742649744778">
        <time>2019-05-17T03:23:32Z</time>
      </trkpt>
      <trkpt lat="47.1985832006043" lon="4.95740049380505">
        <time>2019-05-17T03:23:32Z</time>
      </trkpt>
      <trkpt lat="47.1986150812642" lon="4.95738255642731">
        <time>2019-05-17T03:23:32Z</time>
      </trkpt>
      <trkpt lat="47.1986446405618" lon="4.95737232975965">
        <time>2019-05-17T03:23:32Z</time>
      </trkpt>
      <trkpt lat="47.1986760340047" lon="4.95736561870313">
        <time>2019-05-17T03:23:32Z</time>
      </trkpt>
      <trkpt lat="47.1987176878747" lon="4.95736155292201">
        <time>2019-05-17T03:23:32Z</time>
      </trkpt>
      <trkpt lat="47.1987649764317" lon="4.95735880313194">
        <time>2019-05-17T03:23:32Z</time>
      </trkpt>
      <trkpt lat="47.1988142839129" lon="4.95735534716892">
        <time>2019-05-17T03:23:32Z</time>
      </trkpt>
      <trkpt lat="47.1988653488632" lon="4.95735141071754">
        <time>2019-05-17T03:23:32Z</time>
      </trkpt>
      <trkpt lat="47.1989178451156" lon="4.95734725943464">
        <time>2019-05-17T03:23:32Z</time>
      </trkpt>
      <trkpt lat="47.1989714740834" lon="4.95734316602559">
        <time>2019-05-17T03:23:32Z</time>
      </trkpt>
      <trkpt lat="47.1990259960905" lon="4.95733939875487">
        <time>2019-05-17T03:23:32Z</time>
      </trkpt>
      <trkpt lat="47.1990810577592" lon="4.95733622439276">
        <time>2019-05-17T03:23:32Z</time>
      </trkpt>
      <trkpt lat="47.1991271285449" lon="4.95733430215509">
        <time>2019-05-17T03:23:32Z</time>
      </trkpt>
      <trkpt lat="47.1991917017765" lon="4.95733274260668">
        <time>2019-05-17T03:23:32Z</time>
      </trkpt>
      <trkpt lat="47.1992466870268" lon="4.95733292851553">
        <time>2019-05-17T03:23:32Z</time>
      </trkpt>
      <trkpt lat="47.1993010811215" lon="4.95733478582027">
        <time>2019-05-17T03:23:32Z</time>
      </trkpt>
      <trkpt lat="47.1993545306641" lon="4.95733858210978">
        <time>2019-05-17T03:23:32Z</time>
      </trkpt>
      <trkpt lat="47.1994068279186" lon="4.95734459617279">
        <time>2019-05-17T03:23:32Z</time>
      </trkpt>
      <trkpt lat="47.1994575790702" lon="4.95735304315672">
        <time>2019-05-17T03:23:32Z</time>
      </trkpt>
      <trkpt lat="47.1995065542886" lon="4.95736419751416">
        <time>2019-05-17T03:23:32Z</time>
      </trkpt>
      <trkpt lat="47.1995534580152" lon="4.9573783695504">
        <time>2019-05-17T03:23:32Z</time>
      </trkpt>
      <trkpt lat="47.1995988320869" lon="4.95739086000643">
        <time>2019-05-17T03:23:32Z</time>
      </trkpt>
      <trkpt lat="47.199643346798" lon="4.95739729821914">
        <time>2019-05-17T03:23:32Z</time>
      </trkpt>
      <trkpt lat="47.1996866845269" lon="4.9573983792051">
        <time>2019-05-17T03:23:32Z</time>
      </trkpt>
      <trkpt lat="47.1997285410249" lon="4.95739484421961">
        <time>2019-05-17T03:23:32Z</time>
      </trkpt>
      <trkpt lat="47.1997686935091" lon="4.95738743850854">
        <time>2019-05-17T03:23:32Z</time>
      </trkpt>
      <trkpt lat="47.1998068004889" lon="4.95737685755726">
        <time>2019-05-17T03:23:32Z</time>
      </trkpt>
      <trkpt lat="47.1998426418792" lon="4.95736380116848">
        <time>2019-05-17T03:23:32Z</time>
      </trkpt>
      <trkpt lat="47.1998758742482" lon="4.95734905020333">
        <time>2019-05-17T03:23:32Z</time>
      </trkpt>
      <trkpt lat="47.1999062518695" lon="4.95733335856382">
        <time>2019-05-17T03:23:32Z</time>
      </trkpt>
      <trkpt lat="47.1999334909643" lon="4.95731737247787">
        <time>2019-05-17T03:23:32Z</time>
      </trkpt>
      <trkpt lat="47.1999573089347" lon="4.95730183265165">
        <time>2019-05-17T03:23:32Z</time>
      </trkpt>
      <trkpt lat="47.1999854936035" lon="4.95728132490235">
        <time>2019-05-17T03:23:32Z</time>
      </trkpt>
      <trkpt lat="47.2000111649341" lon="4.95726033109524">
        <time>2019-05-17T03:23:32Z</time>
      </trkpt>
      <trkpt lat="47.2000206892895" lon="4.95728851405179">
        <time>2019-05-17T03:23:32Z</time>
      </trkpt>
      <trkpt lat="47.2000261199946" lon="4.95732034340731">
        <time>2019-05-17T03:23:32Z</time>
      </trkpt>
      <trkpt lat="47.2000342557092" lon="4.95736809020307">
        <time>2019-05-17T03:23:32Z</time>
      </trkpt>
      <trkpt lat="47.2000423925125" lon="4.95741583706758">
        <time>2019-05-17T03:23:32Z</time>
      </trkpt>
      <trkpt lat="47.2000505309955" lon="4.95746358240187">
        <time>2019-05-17T03:23:32Z</time>
      </trkpt>
      <trkpt lat="47.2000586683123" lon="4.9575113781598">
        <time>2019-05-17T03:23:32Z</time>
      </trkpt>
      <trkpt lat="47.2000668023222" lon="4.95755912330609">
        <time>2019-05-17T03:23:32Z</time>
      </trkpt>
      <trkpt lat="47.2000749363122" lon="4.95760686846688">
        <time>2019-05-17T03:23:32Z</time>
      </trkpt>
      <trkpt lat="47.2000830746791" lon="4.95765461548529">
        <time>2019-05-17T03:23:32Z</time>
      </trkpt>
      <trkpt lat="47.2000912130262" lon="4.95770236251821">
        <time>2019-05-17T03:23:32Z</time>
      </trkpt>
      <trkpt lat="47.2000993491737" lon="4.95775010783102">
        <time>2019-05-17T03:23:32Z</time>
      </trkpt>
      <trkpt lat="47.2001211749467" lon="4.95796288154716">
        <time>2019-05-17T03:23:32Z</time>
      </trkpt>
      <trkpt lat="47.2001329785946" lon="4.95814546916593">
        <time>2019-05-17T03:23:32Z</time>
      </trkpt>
      <trkpt lat="47.2001383437426" lon="4.95831401749251">
        <time>2019-05-17T03:23:32Z</time>
      </trkpt>
      <trkpt lat="47.2001380751921" lon="4.95846870993768">
        <time>2019-05-17T03:23:32Z</time>
      </trkpt>
      <trkpt lat="47.2001330372203" lon="4.95860977354139">
        <time>2019-05-17T03:23:32Z</time>
      </trkpt>
      <trkpt lat="47.2001240562653" lon="4.95873744001925">
        <time>2019-05-17T03:23:32Z</time>
      </trkpt>
      <trkpt lat="47.2001119637658" lon="4.9588519405322">
        <time>2019-05-17T03:23:32Z</time>
      </trkpt>
      <trkpt lat="47.2000975795017" lon="4.95895340882153">
        <time>2019-05-17T03:23:32Z</time>
      </trkpt>
      <trkpt lat="47.200081793125" lon="4.95904217496845">
        <time>2019-05-17T03:23:32Z</time>
      </trkpt>
      <trkpt lat="47.2000653685062" lon="4.95911836673825">
        <time>2019-05-17T03:23:32Z</time>
      </trkpt>
      <trkpt lat="47.200049196342" lon="4.9591822678818">
        <time>2019-05-17T03:23:32Z</time>
      </trkpt>
      <trkpt lat="47.2000340909422" lon="4.95923405666816">
        <time>2019-05-17T03:23:32Z</time>
      </trkpt>
      <trkpt lat="47.2000208653354" lon="4.95927396746866">
        <time>2019-05-17T03:23:32Z</time>
      </trkpt>
      <trkpt lat="47.2000103931405" lon="4.9593021806458">
        <time>2019-05-17T03:23:32Z</time>
      </trkpt>
      <trkpt lat="47.2000008995357" lon="4.95932435173129">
        <time>2019-05-17T03:23:32Z</time>
      </trkpt>
      <trkpt lat="47.199983768244" lon="4.95935506231716">
        <time>2019-05-17T03:23:32Z</time>
      </trkpt>
      <trkpt lat="47.1999612275966" lon="4.9593958386298">
        <time>2019-05-17T03:23:32Z</time>
      </trkpt>
      <trkpt lat="47.1999420542709" lon="4.95943129217336">
        <time>2019-05-17T03:23:32Z</time>
      </trkpt>
      <trkpt lat="47.1999207423392" lon="4.95947151489076">
        <time>2019-05-17T03:23:32Z</time>
      </trkpt>
      <trkpt lat="47.1998980208628" lon="4.95951540783366">
        <time>2019-05-17T03:23:32Z</time>
      </trkpt>
      <trkpt lat="47.1998747104011" lon="4.95956187409746">
        <time>2019-05-17T03:23:32Z</time>
      </trkpt>
      <trkpt lat="47.199851556038" lon="4.9596097202939">
        <time>2019-05-17T03:23:32Z</time>
      </trkpt>
      <trkpt lat="47.1998293189826" lon="4.95965784906176">
        <time>2019-05-17T03:23:32Z</time>
      </trkpt>
      <trkpt lat="47.1998087965791" lon="4.95970515993083">
        <time>2019-05-17T03:23:32Z</time>
      </trkpt>
      <trkpt lat="47.1997907405262" lon="4.95975055915252">
        <time>2019-05-17T03:23:32Z</time>
      </trkpt>
      <trkpt lat="47.1997759347664" lon="4.95979280398025">
        <time>2019-05-17T03:23:32Z</time>
      </trkpt>
      <trkpt lat="47.1997651322723" lon="4.95983089108285">
        <time>2019-05-17T03:23:32Z</time>
      </trkpt>
      <trkpt lat="47.1997588682343" lon="4.95987677271574">
        <time>2019-05-17T03:23:32Z</time>
      </trkpt>
      <trkpt lat="47.1997582641713" lon="4.95991890908942">
        <time>2019-05-17T03:23:32Z</time>
      </trkpt>
      <trkpt lat="47.1997525942617" lon="4.95995928412972">
        <time>2019-05-17T03:23:32Z</time>
      </trkpt>
      <trkpt lat="47.1997423407254" lon="4.96000922724202">
        <time>2019-05-17T03:23:32Z</time>
      </trkpt>
      <trkpt lat="47.1997282065494" lon="4.96006693250771">
        <time>2019-05-17T03:23:32Z</time>
      </trkpt>
      <trkpt lat="47.1997109846336" lon="4.96013054387989">
        <time>2019-05-17T03:23:32Z</time>
      </trkpt>
      <trkpt lat="47.1996913702872" lon="4.96019820297523">
        <time>2019-05-17T03:23:32Z</time>
      </trkpt>
      <trkpt lat="47.1996701448296" lon="4.96026814841992">
        <time>2019-05-17T03:23:32Z</time>
      </trkpt>
      <trkpt lat="47.1996480057047" lon="4.96033847717855">
        <time>2019-05-17T03:23:32Z</time>
      </trkpt>
      <trkpt lat="47.1996256960568" lon="4.9604074235773">
        <time>2019-05-17T03:23:32Z</time>
      </trkpt>
      <trkpt lat="47.1996039832408" lon="4.96047308476384">
        <time>2019-05-17T03:23:32Z</time>
      </trkpt>
      <trkpt lat="47.1995835791361" lon="4.96053365528958">
        <time>2019-05-17T03:23:32Z</time>
      </trkpt>
      <trkpt lat="47.1995652330505" lon="4.96058736735915">
        <time>2019-05-17T03:23:32Z</time>
      </trkpt>
      <trkpt lat="47.1995496806694" lon="4.9606322718169">
        <time>2019-05-17T03:23:32Z</time>
      </trkpt>
      <trkpt lat="47.1995376362207" lon="4.96066665531706">
        <time>2019-05-17T03:23:32Z</time>
      </trkpt>
      <trkpt lat="47.1995285142603" lon="4.96069247277497">
        <time>2019-05-17T03:23:32Z</time>
      </trkpt>
      <trkpt lat="47.1995027385833" lon="4.96077781286682">
        <time>2019-05-17T03:23:32Z</time>
      </trkpt>
      <trkpt lat="47.1994783379741" lon="4.96085928971753">
        <time>2019-05-17T03:23:32Z</time>
      </trkpt>
      <trkpt lat="47.1994539405927" lon="4.96094081711981">
        <time>2019-05-17T03:23:32Z</time>
      </trkpt>
      <trkpt lat="47.1994295442089" lon="4.96102229810456">
        <time>2019-05-17T03:23:32Z</time>
      </trkpt>
      <trkpt lat="47.1994051522935" lon="4.96110377516722">
        <time>2019-05-17T03:23:32Z</time>
      </trkpt>
      <trkpt lat="47.1993807508249" lon="4.96118525494605">
        <time>2019-05-17T03:23:32Z</time>
      </trkpt>
      <trkpt lat="47.1993563543419" lon="4.96126673245602">
        <time>2019-05-17T03:23:32Z</time>
      </trkpt>
      <trkpt lat="47.1993319305902" lon="4.96134821099976">
        <time>2019-05-17T03:23:32Z</time>
      </trkpt>
      <trkpt lat="47.1993075384437" lon="4.96142968776558">
        <time>2019-05-17T03:23:32Z</time>
      </trkpt>
      <trkpt lat="47.1992831417318" lon="4.96151116749202">
        <time>2019-05-17T03:23:32Z</time>
      </trkpt>
      <trkpt lat="47.1992587438696" lon="4.96159269511344">
        <time>2019-05-17T03:23:32Z</time>
      </trkpt>
      <trkpt lat="47.1992343471163" lon="4.96167417143929">
        <time>2019-05-17T03:23:32Z</time>
      </trkpt>
      <trkpt lat="47.1992099502312" lon="4.96175565094308">
        <time>2019-05-17T03:23:32Z</time>
      </trkpt>
      <trkpt lat="47.1991855527341" lon="4.96183713034549">
        <time>2019-05-17T03:23:32Z</time>
      </trkpt>
      <trkpt lat="47.199161155789" lon="4.96191860726176">
        <time>2019-05-17T03:23:32Z</time>
      </trkpt>
      <trkpt lat="47.1991403990007" lon="4.96200239349308">
        <time>2019-05-17T03:23:32Z</time>
      </trkpt>
      <trkpt lat="47.1991630248501" lon="4.96201578447279">
        <time>2019-05-17T03:23:32Z</time>
      </trkpt>
      <trkpt lat="47.1991981091094" lon="4.9620340896505">
        <time>2019-05-17T03:23:32Z</time>
      </trkpt>
      <trkpt lat="47.1992321347057" lon="4.96204967076269">
        <time>2019-05-17T03:23:32Z</time>
      </trkpt>
      <trkpt lat="47.1992583496659" lon="4.96206018628986">
        <time>2019-05-17T03:23:32Z</time>
      </trkpt>
      <trkpt lat="47.1992868935794" lon="4.96207024544732">
        <time>2019-05-17T03:23:32Z</time>
      </trkpt>
      <trkpt lat="47.1993174690184" lon="4.96207941202771">
        <time>2019-05-17T03:23:32Z</time>
      </trkpt>
      <trkpt lat="47.1993497937561" lon="4.96208728882318">
        <time>2019-05-17T03:23:32Z</time>
      </trkpt>
      <trkpt lat="47.1993836406051" lon="4.9620933519057">
        <time>2019-05-17T03:23:32Z</time>
      </trkpt>
      <trkpt lat="47.1994186426712" lon="4.96209729188892">
        <time>2019-05-17T03:23:32Z</time>
      </trkpt>
      <trkpt lat="47.1994546016433" lon="4.96209853497893">
        <time>2019-05-17T03:23:32Z</time>
      </trkpt>
      <trkpt lat="47.1994911931732" lon="4.96209673073344">
        <time>2019-05-17T03:23:32Z</time>
      </trkpt>
      <trkpt lat="47.199528151939" lon="4.96209144613862">
        <time>2019-05-17T03:23:32Z</time>
      </trkpt>
      <trkpt lat="47.1995714702726" lon="4.96208755999243">
        <time>2019-05-17T03:23:32Z</time>
      </trkpt>
      <trkpt lat="47.1996264852688" lon="4.96208987828115">
        <time>2019-05-17T03:23:32Z</time>
      </trkpt>
      <trkpt lat="47.1996920532004" lon="4.96209777924751">
        <time>2019-05-17T03:23:32Z</time>
      </trkpt>
      <trkpt lat="47.1997669673438" lon="4.96211067874634">
        <time>2019-05-17T03:23:32Z</time>
      </trkpt>
      <trkpt lat="47.1998595436343" lon="4.96213011678527">
        <time>2019-05-17T03:23:32Z</time>
      </trkpt>
      <trkpt lat="47.1999401067738" lon="4.96214884047565">
        <time>2019-05-17T03:23:32Z</time>
      </trkpt>
      <trkpt lat="47.2000359587936" lon="4.96217289975555">
        <time>2019-05-17T03:23:32Z</time>
      </trkpt>
      <trkpt lat="47.2001364039032" lon="4.96219945122423">
        <time>2019-05-17T03:23:32Z</time>
      </trkpt>
      <trkpt lat="47.2002402689135" lon="4.96222782690298">
        <time>2019-05-17T03:23:32Z</time>
      </trkpt>
      <trkpt lat="47.2003463502974" lon="4.96225744848231">
        <time>2019-05-17T03:23:32Z</time>
      </trkpt>
      <trkpt lat="47.2004534778204" lon="4.96228768881274">
        <time>2019-05-17T03:23:32Z</time>
      </trkpt>
      <trkpt lat="47.2005604734342" lon="4.962317922796">
        <time>2019-05-17T03:23:32Z</time>
      </trkpt>
      <trkpt lat="47.2006661563545" lon="4.96234757240201">
        <time>2019-05-17T03:23:32Z</time>
      </trkpt>
      <trkpt lat="47.2007692858247" lon="4.96237591583599">
        <time>2019-05-17T03:23:32Z</time>
      </trkpt>
      <trkpt lat="47.2008686989595" lon="4.96240241744332">
        <time>2019-05-17T03:23:32Z</time>
      </trkpt>
      <trkpt lat="47.2009632580434" lon="4.96242641093473">
        <time>2019-05-17T03:23:32Z</time>
      </trkpt>
      <trkpt lat="47.2010487029013" lon="4.96244669350338">
        <time>2019-05-17T03:23:32Z</time>
      </trkpt>
      <trkpt lat="47.2011224667797" lon="4.96246251899411">
        <time>2019-05-17T03:23:32Z</time>
      </trkpt>
      <trkpt lat="47.2011857782941" lon="4.96247414380013">
        <time>2019-05-17T03:23:32Z</time>
      </trkpt>
      <trkpt lat="47.2012399660082" lon="4.96248167456858">
        <time>2019-05-17T03:23:32Z</time>
      </trkpt>
      <trkpt lat="47.2012862314389" lon="4.96248531509651">
        <time>2019-05-17T03:23:32Z</time>
      </trkpt>
      <trkpt lat="47.2013259301005" lon="4.96248518231685">
        <time>2019-05-17T03:23:32Z</time>
      </trkpt>
      <trkpt lat="47.2013602549168" lon="4.96248151624236">
        <time>2019-05-17T03:23:32Z</time>
      </trkpt>
      <trkpt lat="47.2013904931273" lon="4.96247438650874">
        <time>2019-05-17T03:23:32Z</time>
      </trkpt>
      <trkpt lat="47.2014179412118" lon="4.96246409030598">
        <time>2019-05-17T03:23:32Z</time>
      </trkpt>
      <trkpt lat="47.2014438283302" lon="4.96245068953953">
        <time>2019-05-17T03:23:32Z</time>
      </trkpt>
      <trkpt lat="47.2014694619068" lon="4.96243434193225">
        <time>2019-05-17T03:23:32Z</time>
      </trkpt>
      <trkpt lat="47.2014961084418" lon="4.96241529680661">
        <time>2019-05-17T03:23:32Z</time>
      </trkpt>
      <trkpt lat="47.2015249843234" lon="4.9623937139302">
        <time>2019-05-17T03:23:32Z</time>
      </trkpt>
      <trkpt lat="47.2015574269607" lon="4.96236970121086">
        <time>2019-05-17T03:23:32Z</time>
      </trkpt>
      <trkpt lat="47.2015946755529" lon="4.96234346429877">
        <time>2019-05-17T03:23:32Z</time>
      </trkpt>
      <trkpt lat="47.2016379970863" lon="4.96231515810898">
        <time>2019-05-17T03:23:32Z</time>
      </trkpt>
      <trkpt lat="47.2016879055918" lon="4.96228774142624">
        <time>2019-05-17T03:23:32Z</time>
      </trkpt>
      <trkpt lat="47.2017437771832" lon="4.96226407572963">
        <time>2019-05-17T03:23:32Z</time>
      </trkpt>
      <trkpt lat="47.2018050639858" lon="4.9622441732271">
        <time>2019-05-17T03:23:32Z</time>
      </trkpt>
      <trkpt lat="47.2018713059417" lon="4.96222811229903">
        <time>2019-05-17T03:23:32Z</time>
      </trkpt>
      <trkpt lat="47.2019419577956" lon="4.96221596063916">
        <time>2019-05-17T03:23:32Z</time>
      </trkpt>
      <trkpt lat="47.2020165303233" lon="4.96220773741055">
        <time>2019-05-17T03:23:32Z</time>
      </trkpt>
      <trkpt lat="47.2020945285181" lon="4.96220347207677">
        <time>2019-05-17T03:23:32Z</time>
      </trkpt>
      <trkpt lat="47.202175420572" lon="4.96220322648622">
        <time>2019-05-17T03:23:32Z</time>
      </trkpt>
      <trkpt lat="47.2022587309666" lon="4.96220702699186">
        <time>2019-05-17T03:23:32Z</time>
      </trkpt>
      <trkpt lat="47.2023439592787" lon="4.96221494593807">
        <time>2019-05-17T03:23:32Z</time>
      </trkpt>
      <trkpt lat="47.2024305414819" lon="4.96222704685345">
        <time>2019-05-17T03:23:32Z</time>
      </trkpt>
      <trkpt lat="47.202518034683" lon="4.96224331211003">
        <time>2019-05-17T03:23:32Z</time>
      </trkpt>
      <trkpt lat="47.2026059059051" lon="4.9622638547854">
        <time>2019-05-17T03:23:32Z</time>
      </trkpt>
      <trkpt lat="47.2026936530296" lon="4.9622886510911">
        <time>2019-05-17T03:23:32Z</time>
      </trkpt>
      <trkpt lat="47.2027808017861" lon="4.96231781861109">
        <time>2019-05-17T03:23:32Z</time>
      </trkpt>
      <trkpt lat="47.2028667902548" lon="4.96235137702041">
        <time>2019-05-17T03:23:32Z</time>
      </trkpt>
      <trkpt lat="47.2029549393072" lon="4.96238641390457">
        <time>2019-05-17T03:23:32Z</time>
      </trkpt>
      <trkpt lat="47.2030481680255" lon="4.96242004597368">
        <time>2019-05-17T03:23:32Z</time>
      </trkpt>
      <trkpt lat="47.2031452915366" lon="4.96245211825273">
        <time>2019-05-17T03:23:32Z</time>
      </trkpt>
      <trkpt lat="47.2032452204609" lon="4.96248266766678">
        <time>2019-05-17T03:23:32Z</time>
      </trkpt>
      <trkpt lat="47.2033468262985" lon="4.96251164619075">
        <time>2019-05-17T03:23:32Z</time>
      </trkpt>
      <trkpt lat="47.2034489701929" lon="4.96253890028127">
        <time>2019-05-17T03:23:32Z</time>
      </trkpt>
      <trkpt lat="47.2035505532511" lon="4.96256447045783">
        <time>2019-05-17T03:23:32Z</time>
      </trkpt>
      <trkpt lat="47.2036503983561" lon="4.96258825094944">
        <time>2019-05-17T03:23:32Z</time>
      </trkpt>
      <trkpt lat="47.2037474059221" lon="4.96261014222722">
        <time>2019-05-17T03:23:32Z</time>
      </trkpt>
      <trkpt lat="47.2038404439281" lon="4.96263027516369">
        <time>2019-05-17T03:23:32Z</time>
      </trkpt>
      <trkpt lat="47.2039283932718" lon="4.96264840844544">
        <time>2019-05-17T03:23:32Z</time>
      </trkpt>
      <trkpt lat="47.2040101056665" lon="4.96266453457662">
        <time>2019-05-17T03:23:32Z</time>
      </trkpt>
      <trkpt lat="47.2040844905944" lon="4.9626785943555">
        <time>2019-05-17T03:23:32Z</time>
      </trkpt>
      <trkpt lat="47.2041503858768" lon="4.96269058123293">
        <time>2019-05-17T03:23:32Z</time>
      </trkpt>
      <trkpt lat="47.2042066835969" lon="4.9627003960817">
        <time>2019-05-17T03:23:32Z</time>
      </trkpt>
      <trkpt lat="47.2042522283962" lon="4.96270797652157">
        <time>2019-05-17T03:23:32Z</time>
      </trkpt>
      <trkpt lat="47.2042919992221" lon="4.96271470720299">
        <time>2019-05-17T03:23:32Z</time>
      </trkpt>
      <trkpt lat="47.2043314272884" lon="4.96272184681584">
        <time>2019-05-17T03:23:32Z</time>
      </trkpt>
      <trkpt lat="47.2043702299237" lon="4.96272933428249">
        <time>2019-05-17T03:23:32Z</time>
      </trkpt>
      <trkpt lat="47.2044080811586" lon="4.96273706081584">
        <time>2019-05-17T03:23:32Z</time>
      </trkpt>
      <trkpt lat="47.2044446872106" lon="4.96274481989612">
        <time>2019-05-17T03:23:32Z</time>
      </trkpt>
      <trkpt lat="47.2044797354634" lon="4.9627525497894">
        <time>2019-05-17T03:23:32Z</time>
      </trkpt>
      <trkpt lat="47.2045129132332" lon="4.96276009433119">
        <time>2019-05-17T03:23:32Z</time>
      </trkpt>
      <trkpt lat="47.2045439290744" lon="4.96276738794102">
        <time>2019-05-17T03:23:32Z</time>
      </trkpt>
      <trkpt lat="47.2045724446992" lon="4.96277427808181">
        <time>2019-05-17T03:23:32Z</time>
      </trkpt>
      <trkpt lat="47.2046094662029" lon="4.96278347806657">
        <time>2019-05-17T03:23:32Z</time>
      </trkpt>
      <trkpt lat="47.2046477039714" lon="4.96279328149401">
        <time>2019-05-17T03:23:32Z</time>
      </trkpt>
      <trkpt lat="47.2046723918022" lon="4.96279986179799">
        <time>2019-05-17T03:23:32Z</time>
      </trkpt>
      <trkpt lat="47.2047163854926" lon="4.96279837780344">
        <time>2019-05-17T03:23:32Z</time>
      </trkpt>
      <trkpt lat="47.2047564273381" lon="4.96279584360316">
        <time>2019-05-17T03:23:32Z</time>
      </trkpt>
      <trkpt lat="47.204796441381" lon="4.9627933121055">
        <time>2019-05-17T03:23:32Z</time>
      </trkpt>
      <trkpt lat="47.204836452157" lon="4.96279072915994">
        <time>2019-05-17T03:23:32Z</time>
      </trkpt>
      <trkpt lat="47.2048748193144" lon="4.96278830409927">
        <time>2019-05-17T03:23:32Z</time>
      </trkpt>
      <trkpt lat="47.2049165030545" lon="4.96278566319457">
        <time>2019-05-17T03:23:32Z</time>
      </trkpt>
      <trkpt lat="47.2049565170952" lon="4.96278313168174">
        <time>2019-05-17T03:23:32Z</time>
      </trkpt>
      <trkpt lat="47.2049965278505" lon="4.96278054953398">
        <time>2019-05-17T03:23:32Z</time>
      </trkpt>
      <trkpt lat="47.205036569064" lon="4.96277801853244">
        <time>2019-05-17T03:23:32Z</time>
      </trkpt>
      <trkpt lat="47.2050765831771" lon="4.96277548375573">
        <time>2019-05-17T03:23:32Z</time>
      </trkpt>
      <trkpt lat="47.2051165938752" lon="4.96277290403585">
        <time>2019-05-17T03:23:32Z</time>
      </trkpt>
      <trkpt lat="47.2051566079873" lon="4.96277036925153">
        <time>2019-05-17T03:23:32Z</time>
      </trkpt>
      <trkpt lat="47.2051966497528" lon="4.96276783826201">
        <time>2019-05-17T03:23:32Z</time>
      </trkpt>
      <trkpt lat="47.2052366588761" lon="4.96276530322546">
        <time>2019-05-17T03:23:32Z</time>
      </trkpt>
      <trkpt lat="47.205276673987" lon="4.96276272452087">
        <time>2019-05-17T03:23:32Z</time>
      </trkpt>
      <trkpt lat="47.2053218192047" lon="4.96275935222818">
        <time>2019-05-17T03:23:32Z</time>
      </trkpt>
      <trkpt lat="47.2053559942022" lon="4.96275383491258">
        <time>2019-05-17T03:23:32Z</time>
      </trkpt>
      <trkpt lat="47.2054015286268" lon="4.96274660280419">
        <time>2019-05-17T03:23:32Z</time>
      </trkpt>
      <trkpt lat="47.2054612036135" lon="4.96273722329864">
        <time>2019-05-17T03:23:32Z</time>
      </trkpt>
      <trkpt lat="47.2055326447647" lon="4.96272615055703">
        <time>2019-05-17T03:23:32Z</time>
      </trkpt>
      <trkpt lat="47.2056134417717" lon="4.96271383209646">
        <time>2019-05-17T03:23:32Z</time>
      </trkpt>
      <trkpt lat="47.2057012878823" lon="4.96270077261563">
        <time>2019-05-17T03:23:32Z</time>
      </trkpt>
      <trkpt lat="47.2057938138205" lon="4.96268737199554">
        <time>2019-05-17T03:23:32Z</time>
      </trkpt>
      <trkpt lat="47.2058886374127" lon="4.9626740848445">
        <time>2019-05-17T03:23:32Z</time>
      </trkpt>
      <trkpt lat="47.2059833992293" lon="4.96266131723503">
        <time>2019-05-17T03:23:32Z</time>
      </trkpt>
      <trkpt lat="47.2060757311868" lon="4.96264961158049">
        <time>2019-05-17T03:23:32Z</time>
      </trkpt>
      <trkpt lat="47.2061632760025" lon="4.96263932848239">
        <time>2019-05-17T03:23:32Z</time>
      </trkpt>
      <trkpt lat="47.2062436949136" lon="4.96263096540074">
        <time>2019-05-17T03:23:32Z</time>
      </trkpt>
      <trkpt lat="47.2063145447687" lon="4.96262497478991">
        <time>2019-05-17T03:23:32Z</time>
      </trkpt>
      <trkpt lat="47.2063735443365" lon="4.96262176413425">
        <time>2019-05-17T03:23:32Z</time>
      </trkpt>
      <trkpt lat="47.2064183104482" lon="4.96262178313222">
        <time>2019-05-17T03:23:32Z</time>
      </trkpt>
      <trkpt lat="47.2064609942468" lon="4.96262387677512">
        <time>2019-05-17T03:23:32Z</time>
      </trkpt>
      <trkpt lat="47.2065141505938" lon="4.96262648410185">
        <time>2019-05-17T03:23:32Z</time>
      </trkpt>
      <trkpt lat="47.2065759157441" lon="4.96262951369822">
        <time>2019-05-17T03:23:32Z</time>
      </trkpt>
      <trkpt lat="47.2066445223819" lon="4.96263287887957">
        <time>2019-05-17T03:23:32Z</time>
      </trkpt>
      <trkpt lat="47.2067181073164" lon="4.96263648825789">
        <time>2019-05-17T03:23:32Z</time>
      </trkpt>
      <trkpt lat="47.2067948433793" lon="4.96264025221132">
        <time>2019-05-17T03:23:32Z</time>
      </trkpt>
      <trkpt lat="47.2068729499547" lon="4.96264408340045">
        <time>2019-05-17T03:23:32Z</time>
      </trkpt>
      <trkpt lat="47.2069505538768" lon="4.9626478899452">
        <time>2019-05-17T03:23:32Z</time>
      </trkpt>
      <trkpt lat="47.2070258556876" lon="4.96265158357988">
        <time>2019-05-17T03:23:32Z</time>
      </trkpt>
      <trkpt lat="47.2070970476163" lon="4.96265507563006">
        <time>2019-05-17T03:23:32Z</time>
      </trkpt>
      <trkpt lat="47.2071622747858" lon="4.96265827510981">
        <time>2019-05-17T03:23:32Z</time>
      </trkpt>
      <trkpt lat="47.2072197377387" lon="4.96266109375088">
        <time>2019-05-17T03:23:32Z</time>
      </trkpt>
      <trkpt lat="47.2072676187289" lon="4.96266344238747">
        <time>2019-05-17T03:23:32Z</time>
      </trkpt>
      <trkpt lat="47.2073040456999" lon="4.96266522918954">
        <time>2019-05-17T03:23:32Z</time>
      </trkpt>
      <trkpt lat="47.2073313384955" lon="4.96266656794708">
        <time>2019-05-17T03:23:32Z</time>
      </trkpt>
      <trkpt lat="47.2074162833044" lon="4.96267168059022">
        <time>2019-05-17T03:23:32Z</time>
      </trkpt>
      <trkpt lat="47.2074883176762" lon="4.96266948784538">
        <time>2019-05-17T03:23:32Z</time>
      </trkpt>
      <trkpt lat="47.2075532294883" lon="4.96266083774187">
        <time>2019-05-17T03:23:32Z</time>
      </trkpt>
      <trkpt lat="47.2076127742405" lon="4.96264653031116">
        <time>2019-05-17T03:23:32Z</time>
      </trkpt>
      <trkpt lat="47.2076687013787" lon="4.96262726597651">
        <time>2019-05-17T03:23:32Z</time>
      </trkpt>
      <trkpt lat="47.2077227227195" lon="4.96260374087614">
        <time>2019-05-17T03:23:32Z</time>
      </trkpt>
      <trkpt lat="47.2077765875974" lon="4.96257666031628">
        <time>2019-05-17T03:23:32Z</time>
      </trkpt>
      <trkpt lat="47.2078320250613" lon="4.96254676768341">
        <time>2019-05-17T03:23:32Z</time>
      </trkpt>
      <trkpt lat="47.2078907833903" lon="4.96251481463283">
        <time>2019-05-17T03:23:32Z</time>
      </trkpt>
      <trkpt lat="47.2079545926716" lon="4.96248149901094">
        <time>2019-05-17T03:23:32Z</time>
      </trkpt>
      <trkpt lat="47.2080251851574" lon="4.96244747236605">
        <time>2019-05-17T03:23:32Z</time>
      </trkpt>
      <trkpt lat="47.2081043068901" lon="4.96241353589786">
        <time>2019-05-17T03:23:32Z</time>
      </trkpt>
      <trkpt lat="47.2081936619304" lon="4.96238038535882">
        <time>2019-05-17T03:23:32Z</time>
      </trkpt>
      <trkpt lat="47.2082950618123" lon="4.96234877224673">
        <time>2019-05-17T03:23:32Z</time>
      </trkpt>
      <trkpt lat="47.2084101833895" lon="4.9623193445809">
        <time>2019-05-17T03:23:32Z</time>
      </trkpt>
      <trkpt lat="47.2085407461638" lon="4.96229285098157">
        <time>2019-05-17T03:23:32Z</time>
      </trkpt>
      <trkpt lat="47.2086737761937" lon="4.9622749048891">
        <time>2019-05-17T03:23:32Z</time>
      </trkpt>
      <trkpt lat="47.2087953840483" lon="4.96226941743175">
        <time>2019-05-17T03:23:32Z</time>
      </trkpt>
      <trkpt lat="47.2089058969275" lon="4.96227488483613">
        <time>2019-05-17T03:23:32Z</time>
      </trkpt>
      <trkpt lat="47.2090057631609" lon="4.96228972213535">
        <time>2019-05-17T03:23:32Z</time>
      </trkpt>
      <trkpt lat="47.2090953541119" lon="4.96231243499932">
        <time>2019-05-17T03:23:32Z</time>
      </trkpt>
      <trkpt lat="47.2091751115188" lon="4.96234133796162">
        <time>2019-05-17T03:23:32Z</time>
      </trkpt>
      <trkpt lat="47.2092453535266" lon="4.96237488601466">
        <time>2019-05-17T03:23:32Z</time>
      </trkpt>
      <trkpt lat="47.2093065607085" lon="4.96241163735424">
        <time>2019-05-17T03:23:32Z</time>
      </trkpt>
      <trkpt lat="47.2093590739431" lon="4.96244990152774">
        <time>2019-05-17T03:23:32Z</time>
      </trkpt>
      <trkpt lat="47.2094032750931" lon="4.962488137437">
        <time>2019-05-17T03:23:32Z</time>
      </trkpt>
      <trkpt lat="47.2094395948507" lon="4.96252475508614">
        <time>2019-05-17T03:23:32Z</time>
      </trkpt>
      <trkpt lat="47.2094684317235" lon="4.96255826221856">
        <time>2019-05-17T03:23:32Z</time>
      </trkpt>
      <trkpt lat="47.2094901793505" lon="4.96258706376206">
        <time>2019-05-17T03:23:32Z</time>
      </trkpt>
      <trkpt lat="47.2095119731645" lon="4.96262104609222">
        <time>2019-05-17T03:23:32Z</time>
      </trkpt>
      <trkpt lat="47.2095465766484" lon="4.96266899668038">
        <time>2019-05-17T03:23:32Z</time>
      </trkpt>
      <trkpt lat="47.2096462688467" lon="4.96235159005302">
        <time>2019-05-17T03:23:32Z</time>
      </trkpt>
      <trkpt lat="47.209690191512" lon="4.96221183388177">
        <time>2019-05-17T03:23:32Z</time>
      </trkpt>
      <trkpt lat="47.2099058539293" lon="4.9614645810886">
        <time>2019-05-17T03:23:32Z</time>
      </trkpt>
      <trkpt lat="47.2100791713179" lon="4.96083183297865">
        <time>2019-05-17T03:23:32Z</time>
      </trkpt>
      <trkpt lat="47.2102269078176" lon="4.96015896485893">
        <time>2019-05-17T03:23:32Z</time>
      </trkpt>
      <trkpt lat="47.2103891755852" lon="4.96001146386494">
        <time>2019-05-17T03:23:32Z</time>
      </trkpt>
      <trkpt lat="47.2106581461251" lon="4.95983032470727">
        <time>2019-05-17T03:23:32Z</time>
      </trkpt>
      <trkpt lat="47.2108248302626" lon="4.95948872133749">
        <time>2019-05-17T03:23:32Z</time>
      </trkpt>
      <trkpt lat="47.2109399329944" lon="4.95908628889165">
        <time>2019-05-17T03:23:32Z</time>
      </trkpt>
      <trkpt lat="47.2111242565861" lon="4.95855122302614">
        <time>2019-05-17T03:23:32Z</time>
      </trkpt>
      <trkpt lat="47.211298441264" lon="4.95787963120067">
        <time>2019-05-17T03:23:32Z</time>
      </trkpt>
      <trkpt lat="47.2114747984102" lon="4.95827690929964">
        <time>2019-05-17T03:23:32Z</time>
      </trkpt>
      <trkpt lat="47.2118345837708" lon="4.95876090173569">
        <time>2019-05-17T03:23:32Z</time>
      </trkpt>
      <trkpt lat="47.2121823410396" lon="4.95918586271391">
        <time>2019-05-17T03:23:32Z</time>
      </trkpt>
      <trkpt lat="47.2122154297223" lon="4.9592298834195">
        <time>2019-05-17T03:23:32Z</time>
      </trkpt>
      <trkpt lat="47.2123623426431" lon="4.95942802610366">
        <time>2019-05-17T03:23:32Z</time>
      </trkpt>
      <trkpt lat="47.212771945467" lon="4.96005050481037">
        <time>2019-05-17T03:23:32Z</time>
      </trkpt>
      <trkpt lat="47.2132631108937" lon="4.96057982903569">
        <time>2019-05-17T03:23:32Z</time>
      </trkpt>
      <trkpt lat="47.2138093138441" lon="4.96102347158369">
        <time>2019-05-17T03:23:32Z</time>
      </trkpt>
      <trkpt lat="47.2138742032737" lon="4.96107617788147">
        <time>2019-05-17T03:23:32Z</time>
      </trkpt>
      <trkpt lat="47.214317321261" lon="4.96138940189258">
        <time>2019-05-17T03:23:32Z</time>
      </trkpt>
      <trkpt lat="47.2149835349412" lon="4.96179130370033">
        <time>2019-05-17T03:23:32Z</time>
      </trkpt>
      <trkpt lat="47.2158080464708" lon="4.96222041427131">
        <time>2019-05-17T03:23:32Z</time>
      </trkpt>
      <trkpt lat="47.2164239959995" lon="4.96250327099495">
        <time>2019-05-17T03:23:32Z</time>
      </trkpt>
      <trkpt lat="47.2169363456014" lon="4.96268387816584">
        <time>2019-05-17T03:23:32Z</time>
      </trkpt>
      <trkpt lat="47.2174491276803" lon="4.96284507455366">
        <time>2019-05-17T03:23:32Z</time>
      </trkpt>
      <trkpt lat="47.2175160235592" lon="4.96285794098587">
        <time>2019-05-17T03:23:32Z</time>
      </trkpt>
      <trkpt lat="47.2177225729493" lon="4.96289735896248">
        <time>2019-05-17T03:23:32Z</time>
      </trkpt>
      <trkpt lat="47.2177460954644" lon="4.96290185143982">
        <time>2019-05-17T03:23:32Z</time>
      </trkpt>
      <trkpt lat="47.2179568580207" lon="4.9629510607797">
        <time>2019-05-17T03:23:32Z</time>
      </trkpt>
      <trkpt lat="47.2186867805996" lon="4.96315845476535">
        <time>2019-05-17T03:23:32Z</time>
      </trkpt>
      <trkpt lat="47.2191748789386" lon="4.96324071175011">
        <time>2019-05-17T03:23:32Z</time>
      </trkpt>
      <trkpt lat="47.2196113990073" lon="4.96326213348018">
        <time>2019-05-17T03:23:32Z</time>
      </trkpt>
      <trkpt lat="47.2196873782784" lon="4.96326586211322">
        <time>2019-05-17T03:23:32Z</time>
      </trkpt>
      <trkpt lat="47.2201405023184" lon="4.9632880991008">
        <time>2019-05-17T03:23:32Z</time>
      </trkpt>
      <trkpt lat="47.2212101844415" lon="4.96341833920451">
        <time>2019-05-17T03:23:32Z</time>
      </trkpt>
      <trkpt lat="47.2214993336518" lon="4.96467641978434">
        <time>2019-05-17T03:23:32Z</time>
      </trkpt>
      <trkpt lat="47.2217550842714" lon="4.96449462033136">
        <time>2019-05-17T03:23:32Z</time>
      </trkpt>
      <trkpt lat="47.222103427288" lon="4.96431736183827">
        <time>2019-05-17T03:23:32Z</time>
      </trkpt>
      <trkpt lat="47.2224306890732" lon="4.96417232773955">
        <time>2019-05-17T03:23:32Z</time>
      </trkpt>
      <trkpt lat="47.2225712086077" lon="4.96422454710483">
        <time>2019-05-17T03:23:32Z</time>
      </trkpt>
      <trkpt lat="47.2225910167178" lon="4.96423563238304">
        <time>2019-05-17T03:23:32Z</time>
      </trkpt>
      <trkpt lat="47.2236926938143" lon="4.9648991028306">
        <time>2019-05-17T03:23:32Z</time>
      </trkpt>
      <trkpt lat="47.2242885911715" lon="4.96526340937182">
        <time>2019-05-17T03:23:32Z</time>
      </trkpt>
      <trkpt lat="47.2243273715371" lon="4.96528711853895">
        <time>2019-05-17T03:23:32Z</time>
      </trkpt>
      <trkpt lat="47.2246959147821" lon="4.96543116007302">
        <time>2019-05-17T03:23:32Z</time>
      </trkpt>
      <trkpt lat="47.2250068638694" lon="4.96559335014012">
        <time>2019-05-17T03:23:32Z</time>
      </trkpt>
      <trkpt lat="47.2256325223003" lon="4.96575002752861">
        <time>2019-05-17T03:23:32Z</time>
      </trkpt>
      <trkpt lat="47.2262591630428" lon="4.96586480851871">
        <time>2019-05-17T03:23:32Z</time>
      </trkpt>
      <trkpt lat="47.226518865693" lon="4.96506731042733">
        <time>2019-05-17T03:23:32Z</time>
      </trkpt>
      <trkpt lat="47.2266280004367" lon="4.96496094248398">
        <time>2019-05-17T03:23:32Z</time>
      </trkpt>
      <trkpt lat="47.2266648209225" lon="4.96491396236373">
        <time>2019-05-17T03:23:32Z</time>
      </trkpt>
      <trkpt lat="47.2267075835991" lon="4.96487690303831">
        <time>2019-05-17T03:23:32Z</time>
      </trkpt>
      <trkpt lat="47.22675599013" lon="4.96484897947879">
        <time>2019-05-17T03:23:32Z</time>
      </trkpt>
      <trkpt lat="47.2268087710767" lon="4.96482931743653">
        <time>2019-05-17T03:23:32Z</time>
      </trkpt>
      <trkpt lat="47.2268646443822" lon="4.9648168172814">
        <time>2019-05-17T03:23:32Z</time>
      </trkpt>
      <trkpt lat="47.226922368853" lon="4.96481055810737">
        <time>2019-05-17T03:23:32Z</time>
      </trkpt>
      <trkpt lat="47.2269806335514" lon="4.964809490169">
        <time>2019-05-17T03:23:32Z</time>
      </trkpt>
      <trkpt lat="47.2270381684229" lon="4.96481274162841">
        <time>2019-05-17T03:23:32Z</time>
      </trkpt>
      <trkpt lat="47.2270936987507" lon="4.96481930441496">
        <time>2019-05-17T03:23:32Z</time>
      </trkpt>
      <trkpt lat="47.2271459769771" lon="4.96482812292417">
        <time>2019-05-17T03:23:32Z</time>
      </trkpt>
      <trkpt lat="47.2271937074664" lon="4.96483827925641">
        <time>2019-05-17T03:23:32Z</time>
      </trkpt>
      <trkpt lat="47.227235614911" lon="4.96484876692457">
        <time>2019-05-17T03:23:32Z</time>
      </trkpt>
      <trkpt lat="47.2272704303138" lon="4.96485866769904">
        <time>2019-05-17T03:23:32Z</time>
      </trkpt>
      <trkpt lat="47.2273011667149" lon="4.9648661856427">
        <time>2019-05-17T03:23:32Z</time>
      </trkpt>
      <trkpt lat="47.2273620326088" lon="4.96487094774797">
        <time>2019-05-17T03:23:32Z</time>
      </trkpt>
      <trkpt lat="47.227726709198" lon="4.96489937460198">
        <time>2019-05-17T03:23:32Z</time>
      </trkpt>
      <trkpt lat="47.2278404776976" lon="4.96493650546699">
        <time>2019-05-17T03:23:32Z</time>
      </trkpt>
      <trkpt lat="47.228076124597" lon="4.96496910874614">
        <time>2019-05-17T03:23:32Z</time>
      </trkpt>
      <trkpt lat="47.2283191721358" lon="4.96499155879002">
        <time>2019-05-17T03:23:32Z</time>
      </trkpt>
      <trkpt lat="47.2286635808846" lon="4.96496641755058">
        <time>2019-05-17T03:23:32Z</time>
      </trkpt>
      <trkpt lat="47.2289595830942" lon="4.96486529083377">
        <time>2019-05-17T03:23:32Z</time>
      </trkpt>
      <trkpt lat="47.229231700162" lon="4.96477380359939">
        <time>2019-05-17T03:23:32Z</time>
      </trkpt>
      <trkpt lat="47.2292651701786" lon="4.9647653007262">
        <time>2019-05-17T03:23:32Z</time>
      </trkpt>
      <trkpt lat="47.2293191083799" lon="4.96475425552136">
        <time>2019-05-17T03:23:32Z</time>
      </trkpt>
      <trkpt lat="47.229413442374" lon="4.96474297818176">
        <time>2019-05-17T03:23:32Z</time>
      </trkpt>
      <trkpt lat="47.2295060869319" lon="4.96474080677407">
        <time>2019-05-17T03:23:32Z</time>
      </trkpt>
      <trkpt lat="47.2295964834339" lon="4.96474661853342">
        <time>2019-05-17T03:23:32Z</time>
      </trkpt>
      <trkpt lat="47.2296841340479" lon="4.96475934986487">
        <time>2019-05-17T03:23:32Z</time>
      </trkpt>
      <trkpt lat="47.2297685420124" lon="4.96477793884535">
        <time>2019-05-17T03:23:32Z</time>
      </trkpt>
      <trkpt lat="47.2298491026889" lon="4.96480126123543">
        <time>2019-05-17T03:23:32Z</time>
      </trkpt>
      <trkpt lat="47.2299253370538" lon="4.96482820709923">
        <time>2019-05-17T03:23:32Z</time>
      </trkpt>
      <trkpt lat="47.2299967207441" lon="4.96485775710803">
        <time>2019-05-17T03:23:32Z</time>
      </trkpt>
      <trkpt lat="47.2300627111321" lon="4.96488884134861">
        <time>2019-05-17T03:23:32Z</time>
      </trkpt>
      <trkpt lat="47.2301227672063" lon="4.96492029469288">
        <time>2019-05-17T03:23:32Z</time>
      </trkpt>
      <trkpt lat="47.2301764005176" lon="4.9649511044399">
        <time>2019-05-17T03:23:32Z</time>
      </trkpt>
      <trkpt lat="47.2302230601888" lon="4.96498014894332">
        <time>2019-05-17T03:23:32Z</time>
      </trkpt>
      <trkpt lat="47.230262204095" lon="4.96500636073412">
        <time>2019-05-17T03:23:32Z</time>
      </trkpt>
      <trkpt lat="47.2302933349088" lon="4.96502867861354">
        <time>2019-05-17T03:23:32Z</time>
      </trkpt>
      <trkpt lat="47.2303261258868" lon="4.96505415249222">
        <time>2019-05-17T03:23:32Z</time>
      </trkpt>
      <trkpt lat="47.230360913514" lon="4.96508233224394">
        <time>2019-05-17T03:23:32Z</time>
      </trkpt>
      <trkpt lat="47.2303889130973" lon="4.96510520495214">
        <time>2019-05-17T03:23:32Z</time>
      </trkpt>
      <trkpt lat="47.2304195215215" lon="4.96513038358756">
        <time>2019-05-17T03:23:32Z</time>
      </trkpt>
      <trkpt lat="47.2304520223169" lon="4.96515717165569">
        <time>2019-05-17T03:23:32Z</time>
      </trkpt>
      <trkpt lat="47.2304856609481" lon="4.96518500924105">
        <time>2019-05-17T03:23:32Z</time>
      </trkpt>
      <trkpt lat="47.2305196567163" lon="4.96521319424532">
        <time>2019-05-17T03:23:32Z</time>
      </trkpt>
      <trkpt lat="47.2305532664741" lon="4.9652410809776">
        <time>2019-05-17T03:23:32Z</time>
      </trkpt>
      <trkpt lat="47.2305857613801" lon="4.96526815068204">
        <time>2019-05-17T03:23:32Z</time>
      </trkpt>
      <trkpt lat="47.2306163904127" lon="4.9652936163798">
        <time>2019-05-17T03:23:32Z</time>
      </trkpt>
      <trkpt lat="47.2306443436763" lon="4.96531691297787">
        <time>2019-05-17T03:23:32Z</time>
      </trkpt>
      <trkpt lat="47.2306791351339" lon="4.96534591989954">
        <time>2019-05-17T03:23:32Z</time>
      </trkpt>
      <trkpt lat="47.2307125966797" lon="4.96537388177594">
        <time>2019-05-17T03:23:32Z</time>
      </trkpt>
      <trkpt lat="47.2307529143424" lon="4.96536303433771">
        <time>2019-05-17T03:23:32Z</time>
      </trkpt>
      <trkpt lat="47.2307923717614" lon="4.96533095326979">
        <time>2019-05-17T03:23:32Z</time>
      </trkpt>
      <trkpt lat="47.2308333082067" lon="4.9652857576193">
        <time>2019-05-17T03:23:32Z</time>
      </trkpt>
      <trkpt lat="47.2308760590197" lon="4.96522913991615">
        <time>2019-05-17T03:23:32Z</time>
      </trkpt>
      <trkpt lat="47.2309200729465" lon="4.96516325571604">
        <time>2019-05-17T03:23:32Z</time>
      </trkpt>
      <trkpt lat="47.2309648143414" lon="4.96509030614288">
        <time>2019-05-17T03:23:32Z</time>
      </trkpt>
      <trkpt lat="47.23100971378" lon="4.9650124409906">
        <time>2019-05-17T03:23:32Z</time>
      </trkpt>
      <trkpt lat="47.231054229575" lon="4.96493176174525">
        <time>2019-05-17T03:23:32Z</time>
      </trkpt>
      <trkpt lat="47.231097779595" lon="4.96485051369954">
        <time>2019-05-17T03:23:32Z</time>
      </trkpt>
      <trkpt lat="47.2311398403415" lon="4.96477080413991">
        <time>2019-05-17T03:23:32Z</time>
      </trkpt>
      <trkpt lat="47.2311798325298" lon="4.96469477834391">
        <time>2019-05-17T03:23:32Z</time>
      </trkpt>
      <trkpt lat="47.2312172116385" lon="4.96462468755239">
        <time>2019-05-17T03:23:32Z</time>
      </trkpt>
      <trkpt lat="47.2312514565022" lon="4.96456253738766">
        <time>2019-05-17T03:23:32Z</time>
      </trkpt>
      <trkpt lat="47.2312819649861" lon="4.96451062432539">
        <time>2019-05-17T03:23:32Z</time>
      </trkpt>
      <trkpt lat="47.2313082071699" lon="4.96447099754581">
        <time>2019-05-17T03:23:32Z</time>
      </trkpt>
      <trkpt lat="47.231329655018" lon="4.96444591563139">
        <time>2019-05-17T03:23:32Z</time>
      </trkpt>
    </trkseg>
  </trk>
  <trk>
    <name>Chemin des Grands Crus (1er tronçon : de Dijon à Villers-la-Faye)</name>
    <trkseg>
      <trkpt lat="47.0896763561899" lon="4.86990988257981">
        <time>2019-05-17T03:23:32Z</time>
      </trkpt>
      <trkpt lat="47.0896068900137" lon="4.86985486571774">
        <time>2019-05-17T03:23:32Z</time>
      </trkpt>
    </trkseg>
  </trk>
  <trk>
    <name>Chemin des Grands Crus (1er tronçon : de Dijon à Villers-la-Faye)</name>
    <trkseg>
      <trkpt lat="47.0796498667966" lon="4.8688896584613">
        <time>2019-05-17T03:23:32Z</time>
      </trkpt>
      <trkpt lat="47.0797941505247" lon="4.86891323547279">
        <time>2019-05-17T03:23:32Z</time>
      </trkpt>
      <trkpt lat="47.0799111934358" lon="4.86893198333673">
        <time>2019-05-17T03:23:32Z</time>
      </trkpt>
      <trkpt lat="47.0799924460673" lon="4.86894597514513">
        <time>2019-05-17T03:23:32Z</time>
      </trkpt>
      <trkpt lat="47.080189402058" lon="4.86902079541693">
        <time>2019-05-17T03:23:32Z</time>
      </trkpt>
      <trkpt lat="47.0805395002307" lon="4.86910558952667">
        <time>2019-05-17T03:23:32Z</time>
      </trkpt>
      <trkpt lat="47.0807670157839" lon="4.86918216190488">
        <time>2019-05-17T03:23:32Z</time>
      </trkpt>
      <trkpt lat="47.0810110389048" lon="4.86921657388355">
        <time>2019-05-17T03:23:32Z</time>
      </trkpt>
      <trkpt lat="47.0812402134719" lon="4.86922741680953">
        <time>2019-05-17T03:23:32Z</time>
      </trkpt>
      <trkpt lat="47.0814828443563" lon="4.86921964418504">
        <time>2019-05-17T03:23:32Z</time>
      </trkpt>
      <trkpt lat="47.0817434188391" lon="4.86913564451701">
        <time>2019-05-17T03:23:32Z</time>
      </trkpt>
      <trkpt lat="47.0818713082639" lon="4.86908309733086">
        <time>2019-05-17T03:23:32Z</time>
      </trkpt>
      <trkpt lat="47.0819354675062" lon="4.86904706946809">
        <time>2019-05-17T03:23:32Z</time>
      </trkpt>
      <trkpt lat="47.0819894174468" lon="4.86902032405961">
        <time>2019-05-17T03:23:32Z</time>
      </trkpt>
      <trkpt lat="47.0820403575258" lon="4.86897879130524">
        <time>2019-05-17T03:23:32Z</time>
      </trkpt>
      <trkpt lat="47.0820839902322" lon="4.86896620419586">
        <time>2019-05-17T03:23:32Z</time>
      </trkpt>
      <trkpt lat="47.0821314919585" lon="4.86892939083111">
        <time>2019-05-17T03:23:32Z</time>
      </trkpt>
      <trkpt lat="47.0821689986433" lon="4.8688921057632">
        <time>2019-05-17T03:23:32Z</time>
      </trkpt>
      <trkpt lat="47.0822235929104" lon="4.86883609905772">
        <time>2019-05-17T03:23:32Z</time>
      </trkpt>
      <trkpt lat="47.0822917279101" lon="4.86877096679912">
        <time>2019-05-17T03:23:32Z</time>
      </trkpt>
      <trkpt lat="47.0823460304024" lon="4.86870379294348">
        <time>2019-05-17T03:23:32Z</time>
      </trkpt>
      <trkpt lat="47.082452473024" lon="4.8685691746932">
        <time>2019-05-17T03:23:32Z</time>
      </trkpt>
      <trkpt lat="47.0825160621828" lon="4.86848875315262">
        <time>2019-05-17T03:23:32Z</time>
      </trkpt>
      <trkpt lat="47.0826591288047" lon="4.86832536988289">
        <time>2019-05-17T03:23:32Z</time>
      </trkpt>
      <trkpt lat="47.0828072719339" lon="4.86816600659483">
        <time>2019-05-17T03:23:32Z</time>
      </trkpt>
      <trkpt lat="47.0829166307452" lon="4.86800859348342">
        <time>2019-05-17T03:23:32Z</time>
      </trkpt>
      <trkpt lat="47.0830191476119" lon="4.86781023971732">
        <time>2019-05-17T03:23:32Z</time>
      </trkpt>
      <trkpt lat="47.0832326341842" lon="4.86795595628248">
        <time>2019-05-17T03:23:32Z</time>
      </trkpt>
      <trkpt lat="47.0833324289667" lon="4.86811567581528">
        <time>2019-05-17T03:23:32Z</time>
      </trkpt>
      <trkpt lat="47.0833984508829" lon="4.86829451428149">
        <time>2019-05-17T03:23:32Z</time>
      </trkpt>
      <trkpt lat="47.0834683456603" lon="4.86851676872331">
        <time>2019-05-17T03:23:32Z</time>
      </trkpt>
      <trkpt lat="47.083574390615" lon="4.86879546829004">
        <time>2019-05-17T03:23:32Z</time>
      </trkpt>
      <trkpt lat="47.0836197819466" lon="4.86899832182014">
        <time>2019-05-17T03:23:32Z</time>
      </trkpt>
      <trkpt lat="47.0838234322476" lon="4.86937286253913">
        <time>2019-05-17T03:23:32Z</time>
      </trkpt>
      <trkpt lat="47.0839314826168" lon="4.86956042823021">
        <time>2019-05-17T03:23:32Z</time>
      </trkpt>
      <trkpt lat="47.0841379418841" lon="4.86980737943273">
        <time>2019-05-17T03:23:32Z</time>
      </trkpt>
      <trkpt lat="47.084368099155" lon="4.87011019258304">
        <time>2019-05-17T03:23:32Z</time>
      </trkpt>
      <trkpt lat="47.0845870085902" lon="4.87035773582069">
        <time>2019-05-17T03:23:32Z</time>
      </trkpt>
      <trkpt lat="47.0847689639104" lon="4.87058528967254">
        <time>2019-05-17T03:23:32Z</time>
      </trkpt>
      <trkpt lat="47.0849408775238" lon="4.87070288885062">
        <time>2019-05-17T03:23:32Z</time>
      </trkpt>
      <trkpt lat="47.0850762397145" lon="4.8707822696038">
        <time>2019-05-17T03:23:32Z</time>
      </trkpt>
      <trkpt lat="47.085237307993" lon="4.87082637002541">
        <time>2019-05-17T03:23:32Z</time>
      </trkpt>
      <trkpt lat="47.085385924881" lon="4.87086988267088">
        <time>2019-05-17T03:23:32Z</time>
      </trkpt>
      <trkpt lat="47.0855333365994" lon="4.8709680802552">
        <time>2019-05-17T03:23:32Z</time>
      </trkpt>
      <trkpt lat="47.0856682963092" lon="4.87106569026331">
        <time>2019-05-17T03:23:32Z</time>
      </trkpt>
      <trkpt lat="47.0858542682899" lon="4.8711109682766">
        <time>2019-05-17T03:23:32Z</time>
      </trkpt>
      <trkpt lat="47.0860643400238" lon="4.87119387941041">
        <time>2019-05-17T03:23:32Z</time>
      </trkpt>
      <trkpt lat="47.0862262116156" lon="4.87120152521802">
        <time>2019-05-17T03:23:32Z</time>
      </trkpt>
      <trkpt lat="47.0864868933449" lon="4.87125033309135">
        <time>2019-05-17T03:23:32Z</time>
      </trkpt>
      <trkpt lat="47.0869867338027" lon="4.8713746162065">
        <time>2019-05-17T03:23:32Z</time>
      </trkpt>
      <trkpt lat="47.0871554755924" lon="4.87138258722814">
        <time>2019-05-17T03:23:32Z</time>
      </trkpt>
      <trkpt lat="47.0871837813836" lon="4.87124791565417">
        <time>2019-05-17T03:23:32Z</time>
      </trkpt>
      <trkpt lat="47.0875150025017" lon="4.8696314523324">
        <time>2019-05-17T03:23:32Z</time>
      </trkpt>
      <trkpt lat="47.0881303658697" lon="4.86968523051335">
        <time>2019-05-17T03:23:32Z</time>
      </trkpt>
      <trkpt lat="47.0887443687464" lon="4.86980077003735">
        <time>2019-05-17T03:23:32Z</time>
      </trkpt>
      <trkpt lat="47.0890979102723" lon="4.86985455522024">
        <time>2019-05-17T03:23:32Z</time>
      </trkpt>
      <trkpt lat="47.089519765032" lon="4.86987447172098">
        <time>2019-05-17T03:23:32Z</time>
      </trkpt>
      <trkpt lat="47.0896763561899" lon="4.86990988257981">
        <time>2019-05-17T03:23:32Z</time>
      </trkpt>
    </trkseg>
  </trk>
</gpx>
